<?xml version="1.0" encoding="UTF-8" standalone="no" ?>
<gpx xmlns="http://www.topografix.com/GPX/1/1" xmlns:xsi="http://www.w3.org/2001/XMLSchema-instance" xsi:schemaLocation="http://www.topografix.com/GPX/1/1 http://www.topografix.com/GPX/1/1/gpx.xsd" version="1.1" creator="VisuGPX - https://www.visugpx.com">
  <metadata>
    <name>CO-Rodia</name>
    <desc><![CDATA[CO rodia type Trail Vauban]]></desc>
  </metadata>
  <trk>
    <name><![CDATA[28_02_2014_20_35_44]]></name>
    <trkseg>
      <trkpt lat="47.23449" lon="6.03677">
        <ele>261</ele>
        <time>2014-3-1T13:51:59.000Z</time>
      </trkpt>
      <trkpt lat="47.23449" lon="6.03677">
        <ele>261</ele>
        <time>2014-3-1T13:51:59.000Z</time>
      </trkpt>
      <trkpt lat="47.23448" lon="6.03672">
        <ele>263</ele>
        <time>2014-3-1T13:51:59.000Z</time>
      </trkpt>
      <trkpt lat="47.23448" lon="6.03672">
        <ele>263</ele>
        <time>2014-3-1T13:51:59.000Z</time>
      </trkpt>
      <trkpt lat="47.23446" lon="6.0367">
        <ele>262</ele>
        <time>2014-3-1T13:51:59.000Z</time>
      </trkpt>
      <trkpt lat="47.23446" lon="6.0367">
        <ele>262</ele>
        <time>2014-3-1T13:51:59.000Z</time>
      </trkpt>
      <trkpt lat="47.23449" lon="6.03675">
        <ele>254</ele>
        <time>2014-3-1T13:51:59.000Z</time>
      </trkpt>
      <trkpt lat="47.23449" lon="6.03675">
        <ele>254</ele>
        <time>2014-3-1T13:51:59.000Z</time>
      </trkpt>
      <trkpt lat="47.23448" lon="6.03674">
        <ele>255</ele>
        <time>2014-3-1T13:51:59.000Z</time>
      </trkpt>
      <trkpt lat="47.23448" lon="6.03674">
        <ele>255</ele>
        <time>2014-3-1T13:51:59.000Z</time>
      </trkpt>
      <trkpt lat="47.23446" lon="6.03672">
        <ele>255</ele>
        <time>2014-3-1T13:51:59.000Z</time>
      </trkpt>
      <trkpt lat="47.23446" lon="6.03672">
        <ele>255</ele>
        <time>2014-3-1T13:51:59.000Z</time>
      </trkpt>
      <trkpt lat="47.23446" lon="6.03675">
        <ele>254</ele>
        <time>2014-3-1T13:51:59.000Z</time>
      </trkpt>
      <trkpt lat="47.23446" lon="6.03675">
        <ele>254</ele>
        <time>2014-3-1T13:51:59.000Z</time>
      </trkpt>
      <trkpt lat="47.23445" lon="6.03673">
        <ele>255</ele>
        <time>2014-3-1T13:51:59.000Z</time>
      </trkpt>
      <trkpt lat="47.23445" lon="6.03673">
        <ele>255</ele>
        <time>2014-3-1T13:51:59.000Z</time>
      </trkpt>
      <trkpt lat="47.23444" lon="6.03669">
        <ele>256</ele>
        <time>2014-3-1T13:51:59.000Z</time>
      </trkpt>
      <trkpt lat="47.23444" lon="6.03669">
        <ele>256</ele>
        <time>2014-3-1T13:51:59.000Z</time>
      </trkpt>
      <trkpt lat="47.23443" lon="6.03666">
        <ele>257</ele>
        <time>2014-3-1T13:51:59.000Z</time>
      </trkpt>
      <trkpt lat="47.23443" lon="6.03666">
        <ele>257</ele>
        <time>2014-3-1T13:51:59.000Z</time>
      </trkpt>
      <trkpt lat="47.23441" lon="6.03664">
        <ele>257</ele>
        <time>2014-3-1T13:51:59.000Z</time>
      </trkpt>
      <trkpt lat="47.23441" lon="6.03664">
        <ele>257</ele>
        <time>2014-3-1T13:51:59.000Z</time>
      </trkpt>
      <trkpt lat="47.23439" lon="6.03661">
        <ele>257</ele>
        <time>2014-3-1T13:51:59.000Z</time>
      </trkpt>
      <trkpt lat="47.23439" lon="6.03661">
        <ele>257</ele>
        <time>2014-3-1T13:51:59.000Z</time>
      </trkpt>
      <trkpt lat="47.23437" lon="6.03659">
        <ele>257</ele>
        <time>2014-3-1T13:51:59.000Z</time>
      </trkpt>
      <trkpt lat="47.23437" lon="6.03659">
        <ele>257</ele>
        <time>2014-3-1T13:51:59.000Z</time>
      </trkpt>
      <trkpt lat="47.23436" lon="6.03657">
        <ele>257</ele>
        <time>2014-3-1T13:51:59.000Z</time>
      </trkpt>
      <trkpt lat="47.23436" lon="6.03657">
        <ele>257</ele>
        <time>2014-3-1T13:51:59.000Z</time>
      </trkpt>
      <trkpt lat="47.23434" lon="6.03654">
        <ele>257</ele>
        <time>2014-3-1T13:51:59.000Z</time>
      </trkpt>
      <trkpt lat="47.23434" lon="6.03654">
        <ele>257</ele>
        <time>2014-3-1T13:51:59.000Z</time>
      </trkpt>
      <trkpt lat="47.23433" lon="6.03652">
        <ele>258</ele>
        <time>2014-3-1T13:51:59.000Z</time>
      </trkpt>
      <trkpt lat="47.23433" lon="6.03652">
        <ele>258</ele>
        <time>2014-3-1T13:51:59.000Z</time>
      </trkpt>
      <trkpt lat="47.23431" lon="6.03648">
        <ele>257</ele>
        <time>2014-3-1T13:51:59.000Z</time>
      </trkpt>
      <trkpt lat="47.23431" lon="6.03648">
        <ele>257</ele>
        <time>2014-3-1T13:51:59.000Z</time>
      </trkpt>
      <trkpt lat="47.23429" lon="6.03648">
        <ele>257</ele>
        <time>2014-3-1T13:51:59.000Z</time>
      </trkpt>
      <trkpt lat="47.23429" lon="6.03648">
        <ele>257</ele>
        <time>2014-3-1T13:51:59.000Z</time>
      </trkpt>
      <trkpt lat="47.23425" lon="6.03652">
        <ele>256</ele>
        <time>2014-3-1T13:51:59.000Z</time>
      </trkpt>
      <trkpt lat="47.23425" lon="6.03652">
        <ele>256</ele>
        <time>2014-3-1T13:51:59.000Z</time>
      </trkpt>
      <trkpt lat="47.23423" lon="6.03658">
        <ele>256</ele>
        <time>2014-3-1T13:51:59.000Z</time>
      </trkpt>
      <trkpt lat="47.23423" lon="6.03658">
        <ele>256</ele>
        <time>2014-3-1T13:51:59.000Z</time>
      </trkpt>
      <trkpt lat="47.23423" lon="6.03661">
        <ele>257</ele>
        <time>2014-3-1T13:51:59.000Z</time>
      </trkpt>
      <trkpt lat="47.23423" lon="6.03661">
        <ele>257</ele>
        <time>2014-3-1T13:51:59.000Z</time>
      </trkpt>
      <trkpt lat="47.23421" lon="6.03663">
        <ele>257</ele>
        <time>2014-3-1T13:51:59.000Z</time>
      </trkpt>
      <trkpt lat="47.23421" lon="6.03663">
        <ele>257</ele>
        <time>2014-3-1T13:51:59.000Z</time>
      </trkpt>
      <trkpt lat="47.23419" lon="6.03664">
        <ele>257</ele>
        <time>2014-3-1T13:51:59.000Z</time>
      </trkpt>
      <trkpt lat="47.23419" lon="6.03664">
        <ele>257</ele>
        <time>2014-3-1T13:51:59.000Z</time>
      </trkpt>
      <trkpt lat="47.23417" lon="6.03661">
        <ele>256</ele>
        <time>2014-3-1T13:51:59.000Z</time>
      </trkpt>
      <trkpt lat="47.23417" lon="6.03661">
        <ele>256</ele>
        <time>2014-3-1T13:51:59.000Z</time>
      </trkpt>
      <trkpt lat="47.23416" lon="6.03659">
        <ele>257</ele>
        <time>2014-3-1T13:51:59.000Z</time>
      </trkpt>
      <trkpt lat="47.23416" lon="6.03659">
        <ele>257</ele>
        <time>2014-3-1T13:51:59.000Z</time>
      </trkpt>
      <trkpt lat="47.23414" lon="6.03658">
        <ele>255</ele>
        <time>2014-3-1T13:51:59.000Z</time>
      </trkpt>
      <trkpt lat="47.23414" lon="6.03658">
        <ele>255</ele>
        <time>2014-3-1T13:51:59.000Z</time>
      </trkpt>
      <trkpt lat="47.23413" lon="6.03659">
        <ele>252</ele>
        <time>2014-3-1T13:54:38.000Z</time>
      </trkpt>
      <trkpt lat="47.23413" lon="6.03659">
        <ele>252</ele>
        <time>2014-3-1T13:54:38.000Z</time>
      </trkpt>
      <trkpt lat="47.23414" lon="6.0366">
        <ele>252</ele>
        <time>2014-3-1T13:54:38.000Z</time>
      </trkpt>
      <trkpt lat="47.23414" lon="6.0366">
        <ele>252</ele>
        <time>2014-3-1T13:54:38.000Z</time>
      </trkpt>
      <trkpt lat="47.23414" lon="6.0366">
        <ele>252</ele>
        <time>2014-3-1T13:54:38.000Z</time>
      </trkpt>
      <trkpt lat="47.23414" lon="6.0366">
        <ele>252</ele>
        <time>2014-3-1T13:54:38.000Z</time>
      </trkpt>
      <trkpt lat="47.23407" lon="6.03658">
        <ele>256</ele>
        <time>2014-3-1T13:57:47.000Z</time>
      </trkpt>
      <trkpt lat="47.23407" lon="6.03658">
        <ele>256</ele>
        <time>2014-3-1T13:57:47.000Z</time>
      </trkpt>
      <trkpt lat="47.234" lon="6.0366">
        <ele>256</ele>
        <time>2014-3-1T13:57:47.000Z</time>
      </trkpt>
      <trkpt lat="47.234" lon="6.0366">
        <ele>256</ele>
        <time>2014-3-1T13:57:47.000Z</time>
      </trkpt>
      <trkpt lat="47.23394" lon="6.03665">
        <ele>256</ele>
        <time>2014-3-1T13:57:47.000Z</time>
      </trkpt>
      <trkpt lat="47.23394" lon="6.03665">
        <ele>256</ele>
        <time>2014-3-1T13:57:47.000Z</time>
      </trkpt>
      <trkpt lat="47.23387" lon="6.03667">
        <ele>254</ele>
        <time>2014-3-1T13:57:47.000Z</time>
      </trkpt>
      <trkpt lat="47.23387" lon="6.03667">
        <ele>254</ele>
        <time>2014-3-1T13:57:47.000Z</time>
      </trkpt>
      <trkpt lat="47.23381" lon="6.03668">
        <ele>253</ele>
        <time>2014-3-1T13:57:47.000Z</time>
      </trkpt>
      <trkpt lat="47.23381" lon="6.03668">
        <ele>253</ele>
        <time>2014-3-1T13:57:47.000Z</time>
      </trkpt>
      <trkpt lat="47.23375" lon="6.03674">
        <ele>252</ele>
        <time>2014-3-1T13:57:47.000Z</time>
      </trkpt>
      <trkpt lat="47.23375" lon="6.03674">
        <ele>252</ele>
        <time>2014-3-1T13:57:47.000Z</time>
      </trkpt>
      <trkpt lat="47.23368" lon="6.03679">
        <ele>251</ele>
        <time>2014-3-1T13:57:47.000Z</time>
      </trkpt>
      <trkpt lat="47.23368" lon="6.03679">
        <ele>251</ele>
        <time>2014-3-1T13:57:47.000Z</time>
      </trkpt>
      <trkpt lat="47.23361" lon="6.03681">
        <ele>249</ele>
        <time>2014-3-1T13:57:47.000Z</time>
      </trkpt>
      <trkpt lat="47.23361" lon="6.03681">
        <ele>249</ele>
        <time>2014-3-1T13:57:47.000Z</time>
      </trkpt>
      <trkpt lat="47.23355" lon="6.03686">
        <ele>245</ele>
        <time>2014-3-1T13:57:47.000Z</time>
      </trkpt>
      <trkpt lat="47.23355" lon="6.03686">
        <ele>245</ele>
        <time>2014-3-1T13:57:47.000Z</time>
      </trkpt>
      <trkpt lat="47.23349" lon="6.0369">
        <ele>245</ele>
        <time>2014-3-1T13:57:47.000Z</time>
      </trkpt>
      <trkpt lat="47.23349" lon="6.0369">
        <ele>245</ele>
        <time>2014-3-1T13:57:47.000Z</time>
      </trkpt>
      <trkpt lat="47.23342" lon="6.03693">
        <ele>246</ele>
        <time>2014-3-1T13:57:47.000Z</time>
      </trkpt>
      <trkpt lat="47.23342" lon="6.03693">
        <ele>246</ele>
        <time>2014-3-1T13:57:47.000Z</time>
      </trkpt>
      <trkpt lat="47.23335" lon="6.03697">
        <ele>248</ele>
        <time>2014-3-1T13:57:47.000Z</time>
      </trkpt>
      <trkpt lat="47.23335" lon="6.03697">
        <ele>248</ele>
        <time>2014-3-1T13:57:47.000Z</time>
      </trkpt>
      <trkpt lat="47.23327" lon="6.03703">
        <ele>249</ele>
        <time>2014-3-1T13:57:47.000Z</time>
      </trkpt>
      <trkpt lat="47.23327" lon="6.03703">
        <ele>249</ele>
        <time>2014-3-1T13:57:47.000Z</time>
      </trkpt>
      <trkpt lat="47.2332" lon="6.03707">
        <ele>250</ele>
        <time>2014-3-1T13:57:47.000Z</time>
      </trkpt>
      <trkpt lat="47.2332" lon="6.03707">
        <ele>250</ele>
        <time>2014-3-1T13:57:47.000Z</time>
      </trkpt>
      <trkpt lat="47.23312" lon="6.0371">
        <ele>250</ele>
        <time>2014-3-1T13:57:47.000Z</time>
      </trkpt>
      <trkpt lat="47.23312" lon="6.0371">
        <ele>250</ele>
        <time>2014-3-1T13:57:47.000Z</time>
      </trkpt>
      <trkpt lat="47.23304" lon="6.03715">
        <ele>251</ele>
        <time>2014-3-1T13:57:47.000Z</time>
      </trkpt>
      <trkpt lat="47.23304" lon="6.03715">
        <ele>251</ele>
        <time>2014-3-1T13:57:47.000Z</time>
      </trkpt>
      <trkpt lat="47.23297" lon="6.03719">
        <ele>252</ele>
        <time>2014-3-1T13:57:47.000Z</time>
      </trkpt>
      <trkpt lat="47.23297" lon="6.03719">
        <ele>252</ele>
        <time>2014-3-1T13:57:47.000Z</time>
      </trkpt>
      <trkpt lat="47.23291" lon="6.03723">
        <ele>252</ele>
        <time>2014-3-1T13:57:47.000Z</time>
      </trkpt>
      <trkpt lat="47.23291" lon="6.03723">
        <ele>252</ele>
        <time>2014-3-1T13:57:47.000Z</time>
      </trkpt>
      <trkpt lat="47.23284" lon="6.03727">
        <ele>251</ele>
        <time>2014-3-1T13:57:47.000Z</time>
      </trkpt>
      <trkpt lat="47.23284" lon="6.03727">
        <ele>251</ele>
        <time>2014-3-1T13:57:47.000Z</time>
      </trkpt>
      <trkpt lat="47.23278" lon="6.03731">
        <ele>252</ele>
        <time>2014-3-1T13:57:47.000Z</time>
      </trkpt>
      <trkpt lat="47.23278" lon="6.03731">
        <ele>252</ele>
        <time>2014-3-1T13:57:47.000Z</time>
      </trkpt>
      <trkpt lat="47.23269" lon="6.03733">
        <ele>251</ele>
        <time>2014-3-1T13:57:47.000Z</time>
      </trkpt>
      <trkpt lat="47.23269" lon="6.03733">
        <ele>251</ele>
        <time>2014-3-1T13:57:47.000Z</time>
      </trkpt>
      <trkpt lat="47.23261" lon="6.03734">
        <ele>250</ele>
        <time>2014-3-1T13:57:47.000Z</time>
      </trkpt>
      <trkpt lat="47.23261" lon="6.03734">
        <ele>250</ele>
        <time>2014-3-1T13:57:47.000Z</time>
      </trkpt>
      <trkpt lat="47.23253" lon="6.03735">
        <ele>249</ele>
        <time>2014-3-1T13:57:47.000Z</time>
      </trkpt>
      <trkpt lat="47.23253" lon="6.03735">
        <ele>249</ele>
        <time>2014-3-1T13:57:47.000Z</time>
      </trkpt>
      <trkpt lat="47.23246" lon="6.03742">
        <ele>249</ele>
        <time>2014-3-1T13:57:47.000Z</time>
      </trkpt>
      <trkpt lat="47.23246" lon="6.03742">
        <ele>249</ele>
        <time>2014-3-1T13:57:47.000Z</time>
      </trkpt>
      <trkpt lat="47.23241" lon="6.03747">
        <ele>248</ele>
        <time>2014-3-1T13:57:47.000Z</time>
      </trkpt>
      <trkpt lat="47.23241" lon="6.03747">
        <ele>248</ele>
        <time>2014-3-1T13:57:47.000Z</time>
      </trkpt>
      <trkpt lat="47.23235" lon="6.0375">
        <ele>249</ele>
        <time>2014-3-1T13:57:47.000Z</time>
      </trkpt>
      <trkpt lat="47.23235" lon="6.0375">
        <ele>249</ele>
        <time>2014-3-1T13:57:47.000Z</time>
      </trkpt>
      <trkpt lat="47.23227" lon="6.03752">
        <ele>251</ele>
        <time>2014-3-1T13:57:47.000Z</time>
      </trkpt>
      <trkpt lat="47.23227" lon="6.03752">
        <ele>251</ele>
        <time>2014-3-1T13:57:47.000Z</time>
      </trkpt>
      <trkpt lat="47.2322" lon="6.03757">
        <ele>248</ele>
        <time>2014-3-1T13:57:47.000Z</time>
      </trkpt>
      <trkpt lat="47.2322" lon="6.03757">
        <ele>248</ele>
        <time>2014-3-1T13:57:47.000Z</time>
      </trkpt>
      <trkpt lat="47.23214" lon="6.03761">
        <ele>245</ele>
        <time>2014-3-1T13:57:47.000Z</time>
      </trkpt>
      <trkpt lat="47.23214" lon="6.03761">
        <ele>245</ele>
        <time>2014-3-1T13:57:47.000Z</time>
      </trkpt>
      <trkpt lat="47.23205" lon="6.03764">
        <ele>246</ele>
        <time>2014-3-1T13:57:47.000Z</time>
      </trkpt>
      <trkpt lat="47.23205" lon="6.03764">
        <ele>246</ele>
        <time>2014-3-1T13:57:47.000Z</time>
      </trkpt>
      <trkpt lat="47.23197" lon="6.03767">
        <ele>245</ele>
        <time>2014-3-1T13:57:47.000Z</time>
      </trkpt>
      <trkpt lat="47.23197" lon="6.03767">
        <ele>245</ele>
        <time>2014-3-1T13:57:47.000Z</time>
      </trkpt>
      <trkpt lat="47.23189" lon="6.03768">
        <ele>247</ele>
        <time>2014-3-1T13:57:47.000Z</time>
      </trkpt>
      <trkpt lat="47.23189" lon="6.03768">
        <ele>247</ele>
        <time>2014-3-1T13:57:47.000Z</time>
      </trkpt>
      <trkpt lat="47.23196" lon="6.03768">
        <ele>250</ele>
        <time>2014-3-1T13:57:47.000Z</time>
      </trkpt>
      <trkpt lat="47.23196" lon="6.03768">
        <ele>250</ele>
        <time>2014-3-1T13:57:47.000Z</time>
      </trkpt>
      <trkpt lat="47.23202" lon="6.0376">
        <ele>251</ele>
        <time>2014-3-1T13:57:47.000Z</time>
      </trkpt>
      <trkpt lat="47.23202" lon="6.0376">
        <ele>251</ele>
        <time>2014-3-1T13:57:47.000Z</time>
      </trkpt>
      <trkpt lat="47.23208" lon="6.03757">
        <ele>250</ele>
        <time>2014-3-1T13:57:47.000Z</time>
      </trkpt>
      <trkpt lat="47.23208" lon="6.03757">
        <ele>250</ele>
        <time>2014-3-1T13:57:47.000Z</time>
      </trkpt>
      <trkpt lat="47.23209" lon="6.03766">
        <ele>249</ele>
        <time>2014-3-1T13:57:47.000Z</time>
      </trkpt>
      <trkpt lat="47.23209" lon="6.03766">
        <ele>249</ele>
        <time>2014-3-1T13:57:47.000Z</time>
      </trkpt>
      <trkpt lat="47.23212" lon="6.03775">
        <ele>248</ele>
        <time>2014-3-1T13:57:47.000Z</time>
      </trkpt>
      <trkpt lat="47.23212" lon="6.03775">
        <ele>248</ele>
        <time>2014-3-1T13:57:47.000Z</time>
      </trkpt>
      <trkpt lat="47.23215" lon="6.03784">
        <ele>249</ele>
        <time>2014-3-1T13:57:47.000Z</time>
      </trkpt>
      <trkpt lat="47.23215" lon="6.03784">
        <ele>249</ele>
        <time>2014-3-1T13:57:47.000Z</time>
      </trkpt>
      <trkpt lat="47.23211" lon="6.03791">
        <ele>253</ele>
        <time>2014-3-1T13:57:47.000Z</time>
      </trkpt>
      <trkpt lat="47.23211" lon="6.03791">
        <ele>253</ele>
        <time>2014-3-1T13:57:47.000Z</time>
      </trkpt>
      <trkpt lat="47.23211" lon="6.03801">
        <ele>251</ele>
        <time>2014-3-1T13:57:47.000Z</time>
      </trkpt>
      <trkpt lat="47.23211" lon="6.03801">
        <ele>251</ele>
        <time>2014-3-1T13:57:47.000Z</time>
      </trkpt>
      <trkpt lat="47.23217" lon="6.03803">
        <ele>249</ele>
        <time>2014-3-1T13:59:12.000Z</time>
      </trkpt>
      <trkpt lat="47.23217" lon="6.03803">
        <ele>249</ele>
        <time>2014-3-1T13:59:12.000Z</time>
      </trkpt>
      <trkpt lat="47.23217" lon="6.03803">
        <ele>249</ele>
        <time>2014-3-1T13:59:12.000Z</time>
      </trkpt>
      <trkpt lat="47.23217" lon="6.03803">
        <ele>249</ele>
        <time>2014-3-1T13:59:12.000Z</time>
      </trkpt>
      <trkpt lat="47.23213" lon="6.03794">
        <ele>248</ele>
        <time>2014-3-1T14:4:8.000Z</time>
      </trkpt>
      <trkpt lat="47.23213" lon="6.03794">
        <ele>248</ele>
        <time>2014-3-1T14:4:8.000Z</time>
      </trkpt>
      <trkpt lat="47.23216" lon="6.03781">
        <ele>247</ele>
        <time>2014-3-1T14:4:8.000Z</time>
      </trkpt>
      <trkpt lat="47.23216" lon="6.03781">
        <ele>247</ele>
        <time>2014-3-1T14:4:8.000Z</time>
      </trkpt>
      <trkpt lat="47.23219" lon="6.03773">
        <ele>246</ele>
        <time>2014-3-1T14:4:8.000Z</time>
      </trkpt>
      <trkpt lat="47.23219" lon="6.03773">
        <ele>246</ele>
        <time>2014-3-1T14:4:8.000Z</time>
      </trkpt>
      <trkpt lat="47.23221" lon="6.03764">
        <ele>247</ele>
        <time>2014-3-1T14:4:8.000Z</time>
      </trkpt>
      <trkpt lat="47.23221" lon="6.03764">
        <ele>247</ele>
        <time>2014-3-1T14:4:8.000Z</time>
      </trkpt>
      <trkpt lat="47.23225" lon="6.03754">
        <ele>247</ele>
        <time>2014-3-1T14:4:8.000Z</time>
      </trkpt>
      <trkpt lat="47.23225" lon="6.03754">
        <ele>247</ele>
        <time>2014-3-1T14:4:8.000Z</time>
      </trkpt>
      <trkpt lat="47.23229" lon="6.03746">
        <ele>247</ele>
        <time>2014-3-1T14:4:8.000Z</time>
      </trkpt>
      <trkpt lat="47.23229" lon="6.03746">
        <ele>247</ele>
        <time>2014-3-1T14:4:8.000Z</time>
      </trkpt>
      <trkpt lat="47.23235" lon="6.03741">
        <ele>244</ele>
        <time>2014-3-1T14:4:8.000Z</time>
      </trkpt>
      <trkpt lat="47.23235" lon="6.03741">
        <ele>244</ele>
        <time>2014-3-1T14:4:8.000Z</time>
      </trkpt>
      <trkpt lat="47.23241" lon="6.03738">
        <ele>243</ele>
        <time>2014-3-1T14:4:8.000Z</time>
      </trkpt>
      <trkpt lat="47.23241" lon="6.03738">
        <ele>243</ele>
        <time>2014-3-1T14:4:8.000Z</time>
      </trkpt>
      <trkpt lat="47.23248" lon="6.03742">
        <ele>245</ele>
        <time>2014-3-1T14:4:8.000Z</time>
      </trkpt>
      <trkpt lat="47.23248" lon="6.03742">
        <ele>245</ele>
        <time>2014-3-1T14:4:8.000Z</time>
      </trkpt>
      <trkpt lat="47.23258" lon="6.03742">
        <ele>248</ele>
        <time>2014-3-1T14:4:8.000Z</time>
      </trkpt>
      <trkpt lat="47.23258" lon="6.03742">
        <ele>248</ele>
        <time>2014-3-1T14:4:8.000Z</time>
      </trkpt>
      <trkpt lat="47.23264" lon="6.0374">
        <ele>251</ele>
        <time>2014-3-1T14:4:8.000Z</time>
      </trkpt>
      <trkpt lat="47.23264" lon="6.0374">
        <ele>251</ele>
        <time>2014-3-1T14:4:8.000Z</time>
      </trkpt>
      <trkpt lat="47.2327" lon="6.03736">
        <ele>251</ele>
        <time>2014-3-1T14:4:8.000Z</time>
      </trkpt>
      <trkpt lat="47.2327" lon="6.03736">
        <ele>251</ele>
        <time>2014-3-1T14:4:8.000Z</time>
      </trkpt>
      <trkpt lat="47.23277" lon="6.03733">
        <ele>252</ele>
        <time>2014-3-1T14:4:8.000Z</time>
      </trkpt>
      <trkpt lat="47.23277" lon="6.03733">
        <ele>252</ele>
        <time>2014-3-1T14:4:8.000Z</time>
      </trkpt>
      <trkpt lat="47.23284" lon="6.03728">
        <ele>254</ele>
        <time>2014-3-1T14:4:8.000Z</time>
      </trkpt>
      <trkpt lat="47.23284" lon="6.03728">
        <ele>254</ele>
        <time>2014-3-1T14:4:8.000Z</time>
      </trkpt>
      <trkpt lat="47.2329" lon="6.03725">
        <ele>254</ele>
        <time>2014-3-1T14:4:8.000Z</time>
      </trkpt>
      <trkpt lat="47.2329" lon="6.03725">
        <ele>254</ele>
        <time>2014-3-1T14:4:8.000Z</time>
      </trkpt>
      <trkpt lat="47.23297" lon="6.03723">
        <ele>256</ele>
        <time>2014-3-1T14:4:8.000Z</time>
      </trkpt>
      <trkpt lat="47.23297" lon="6.03723">
        <ele>256</ele>
        <time>2014-3-1T14:4:8.000Z</time>
      </trkpt>
      <trkpt lat="47.23299" lon="6.03733">
        <ele>255</ele>
        <time>2014-3-1T14:4:8.000Z</time>
      </trkpt>
      <trkpt lat="47.23299" lon="6.03733">
        <ele>255</ele>
        <time>2014-3-1T14:4:8.000Z</time>
      </trkpt>
      <trkpt lat="47.23305" lon="6.03739">
        <ele>255</ele>
        <time>2014-3-1T14:4:8.000Z</time>
      </trkpt>
      <trkpt lat="47.23305" lon="6.03739">
        <ele>255</ele>
        <time>2014-3-1T14:4:8.000Z</time>
      </trkpt>
      <trkpt lat="47.23311" lon="6.03746">
        <ele>255</ele>
        <time>2014-3-1T14:4:8.000Z</time>
      </trkpt>
      <trkpt lat="47.23311" lon="6.03746">
        <ele>255</ele>
        <time>2014-3-1T14:4:8.000Z</time>
      </trkpt>
      <trkpt lat="47.23304" lon="6.03751">
        <ele>251</ele>
        <time>2014-3-1T14:4:8.000Z</time>
      </trkpt>
      <trkpt lat="47.23304" lon="6.03751">
        <ele>251</ele>
        <time>2014-3-1T14:4:8.000Z</time>
      </trkpt>
      <trkpt lat="47.23296" lon="6.03755">
        <ele>250</ele>
        <time>2014-3-1T14:4:8.000Z</time>
      </trkpt>
      <trkpt lat="47.23296" lon="6.03755">
        <ele>250</ele>
        <time>2014-3-1T14:4:8.000Z</time>
      </trkpt>
      <trkpt lat="47.23288" lon="6.03758">
        <ele>250</ele>
        <time>2014-3-1T14:4:8.000Z</time>
      </trkpt>
      <trkpt lat="47.23288" lon="6.03758">
        <ele>250</ele>
        <time>2014-3-1T14:4:8.000Z</time>
      </trkpt>
      <trkpt lat="47.23282" lon="6.03759">
        <ele>248</ele>
        <time>2014-3-1T14:4:8.000Z</time>
      </trkpt>
      <trkpt lat="47.23282" lon="6.03759">
        <ele>248</ele>
        <time>2014-3-1T14:4:8.000Z</time>
      </trkpt>
      <trkpt lat="47.23276" lon="6.03763">
        <ele>248</ele>
        <time>2014-3-1T14:4:8.000Z</time>
      </trkpt>
      <trkpt lat="47.23276" lon="6.03763">
        <ele>248</ele>
        <time>2014-3-1T14:4:8.000Z</time>
      </trkpt>
      <trkpt lat="47.2327" lon="6.03767">
        <ele>246</ele>
        <time>2014-3-1T14:4:8.000Z</time>
      </trkpt>
      <trkpt lat="47.2327" lon="6.03767">
        <ele>246</ele>
        <time>2014-3-1T14:4:8.000Z</time>
      </trkpt>
      <trkpt lat="47.2327" lon="6.03778">
        <ele>249</ele>
        <time>2014-3-1T14:4:8.000Z</time>
      </trkpt>
      <trkpt lat="47.2327" lon="6.03778">
        <ele>249</ele>
        <time>2014-3-1T14:4:8.000Z</time>
      </trkpt>
      <trkpt lat="47.23263" lon="6.0378">
        <ele>251</ele>
        <time>2014-3-1T14:4:8.000Z</time>
      </trkpt>
      <trkpt lat="47.23263" lon="6.0378">
        <ele>251</ele>
        <time>2014-3-1T14:4:8.000Z</time>
      </trkpt>
      <trkpt lat="47.23256" lon="6.03783">
        <ele>254</ele>
        <time>2014-3-1T14:4:8.000Z</time>
      </trkpt>
      <trkpt lat="47.23256" lon="6.03783">
        <ele>254</ele>
        <time>2014-3-1T14:4:8.000Z</time>
      </trkpt>
      <trkpt lat="47.23247" lon="6.03786">
        <ele>256</ele>
        <time>2014-3-1T14:4:8.000Z</time>
      </trkpt>
      <trkpt lat="47.23247" lon="6.03786">
        <ele>256</ele>
        <time>2014-3-1T14:4:8.000Z</time>
      </trkpt>
      <trkpt lat="47.23241" lon="6.0379">
        <ele>256</ele>
        <time>2014-3-1T14:4:8.000Z</time>
      </trkpt>
      <trkpt lat="47.23241" lon="6.0379">
        <ele>256</ele>
        <time>2014-3-1T14:4:8.000Z</time>
      </trkpt>
      <trkpt lat="47.23235" lon="6.03795">
        <ele>257</ele>
        <time>2014-3-1T14:4:8.000Z</time>
      </trkpt>
      <trkpt lat="47.23235" lon="6.03795">
        <ele>257</ele>
        <time>2014-3-1T14:4:8.000Z</time>
      </trkpt>
      <trkpt lat="47.23232" lon="6.03804">
        <ele>259</ele>
        <time>2014-3-1T14:4:8.000Z</time>
      </trkpt>
      <trkpt lat="47.23232" lon="6.03804">
        <ele>259</ele>
        <time>2014-3-1T14:4:8.000Z</time>
      </trkpt>
      <trkpt lat="47.23228" lon="6.03811">
        <ele>258</ele>
        <time>2014-3-1T14:4:8.000Z</time>
      </trkpt>
      <trkpt lat="47.23228" lon="6.03811">
        <ele>258</ele>
        <time>2014-3-1T14:4:8.000Z</time>
      </trkpt>
      <trkpt lat="47.23223" lon="6.03818">
        <ele>258</ele>
        <time>2014-3-1T14:4:8.000Z</time>
      </trkpt>
      <trkpt lat="47.23223" lon="6.03818">
        <ele>258</ele>
        <time>2014-3-1T14:4:8.000Z</time>
      </trkpt>
      <trkpt lat="47.23218" lon="6.03825">
        <ele>256</ele>
        <time>2014-3-1T14:4:8.000Z</time>
      </trkpt>
      <trkpt lat="47.23218" lon="6.03825">
        <ele>256</ele>
        <time>2014-3-1T14:4:8.000Z</time>
      </trkpt>
      <trkpt lat="47.23213" lon="6.03831">
        <ele>257</ele>
        <time>2014-3-1T14:4:8.000Z</time>
      </trkpt>
      <trkpt lat="47.23213" lon="6.03831">
        <ele>257</ele>
        <time>2014-3-1T14:4:8.000Z</time>
      </trkpt>
      <trkpt lat="47.23208" lon="6.03838">
        <ele>257</ele>
        <time>2014-3-1T14:4:8.000Z</time>
      </trkpt>
      <trkpt lat="47.23208" lon="6.03838">
        <ele>257</ele>
        <time>2014-3-1T14:4:8.000Z</time>
      </trkpt>
      <trkpt lat="47.23203" lon="6.03844">
        <ele>257</ele>
        <time>2014-3-1T14:4:8.000Z</time>
      </trkpt>
      <trkpt lat="47.23203" lon="6.03844">
        <ele>257</ele>
        <time>2014-3-1T14:4:8.000Z</time>
      </trkpt>
      <trkpt lat="47.23196" lon="6.03853">
        <ele>258</ele>
        <time>2014-3-1T14:4:8.000Z</time>
      </trkpt>
      <trkpt lat="47.23196" lon="6.03853">
        <ele>258</ele>
        <time>2014-3-1T14:4:8.000Z</time>
      </trkpt>
      <trkpt lat="47.23191" lon="6.03861">
        <ele>258</ele>
        <time>2014-3-1T14:4:8.000Z</time>
      </trkpt>
      <trkpt lat="47.23191" lon="6.03861">
        <ele>258</ele>
        <time>2014-3-1T14:4:8.000Z</time>
      </trkpt>
      <trkpt lat="47.23186" lon="6.0387">
        <ele>258</ele>
        <time>2014-3-1T14:4:8.000Z</time>
      </trkpt>
      <trkpt lat="47.23186" lon="6.0387">
        <ele>258</ele>
        <time>2014-3-1T14:4:8.000Z</time>
      </trkpt>
      <trkpt lat="47.2318" lon="6.03877">
        <ele>258</ele>
        <time>2014-3-1T14:4:8.000Z</time>
      </trkpt>
      <trkpt lat="47.2318" lon="6.03877">
        <ele>258</ele>
        <time>2014-3-1T14:4:8.000Z</time>
      </trkpt>
      <trkpt lat="47.23175" lon="6.03884">
        <ele>259</ele>
        <time>2014-3-1T14:4:8.000Z</time>
      </trkpt>
      <trkpt lat="47.23175" lon="6.03884">
        <ele>259</ele>
        <time>2014-3-1T14:4:8.000Z</time>
      </trkpt>
      <trkpt lat="47.23169" lon="6.03892">
        <ele>259</ele>
        <time>2014-3-1T14:4:8.000Z</time>
      </trkpt>
      <trkpt lat="47.23169" lon="6.03892">
        <ele>259</ele>
        <time>2014-3-1T14:4:8.000Z</time>
      </trkpt>
      <trkpt lat="47.23164" lon="6.03899">
        <ele>259</ele>
        <time>2014-3-1T14:4:8.000Z</time>
      </trkpt>
      <trkpt lat="47.23164" lon="6.03899">
        <ele>259</ele>
        <time>2014-3-1T14:4:8.000Z</time>
      </trkpt>
      <trkpt lat="47.23158" lon="6.03905">
        <ele>257</ele>
        <time>2014-3-1T14:4:8.000Z</time>
      </trkpt>
      <trkpt lat="47.23158" lon="6.03905">
        <ele>257</ele>
        <time>2014-3-1T14:4:8.000Z</time>
      </trkpt>
      <trkpt lat="47.23153" lon="6.03912">
        <ele>256</ele>
        <time>2014-3-1T14:4:8.000Z</time>
      </trkpt>
      <trkpt lat="47.23153" lon="6.03912">
        <ele>256</ele>
        <time>2014-3-1T14:4:8.000Z</time>
      </trkpt>
      <trkpt lat="47.23147" lon="6.03905">
        <ele>256</ele>
        <time>2014-3-1T14:4:8.000Z</time>
      </trkpt>
      <trkpt lat="47.23147" lon="6.03905">
        <ele>256</ele>
        <time>2014-3-1T14:4:8.000Z</time>
      </trkpt>
      <trkpt lat="47.23141" lon="6.03898">
        <ele>258</ele>
        <time>2014-3-1T14:4:8.000Z</time>
      </trkpt>
      <trkpt lat="47.23141" lon="6.03898">
        <ele>258</ele>
        <time>2014-3-1T14:4:8.000Z</time>
      </trkpt>
      <trkpt lat="47.23138" lon="6.03889">
        <ele>257</ele>
        <time>2014-3-1T14:4:8.000Z</time>
      </trkpt>
      <trkpt lat="47.23138" lon="6.03889">
        <ele>257</ele>
        <time>2014-3-1T14:4:8.000Z</time>
      </trkpt>
      <trkpt lat="47.23139" lon="6.03879">
        <ele>253</ele>
        <time>2014-3-1T14:4:8.000Z</time>
      </trkpt>
      <trkpt lat="47.23139" lon="6.03879">
        <ele>253</ele>
        <time>2014-3-1T14:7:10.000Z</time>
      </trkpt>
      <trkpt lat="47.23144" lon="6.03872">
        <ele>254</ele>
        <time>2014-3-1T14:7:10.000Z</time>
      </trkpt>
      <trkpt lat="47.23144" lon="6.03872">
        <ele>254</ele>
        <time>2014-3-1T14:7:10.000Z</time>
      </trkpt>
      <trkpt lat="47.23148" lon="6.03865">
        <ele>253</ele>
        <time>2014-3-1T14:7:10.000Z</time>
      </trkpt>
      <trkpt lat="47.23148" lon="6.03865">
        <ele>253</ele>
        <time>2014-3-1T14:7:10.000Z</time>
      </trkpt>
      <trkpt lat="47.23151" lon="6.03855">
        <ele>252</ele>
        <time>2014-3-1T14:7:10.000Z</time>
      </trkpt>
      <trkpt lat="47.23151" lon="6.03855">
        <ele>252</ele>
        <time>2014-3-1T14:7:10.000Z</time>
      </trkpt>
      <trkpt lat="47.23151" lon="6.03844">
        <ele>254</ele>
        <time>2014-3-1T14:7:10.000Z</time>
      </trkpt>
      <trkpt lat="47.23151" lon="6.03844">
        <ele>254</ele>
        <time>2014-3-1T14:7:10.000Z</time>
      </trkpt>
      <trkpt lat="47.23149" lon="6.03835">
        <ele>253</ele>
        <time>2014-3-1T14:7:10.000Z</time>
      </trkpt>
      <trkpt lat="47.23149" lon="6.03835">
        <ele>253</ele>
        <time>2014-3-1T14:7:10.000Z</time>
      </trkpt>
      <trkpt lat="47.23143" lon="6.03828">
        <ele>253</ele>
        <time>2014-3-1T14:7:10.000Z</time>
      </trkpt>
      <trkpt lat="47.23143" lon="6.03828">
        <ele>253</ele>
        <time>2014-3-1T14:7:10.000Z</time>
      </trkpt>
      <trkpt lat="47.23139" lon="6.0382">
        <ele>251</ele>
        <time>2014-3-1T14:7:10.000Z</time>
      </trkpt>
      <trkpt lat="47.23139" lon="6.0382">
        <ele>251</ele>
        <time>2014-3-1T14:7:10.000Z</time>
      </trkpt>
      <trkpt lat="47.23133" lon="6.03815">
        <ele>251</ele>
        <time>2014-3-1T14:7:10.000Z</time>
      </trkpt>
      <trkpt lat="47.23133" lon="6.03815">
        <ele>251</ele>
        <time>2014-3-1T14:7:10.000Z</time>
      </trkpt>
      <trkpt lat="47.23132" lon="6.03804">
        <ele>251</ele>
        <time>2014-3-1T14:7:10.000Z</time>
      </trkpt>
      <trkpt lat="47.23132" lon="6.03804">
        <ele>251</ele>
        <time>2014-3-1T14:7:10.000Z</time>
      </trkpt>
      <trkpt lat="47.2314" lon="6.03801">
        <ele>251</ele>
        <time>2014-3-1T14:7:10.000Z</time>
      </trkpt>
      <trkpt lat="47.2314" lon="6.03801">
        <ele>251</ele>
        <time>2014-3-1T14:7:10.000Z</time>
      </trkpt>
      <trkpt lat="47.23148" lon="6.03798">
        <ele>251</ele>
        <time>2014-3-1T14:7:10.000Z</time>
      </trkpt>
      <trkpt lat="47.23148" lon="6.03798">
        <ele>251</ele>
        <time>2014-3-1T14:7:10.000Z</time>
      </trkpt>
      <trkpt lat="47.23155" lon="6.03795">
        <ele>251</ele>
        <time>2014-3-1T14:7:10.000Z</time>
      </trkpt>
      <trkpt lat="47.23155" lon="6.03795">
        <ele>251</ele>
        <time>2014-3-1T14:7:10.000Z</time>
      </trkpt>
      <trkpt lat="47.23162" lon="6.03792">
        <ele>251</ele>
        <time>2014-3-1T14:7:10.000Z</time>
      </trkpt>
      <trkpt lat="47.23162" lon="6.03792">
        <ele>251</ele>
        <time>2014-3-1T14:7:10.000Z</time>
      </trkpt>
      <trkpt lat="47.23168" lon="6.03788">
        <ele>251</ele>
        <time>2014-3-1T14:7:10.000Z</time>
      </trkpt>
      <trkpt lat="47.23168" lon="6.03788">
        <ele>251</ele>
        <time>2014-3-1T14:7:10.000Z</time>
      </trkpt>
      <trkpt lat="47.23175" lon="6.03785">
        <ele>250</ele>
        <time>2014-3-1T14:7:10.000Z</time>
      </trkpt>
      <trkpt lat="47.23175" lon="6.03785">
        <ele>250</ele>
        <time>2014-3-1T14:7:10.000Z</time>
      </trkpt>
      <trkpt lat="47.2318" lon="6.03781">
        <ele>248</ele>
        <time>2014-3-1T14:7:10.000Z</time>
      </trkpt>
      <trkpt lat="47.2318" lon="6.03781">
        <ele>248</ele>
        <time>2014-3-1T14:7:10.000Z</time>
      </trkpt>
      <trkpt lat="47.23186" lon="6.03777">
        <ele>252</ele>
        <time>2014-3-1T14:7:10.000Z</time>
      </trkpt>
      <trkpt lat="47.23186" lon="6.03777">
        <ele>252</ele>
        <time>2014-3-1T14:7:10.000Z</time>
      </trkpt>
      <trkpt lat="47.23193" lon="6.03774">
        <ele>251</ele>
        <time>2014-3-1T14:7:10.000Z</time>
      </trkpt>
      <trkpt lat="47.23193" lon="6.03774">
        <ele>251</ele>
        <time>2014-3-1T14:7:10.000Z</time>
      </trkpt>
      <trkpt lat="47.23196" lon="6.03782">
        <ele>248</ele>
        <time>2014-3-1T14:7:10.000Z</time>
      </trkpt>
      <trkpt lat="47.23196" lon="6.03782">
        <ele>248</ele>
        <time>2014-3-1T14:7:10.000Z</time>
      </trkpt>
      <trkpt lat="47.23201" lon="6.03791">
        <ele>248</ele>
        <time>2014-3-1T14:7:10.000Z</time>
      </trkpt>
      <trkpt lat="47.23201" lon="6.03791">
        <ele>248</ele>
        <time>2014-3-1T14:7:10.000Z</time>
      </trkpt>
      <trkpt lat="47.23205" lon="6.03799">
        <ele>249</ele>
        <time>2014-3-1T14:7:10.000Z</time>
      </trkpt>
      <trkpt lat="47.23205" lon="6.03799">
        <ele>249</ele>
        <time>2014-3-1T14:7:10.000Z</time>
      </trkpt>
      <trkpt lat="47.2321" lon="6.03806">
        <ele>250</ele>
        <time>2014-3-1T14:7:10.000Z</time>
      </trkpt>
      <trkpt lat="47.2321" lon="6.03806">
        <ele>250</ele>
        <time>2014-3-1T14:7:10.000Z</time>
      </trkpt>
      <trkpt lat="47.23207" lon="6.03807">
        <ele>253</ele>
        <time>2014-3-1T14:34:29.000Z</time>
      </trkpt>
      <trkpt lat="47.23207" lon="6.03807">
        <ele>253</ele>
        <time>2014-3-1T14:34:29.000Z</time>
      </trkpt>
      <trkpt lat="47.23201" lon="6.03805">
        <ele>252</ele>
        <time>2014-3-1T14:34:29.000Z</time>
      </trkpt>
      <trkpt lat="47.23201" lon="6.03805">
        <ele>252</ele>
        <time>2014-3-1T14:34:29.000Z</time>
      </trkpt>
      <trkpt lat="47.23194" lon="6.03805">
        <ele>252</ele>
        <time>2014-3-1T14:34:29.000Z</time>
      </trkpt>
      <trkpt lat="47.23194" lon="6.03805">
        <ele>252</ele>
        <time>2014-3-1T14:34:29.000Z</time>
      </trkpt>
      <trkpt lat="47.23186" lon="6.03803">
        <ele>251</ele>
        <time>2014-3-1T14:34:29.000Z</time>
      </trkpt>
      <trkpt lat="47.23186" lon="6.03803">
        <ele>251</ele>
        <time>2014-3-1T14:34:29.000Z</time>
      </trkpt>
      <trkpt lat="47.23182" lon="6.03793">
        <ele>249</ele>
        <time>2014-3-1T14:34:29.000Z</time>
      </trkpt>
      <trkpt lat="47.23182" lon="6.03793">
        <ele>249</ele>
        <time>2014-3-1T14:34:29.000Z</time>
      </trkpt>
      <trkpt lat="47.23177" lon="6.03782">
        <ele>248</ele>
        <time>2014-3-1T14:34:29.000Z</time>
      </trkpt>
      <trkpt lat="47.23177" lon="6.03782">
        <ele>248</ele>
        <time>2014-3-1T14:34:29.000Z</time>
      </trkpt>
      <trkpt lat="47.23172" lon="6.03773">
        <ele>247</ele>
        <time>2014-3-1T14:34:29.000Z</time>
      </trkpt>
      <trkpt lat="47.23172" lon="6.03773">
        <ele>247</ele>
        <time>2014-3-1T14:34:29.000Z</time>
      </trkpt>
      <trkpt lat="47.2317" lon="6.03764">
        <ele>245</ele>
        <time>2014-3-1T14:34:29.000Z</time>
      </trkpt>
      <trkpt lat="47.2317" lon="6.03764">
        <ele>245</ele>
        <time>2014-3-1T14:34:29.000Z</time>
      </trkpt>
      <trkpt lat="47.23162" lon="6.03764">
        <ele>245</ele>
        <time>2014-3-1T14:34:29.000Z</time>
      </trkpt>
      <trkpt lat="47.23162" lon="6.03764">
        <ele>245</ele>
        <time>2014-3-1T14:34:29.000Z</time>
      </trkpt>
      <trkpt lat="47.23154" lon="6.03771">
        <ele>244</ele>
        <time>2014-3-1T14:34:29.000Z</time>
      </trkpt>
      <trkpt lat="47.23154" lon="6.03771">
        <ele>244</ele>
        <time>2014-3-1T14:34:29.000Z</time>
      </trkpt>
      <trkpt lat="47.23149" lon="6.0378">
        <ele>245</ele>
        <time>2014-3-1T14:34:29.000Z</time>
      </trkpt>
      <trkpt lat="47.23149" lon="6.0378">
        <ele>245</ele>
        <time>2014-3-1T14:34:29.000Z</time>
      </trkpt>
      <trkpt lat="47.23143" lon="6.03789">
        <ele>246</ele>
        <time>2014-3-1T14:34:29.000Z</time>
      </trkpt>
      <trkpt lat="47.23143" lon="6.03789">
        <ele>246</ele>
        <time>2014-3-1T14:34:29.000Z</time>
      </trkpt>
      <trkpt lat="47.23137" lon="6.03795">
        <ele>245</ele>
        <time>2014-3-1T14:34:29.000Z</time>
      </trkpt>
      <trkpt lat="47.23137" lon="6.03795">
        <ele>245</ele>
        <time>2014-3-1T14:34:29.000Z</time>
      </trkpt>
      <trkpt lat="47.2313" lon="6.03799">
        <ele>245</ele>
        <time>2014-3-1T14:34:29.000Z</time>
      </trkpt>
      <trkpt lat="47.2313" lon="6.03799">
        <ele>245</ele>
        <time>2014-3-1T14:34:29.000Z</time>
      </trkpt>
      <trkpt lat="47.23123" lon="6.03804">
        <ele>246</ele>
        <time>2014-3-1T14:34:29.000Z</time>
      </trkpt>
      <trkpt lat="47.23123" lon="6.03804">
        <ele>246</ele>
        <time>2014-3-1T14:34:29.000Z</time>
      </trkpt>
      <trkpt lat="47.23117" lon="6.03812">
        <ele>248</ele>
        <time>2014-3-1T14:34:29.000Z</time>
      </trkpt>
      <trkpt lat="47.23117" lon="6.03812">
        <ele>248</ele>
        <time>2014-3-1T14:34:29.000Z</time>
      </trkpt>
      <trkpt lat="47.23113" lon="6.03821">
        <ele>250</ele>
        <time>2014-3-1T14:34:29.000Z</time>
      </trkpt>
      <trkpt lat="47.23113" lon="6.03821">
        <ele>250</ele>
        <time>2014-3-1T14:34:29.000Z</time>
      </trkpt>
      <trkpt lat="47.2311" lon="6.03831">
        <ele>251</ele>
        <time>2014-3-1T14:34:29.000Z</time>
      </trkpt>
      <trkpt lat="47.2311" lon="6.03831">
        <ele>251</ele>
        <time>2014-3-1T14:34:29.000Z</time>
      </trkpt>
      <trkpt lat="47.23108" lon="6.03843">
        <ele>252</ele>
        <time>2014-3-1T14:34:29.000Z</time>
      </trkpt>
      <trkpt lat="47.23108" lon="6.03843">
        <ele>252</ele>
        <time>2014-3-1T14:34:29.000Z</time>
      </trkpt>
      <trkpt lat="47.23104" lon="6.03854">
        <ele>253</ele>
        <time>2014-3-1T14:34:29.000Z</time>
      </trkpt>
      <trkpt lat="47.23104" lon="6.03854">
        <ele>253</ele>
        <time>2014-3-1T14:34:29.000Z</time>
      </trkpt>
      <trkpt lat="47.23102" lon="6.03866">
        <ele>252</ele>
        <time>2014-3-1T14:34:29.000Z</time>
      </trkpt>
      <trkpt lat="47.23102" lon="6.03866">
        <ele>252</ele>
        <time>2014-3-1T14:34:29.000Z</time>
      </trkpt>
      <trkpt lat="47.23099" lon="6.03877">
        <ele>253</ele>
        <time>2014-3-1T14:34:29.000Z</time>
      </trkpt>
      <trkpt lat="47.23099" lon="6.03877">
        <ele>253</ele>
        <time>2014-3-1T14:34:29.000Z</time>
      </trkpt>
      <trkpt lat="47.23095" lon="6.03887">
        <ele>253</ele>
        <time>2014-3-1T14:34:29.000Z</time>
      </trkpt>
      <trkpt lat="47.23095" lon="6.03887">
        <ele>253</ele>
        <time>2014-3-1T14:34:29.000Z</time>
      </trkpt>
      <trkpt lat="47.23092" lon="6.03898">
        <ele>252</ele>
        <time>2014-3-1T14:34:29.000Z</time>
      </trkpt>
      <trkpt lat="47.23092" lon="6.03898">
        <ele>252</ele>
        <time>2014-3-1T14:34:29.000Z</time>
      </trkpt>
      <trkpt lat="47.23089" lon="6.03909">
        <ele>252</ele>
        <time>2014-3-1T14:34:29.000Z</time>
      </trkpt>
      <trkpt lat="47.23089" lon="6.03909">
        <ele>252</ele>
        <time>2014-3-1T14:34:29.000Z</time>
      </trkpt>
      <trkpt lat="47.23084" lon="6.03919">
        <ele>254</ele>
        <time>2014-3-1T14:34:29.000Z</time>
      </trkpt>
      <trkpt lat="47.23084" lon="6.03919">
        <ele>254</ele>
        <time>2014-3-1T14:34:29.000Z</time>
      </trkpt>
      <trkpt lat="47.2308" lon="6.0393">
        <ele>253</ele>
        <time>2014-3-1T14:34:29.000Z</time>
      </trkpt>
      <trkpt lat="47.2308" lon="6.0393">
        <ele>253</ele>
        <time>2014-3-1T14:34:29.000Z</time>
      </trkpt>
      <trkpt lat="47.23076" lon="6.03942">
        <ele>254</ele>
        <time>2014-3-1T14:34:29.000Z</time>
      </trkpt>
      <trkpt lat="47.23076" lon="6.03942">
        <ele>254</ele>
        <time>2014-3-1T14:34:29.000Z</time>
      </trkpt>
      <trkpt lat="47.23073" lon="6.03951">
        <ele>256</ele>
        <time>2014-3-1T14:34:29.000Z</time>
      </trkpt>
      <trkpt lat="47.23073" lon="6.03951">
        <ele>256</ele>
        <time>2014-3-1T14:34:29.000Z</time>
      </trkpt>
      <trkpt lat="47.23069" lon="6.0396">
        <ele>257</ele>
        <time>2014-3-1T14:34:29.000Z</time>
      </trkpt>
      <trkpt lat="47.23069" lon="6.0396">
        <ele>257</ele>
        <time>2014-3-1T14:34:29.000Z</time>
      </trkpt>
      <trkpt lat="47.23063" lon="6.03956">
        <ele>256</ele>
        <time>2014-3-1T14:34:29.000Z</time>
      </trkpt>
      <trkpt lat="47.23063" lon="6.03956">
        <ele>256</ele>
        <time>2014-3-1T14:34:29.000Z</time>
      </trkpt>
      <trkpt lat="47.23057" lon="6.03948">
        <ele>255</ele>
        <time>2014-3-1T14:34:29.000Z</time>
      </trkpt>
      <trkpt lat="47.23057" lon="6.03948">
        <ele>255</ele>
        <time>2014-3-1T14:34:29.000Z</time>
      </trkpt>
      <trkpt lat="47.23054" lon="6.03939">
        <ele>255</ele>
        <time>2014-3-1T14:34:29.000Z</time>
      </trkpt>
      <trkpt lat="47.23054" lon="6.03939">
        <ele>255</ele>
        <time>2014-3-1T14:34:29.000Z</time>
      </trkpt>
      <trkpt lat="47.23052" lon="6.03928">
        <ele>255</ele>
        <time>2014-3-1T14:34:29.000Z</time>
      </trkpt>
      <trkpt lat="47.23052" lon="6.03928">
        <ele>255</ele>
        <time>2014-3-1T14:34:29.000Z</time>
      </trkpt>
      <trkpt lat="47.23053" lon="6.03919">
        <ele>253</ele>
        <time>2014-3-1T14:34:29.000Z</time>
      </trkpt>
      <trkpt lat="47.23053" lon="6.03919">
        <ele>253</ele>
        <time>2014-3-1T14:34:29.000Z</time>
      </trkpt>
      <trkpt lat="47.23054" lon="6.03908">
        <ele>254</ele>
        <time>2014-3-1T14:34:29.000Z</time>
      </trkpt>
      <trkpt lat="47.23054" lon="6.03908">
        <ele>254</ele>
        <time>2014-3-1T14:34:29.000Z</time>
      </trkpt>
      <trkpt lat="47.23052" lon="6.03899">
        <ele>255</ele>
        <time>2014-3-1T14:34:29.000Z</time>
      </trkpt>
      <trkpt lat="47.23052" lon="6.03899">
        <ele>255</ele>
        <time>2014-3-1T14:34:29.000Z</time>
      </trkpt>
      <trkpt lat="47.23047" lon="6.03888">
        <ele>256</ele>
        <time>2014-3-1T14:34:29.000Z</time>
      </trkpt>
      <trkpt lat="47.23047" lon="6.03888">
        <ele>256</ele>
        <time>2014-3-1T14:34:29.000Z</time>
      </trkpt>
      <trkpt lat="47.23043" lon="6.0388">
        <ele>258</ele>
        <time>2014-3-1T14:34:29.000Z</time>
      </trkpt>
      <trkpt lat="47.23043" lon="6.0388">
        <ele>258</ele>
        <time>2014-3-1T14:34:29.000Z</time>
      </trkpt>
      <trkpt lat="47.23039" lon="6.03873">
        <ele>258</ele>
        <time>2014-3-1T14:34:29.000Z</time>
      </trkpt>
      <trkpt lat="47.23039" lon="6.03873">
        <ele>258</ele>
        <time>2014-3-1T14:34:29.000Z</time>
      </trkpt>
      <trkpt lat="47.23032" lon="6.03863">
        <ele>258</ele>
        <time>2014-3-1T14:34:29.000Z</time>
      </trkpt>
      <trkpt lat="47.23032" lon="6.03863">
        <ele>258</ele>
        <time>2014-3-1T14:34:29.000Z</time>
      </trkpt>
      <trkpt lat="47.23026" lon="6.03857">
        <ele>257</ele>
        <time>2014-3-1T14:34:29.000Z</time>
      </trkpt>
      <trkpt lat="47.23026" lon="6.03857">
        <ele>257</ele>
        <time>2014-3-1T14:34:29.000Z</time>
      </trkpt>
      <trkpt lat="47.23018" lon="6.03861">
        <ele>255</ele>
        <time>2014-3-1T14:34:29.000Z</time>
      </trkpt>
      <trkpt lat="47.23018" lon="6.03861">
        <ele>255</ele>
        <time>2014-3-1T14:34:29.000Z</time>
      </trkpt>
      <trkpt lat="47.2301" lon="6.03866">
        <ele>255</ele>
        <time>2014-3-1T14:34:29.000Z</time>
      </trkpt>
      <trkpt lat="47.2301" lon="6.03866">
        <ele>255</ele>
        <time>2014-3-1T14:34:29.000Z</time>
      </trkpt>
      <trkpt lat="47.23004" lon="6.0387">
        <ele>256</ele>
        <time>2014-3-1T14:34:29.000Z</time>
      </trkpt>
      <trkpt lat="47.23004" lon="6.0387">
        <ele>256</ele>
        <time>2014-3-1T14:34:29.000Z</time>
      </trkpt>
      <trkpt lat="47.22997" lon="6.03875">
        <ele>254</ele>
        <time>2014-3-1T14:34:29.000Z</time>
      </trkpt>
      <trkpt lat="47.22997" lon="6.03875">
        <ele>254</ele>
        <time>2014-3-1T14:34:29.000Z</time>
      </trkpt>
      <trkpt lat="47.2299" lon="6.03879">
        <ele>251</ele>
        <time>2014-3-1T14:34:29.000Z</time>
      </trkpt>
      <trkpt lat="47.2299" lon="6.03879">
        <ele>251</ele>
        <time>2014-3-1T14:34:29.000Z</time>
      </trkpt>
      <trkpt lat="47.22983" lon="6.03884">
        <ele>250</ele>
        <time>2014-3-1T14:34:29.000Z</time>
      </trkpt>
      <trkpt lat="47.22983" lon="6.03884">
        <ele>250</ele>
        <time>2014-3-1T14:34:29.000Z</time>
      </trkpt>
      <trkpt lat="47.22976" lon="6.0389">
        <ele>250</ele>
        <time>2014-3-1T14:34:29.000Z</time>
      </trkpt>
      <trkpt lat="47.22976" lon="6.0389">
        <ele>250</ele>
        <time>2014-3-1T14:34:29.000Z</time>
      </trkpt>
      <trkpt lat="47.22969" lon="6.03897">
        <ele>248</ele>
        <time>2014-3-1T14:34:29.000Z</time>
      </trkpt>
      <trkpt lat="47.22969" lon="6.03897">
        <ele>248</ele>
        <time>2014-3-1T14:34:29.000Z</time>
      </trkpt>
      <trkpt lat="47.22961" lon="6.03904">
        <ele>248</ele>
        <time>2014-3-1T14:34:29.000Z</time>
      </trkpt>
      <trkpt lat="47.22961" lon="6.03904">
        <ele>248</ele>
        <time>2014-3-1T14:37:41.000Z</time>
      </trkpt>
      <trkpt lat="47.22954" lon="6.03911">
        <ele>248</ele>
        <time>2014-3-1T14:37:41.000Z</time>
      </trkpt>
      <trkpt lat="47.22954" lon="6.03911">
        <ele>248</ele>
        <time>2014-3-1T14:37:41.000Z</time>
      </trkpt>
      <trkpt lat="47.22946" lon="6.03916">
        <ele>249</ele>
        <time>2014-3-1T14:37:41.000Z</time>
      </trkpt>
      <trkpt lat="47.22946" lon="6.03916">
        <ele>249</ele>
        <time>2014-3-1T14:37:41.000Z</time>
      </trkpt>
      <trkpt lat="47.22938" lon="6.03922">
        <ele>248</ele>
        <time>2014-3-1T14:37:41.000Z</time>
      </trkpt>
      <trkpt lat="47.22938" lon="6.03922">
        <ele>248</ele>
        <time>2014-3-1T14:37:41.000Z</time>
      </trkpt>
      <trkpt lat="47.2293" lon="6.03929">
        <ele>246</ele>
        <time>2014-3-1T14:37:41.000Z</time>
      </trkpt>
      <trkpt lat="47.2293" lon="6.03929">
        <ele>246</ele>
        <time>2014-3-1T14:37:41.000Z</time>
      </trkpt>
      <trkpt lat="47.22922" lon="6.03934">
        <ele>246</ele>
        <time>2014-3-1T14:37:41.000Z</time>
      </trkpt>
      <trkpt lat="47.22922" lon="6.03934">
        <ele>246</ele>
        <time>2014-3-1T14:37:41.000Z</time>
      </trkpt>
      <trkpt lat="47.22914" lon="6.0394">
        <ele>246</ele>
        <time>2014-3-1T14:37:41.000Z</time>
      </trkpt>
      <trkpt lat="47.22914" lon="6.0394">
        <ele>246</ele>
        <time>2014-3-1T14:37:41.000Z</time>
      </trkpt>
      <trkpt lat="47.22907" lon="6.03944">
        <ele>248</ele>
        <time>2014-3-1T14:37:41.000Z</time>
      </trkpt>
      <trkpt lat="47.22907" lon="6.03944">
        <ele>248</ele>
        <time>2014-3-1T14:37:41.000Z</time>
      </trkpt>
      <trkpt lat="47.22898" lon="6.03944">
        <ele>248</ele>
        <time>2014-3-1T14:37:41.000Z</time>
      </trkpt>
      <trkpt lat="47.22898" lon="6.03944">
        <ele>248</ele>
        <time>2014-3-1T14:37:41.000Z</time>
      </trkpt>
      <trkpt lat="47.2289" lon="6.03951">
        <ele>247</ele>
        <time>2014-3-1T14:37:41.000Z</time>
      </trkpt>
      <trkpt lat="47.2289" lon="6.03951">
        <ele>247</ele>
        <time>2014-3-1T14:37:41.000Z</time>
      </trkpt>
      <trkpt lat="47.22885" lon="6.03956">
        <ele>247</ele>
        <time>2014-3-1T14:37:41.000Z</time>
      </trkpt>
      <trkpt lat="47.22885" lon="6.03956">
        <ele>247</ele>
        <time>2014-3-1T14:37:41.000Z</time>
      </trkpt>
      <trkpt lat="47.22877" lon="6.03964">
        <ele>245</ele>
        <time>2014-3-1T14:37:41.000Z</time>
      </trkpt>
      <trkpt lat="47.22877" lon="6.03964">
        <ele>245</ele>
        <time>2014-3-1T14:37:41.000Z</time>
      </trkpt>
      <trkpt lat="47.22871" lon="6.03968">
        <ele>244</ele>
        <time>2014-3-1T14:37:41.000Z</time>
      </trkpt>
      <trkpt lat="47.22871" lon="6.03968">
        <ele>244</ele>
        <time>2014-3-1T14:37:41.000Z</time>
      </trkpt>
      <trkpt lat="47.22865" lon="6.03972">
        <ele>242</ele>
        <time>2014-3-1T14:37:41.000Z</time>
      </trkpt>
      <trkpt lat="47.22865" lon="6.03972">
        <ele>242</ele>
        <time>2014-3-1T14:37:41.000Z</time>
      </trkpt>
      <trkpt lat="47.22857" lon="6.03978">
        <ele>245</ele>
        <time>2014-3-1T14:37:41.000Z</time>
      </trkpt>
      <trkpt lat="47.22857" lon="6.03978">
        <ele>245</ele>
        <time>2014-3-1T14:37:41.000Z</time>
      </trkpt>
      <trkpt lat="47.22849" lon="6.03983">
        <ele>243</ele>
        <time>2014-3-1T14:37:41.000Z</time>
      </trkpt>
      <trkpt lat="47.22849" lon="6.03983">
        <ele>243</ele>
        <time>2014-3-1T14:37:41.000Z</time>
      </trkpt>
      <trkpt lat="47.22842" lon="6.03991">
        <ele>244</ele>
        <time>2014-3-1T14:37:41.000Z</time>
      </trkpt>
      <trkpt lat="47.22842" lon="6.03991">
        <ele>244</ele>
        <time>2014-3-1T14:37:41.000Z</time>
      </trkpt>
      <trkpt lat="47.22837" lon="6.03996">
        <ele>244</ele>
        <time>2014-3-1T14:37:41.000Z</time>
      </trkpt>
      <trkpt lat="47.22837" lon="6.03996">
        <ele>244</ele>
        <time>2014-3-1T14:37:41.000Z</time>
      </trkpt>
      <trkpt lat="47.22832" lon="6.04003">
        <ele>246</ele>
        <time>2014-3-1T14:37:41.000Z</time>
      </trkpt>
      <trkpt lat="47.22832" lon="6.04003">
        <ele>246</ele>
        <time>2014-3-1T14:37:41.000Z</time>
      </trkpt>
      <trkpt lat="47.22826" lon="6.04012">
        <ele>247</ele>
        <time>2014-3-1T14:37:41.000Z</time>
      </trkpt>
      <trkpt lat="47.22826" lon="6.04012">
        <ele>247</ele>
        <time>2014-3-1T14:37:41.000Z</time>
      </trkpt>
      <trkpt lat="47.22819" lon="6.04019">
        <ele>253</ele>
        <time>2014-3-1T14:37:41.000Z</time>
      </trkpt>
      <trkpt lat="47.22819" lon="6.04019">
        <ele>253</ele>
        <time>2014-3-1T14:37:41.000Z</time>
      </trkpt>
      <trkpt lat="47.22815" lon="6.04027">
        <ele>252</ele>
        <time>2014-3-1T14:37:41.000Z</time>
      </trkpt>
      <trkpt lat="47.22815" lon="6.04027">
        <ele>252</ele>
        <time>2014-3-1T14:37:41.000Z</time>
      </trkpt>
      <trkpt lat="47.22809" lon="6.04034">
        <ele>251</ele>
        <time>2014-3-1T14:37:41.000Z</time>
      </trkpt>
      <trkpt lat="47.22809" lon="6.04034">
        <ele>251</ele>
        <time>2014-3-1T14:37:41.000Z</time>
      </trkpt>
      <trkpt lat="47.22805" lon="6.04042">
        <ele>249</ele>
        <time>2014-3-1T14:37:41.000Z</time>
      </trkpt>
      <trkpt lat="47.22805" lon="6.04042">
        <ele>249</ele>
        <time>2014-3-1T14:37:41.000Z</time>
      </trkpt>
      <trkpt lat="47.2281" lon="6.04034">
        <ele>248</ele>
        <time>2014-3-1T14:37:41.000Z</time>
      </trkpt>
      <trkpt lat="47.2281" lon="6.04034">
        <ele>248</ele>
        <time>2014-3-1T14:37:41.000Z</time>
      </trkpt>
      <trkpt lat="47.22817" lon="6.04031">
        <ele>247</ele>
        <time>2014-3-1T14:37:41.000Z</time>
      </trkpt>
      <trkpt lat="47.22817" lon="6.04031">
        <ele>247</ele>
        <time>2014-3-1T14:37:41.000Z</time>
      </trkpt>
      <trkpt lat="47.22824" lon="6.04033">
        <ele>249</ele>
        <time>2014-3-1T14:37:41.000Z</time>
      </trkpt>
      <trkpt lat="47.22824" lon="6.04033">
        <ele>249</ele>
        <time>2014-3-1T14:37:41.000Z</time>
      </trkpt>
      <trkpt lat="47.22823" lon="6.04021">
        <ele>253</ele>
        <time>2014-3-1T14:37:41.000Z</time>
      </trkpt>
      <trkpt lat="47.22823" lon="6.04021">
        <ele>253</ele>
        <time>2014-3-1T14:37:41.000Z</time>
      </trkpt>
      <trkpt lat="47.2282" lon="6.0401">
        <ele>253</ele>
        <time>2014-3-1T14:37:41.000Z</time>
      </trkpt>
      <trkpt lat="47.2282" lon="6.0401">
        <ele>253</ele>
        <time>2014-3-1T14:37:41.000Z</time>
      </trkpt>
      <trkpt lat="47.22816" lon="6.03999">
        <ele>252</ele>
        <time>2014-3-1T14:37:41.000Z</time>
      </trkpt>
      <trkpt lat="47.22816" lon="6.03999">
        <ele>252</ele>
        <time>2014-3-1T14:37:41.000Z</time>
      </trkpt>
      <trkpt lat="47.22811" lon="6.03989">
        <ele>253</ele>
        <time>2014-3-1T14:37:41.000Z</time>
      </trkpt>
      <trkpt lat="47.22811" lon="6.03989">
        <ele>253</ele>
        <time>2014-3-1T14:37:41.000Z</time>
      </trkpt>
      <trkpt lat="47.22806" lon="6.0398">
        <ele>256</ele>
        <time>2014-3-1T14:37:41.000Z</time>
      </trkpt>
      <trkpt lat="47.22806" lon="6.0398">
        <ele>256</ele>
        <time>2014-3-1T14:37:41.000Z</time>
      </trkpt>
      <trkpt lat="47.228" lon="6.03971">
        <ele>257</ele>
        <time>2014-3-1T14:37:41.000Z</time>
      </trkpt>
      <trkpt lat="47.228" lon="6.03971">
        <ele>257</ele>
        <time>2014-3-1T14:37:41.000Z</time>
      </trkpt>
      <trkpt lat="47.22795" lon="6.03961">
        <ele>256</ele>
        <time>2014-3-1T14:37:41.000Z</time>
      </trkpt>
      <trkpt lat="47.22795" lon="6.03961">
        <ele>256</ele>
        <time>2014-3-1T14:37:41.000Z</time>
      </trkpt>
      <trkpt lat="47.2279" lon="6.03953">
        <ele>257</ele>
        <time>2014-3-1T14:37:41.000Z</time>
      </trkpt>
      <trkpt lat="47.2279" lon="6.03953">
        <ele>257</ele>
        <time>2014-3-1T14:37:41.000Z</time>
      </trkpt>
      <trkpt lat="47.22785" lon="6.03943">
        <ele>258</ele>
        <time>2014-3-1T14:37:41.000Z</time>
      </trkpt>
      <trkpt lat="47.22785" lon="6.03943">
        <ele>258</ele>
        <time>2014-3-1T14:37:41.000Z</time>
      </trkpt>
      <trkpt lat="47.22781" lon="6.03933">
        <ele>258</ele>
        <time>2014-3-1T14:37:41.000Z</time>
      </trkpt>
      <trkpt lat="47.22781" lon="6.03933">
        <ele>258</ele>
        <time>2014-3-1T14:37:41.000Z</time>
      </trkpt>
      <trkpt lat="47.22777" lon="6.03922">
        <ele>258</ele>
        <time>2014-3-1T14:37:41.000Z</time>
      </trkpt>
      <trkpt lat="47.22777" lon="6.03922">
        <ele>258</ele>
        <time>2014-3-1T14:37:41.000Z</time>
      </trkpt>
      <trkpt lat="47.22773" lon="6.03912">
        <ele>257</ele>
        <time>2014-3-1T14:37:41.000Z</time>
      </trkpt>
      <trkpt lat="47.22773" lon="6.03912">
        <ele>257</ele>
        <time>2014-3-1T14:37:41.000Z</time>
      </trkpt>
      <trkpt lat="47.22769" lon="6.03905">
        <ele>258</ele>
        <time>2014-3-1T14:37:41.000Z</time>
      </trkpt>
      <trkpt lat="47.22769" lon="6.03905">
        <ele>258</ele>
        <time>2014-3-1T14:37:41.000Z</time>
      </trkpt>
      <trkpt lat="47.22775" lon="6.03908">
        <ele>261</ele>
        <time>2014-3-1T14:37:41.000Z</time>
      </trkpt>
      <trkpt lat="47.22775" lon="6.03908">
        <ele>261</ele>
        <time>2014-3-1T14:37:41.000Z</time>
      </trkpt>
      <trkpt lat="47.22782" lon="6.03908">
        <ele>260</ele>
        <time>2014-3-1T14:37:41.000Z</time>
      </trkpt>
      <trkpt lat="47.22782" lon="6.03908">
        <ele>260</ele>
        <time>2014-3-1T14:37:41.000Z</time>
      </trkpt>
      <trkpt lat="47.22789" lon="6.039">
        <ele>260</ele>
        <time>2014-3-1T14:37:41.000Z</time>
      </trkpt>
      <trkpt lat="47.22789" lon="6.039">
        <ele>260</ele>
        <time>2014-3-1T14:37:41.000Z</time>
      </trkpt>
      <trkpt lat="47.22797" lon="6.03894">
        <ele>260</ele>
        <time>2014-3-1T14:37:41.000Z</time>
      </trkpt>
      <trkpt lat="47.22797" lon="6.03894">
        <ele>260</ele>
        <time>2014-3-1T14:37:41.000Z</time>
      </trkpt>
      <trkpt lat="47.22804" lon="6.03888">
        <ele>258</ele>
        <time>2014-3-1T14:37:41.000Z</time>
      </trkpt>
      <trkpt lat="47.22804" lon="6.03888">
        <ele>258</ele>
        <time>2014-3-1T14:37:41.000Z</time>
      </trkpt>
      <trkpt lat="47.22812" lon="6.03886">
        <ele>261</ele>
        <time>2014-3-1T14:37:41.000Z</time>
      </trkpt>
      <trkpt lat="47.22812" lon="6.03886">
        <ele>261</ele>
        <time>2014-3-1T14:37:41.000Z</time>
      </trkpt>
      <trkpt lat="47.22819" lon="6.03881">
        <ele>263</ele>
        <time>2014-3-1T14:37:41.000Z</time>
      </trkpt>
      <trkpt lat="47.22819" lon="6.03881">
        <ele>263</ele>
        <time>2014-3-1T14:37:41.000Z</time>
      </trkpt>
      <trkpt lat="47.22827" lon="6.03876">
        <ele>263</ele>
        <time>2014-3-1T14:37:41.000Z</time>
      </trkpt>
      <trkpt lat="47.22827" lon="6.03876">
        <ele>263</ele>
        <time>2014-3-1T14:37:41.000Z</time>
      </trkpt>
      <trkpt lat="47.22835" lon="6.03874">
        <ele>263</ele>
        <time>2014-3-1T14:37:41.000Z</time>
      </trkpt>
      <trkpt lat="47.22835" lon="6.03874">
        <ele>263</ele>
        <time>2014-3-1T14:37:41.000Z</time>
      </trkpt>
      <trkpt lat="47.22843" lon="6.03872">
        <ele>265</ele>
        <time>2014-3-1T14:37:41.000Z</time>
      </trkpt>
      <trkpt lat="47.22843" lon="6.03872">
        <ele>265</ele>
        <time>2014-3-1T14:37:41.000Z</time>
      </trkpt>
      <trkpt lat="47.22851" lon="6.03868">
        <ele>267</ele>
        <time>2014-3-1T14:37:41.000Z</time>
      </trkpt>
      <trkpt lat="47.22851" lon="6.03868">
        <ele>267</ele>
        <time>2014-3-1T14:37:41.000Z</time>
      </trkpt>
      <trkpt lat="47.2286" lon="6.03866">
        <ele>268</ele>
        <time>2014-3-1T14:40:16.000Z</time>
      </trkpt>
      <trkpt lat="47.2286" lon="6.03866">
        <ele>268</ele>
        <time>2014-3-1T14:40:16.000Z</time>
      </trkpt>
      <trkpt lat="47.22868" lon="6.03861">
        <ele>266</ele>
        <time>2014-3-1T14:40:16.000Z</time>
      </trkpt>
      <trkpt lat="47.22868" lon="6.03861">
        <ele>266</ele>
        <time>2014-3-1T14:40:16.000Z</time>
      </trkpt>
      <trkpt lat="47.22876" lon="6.03854">
        <ele>266</ele>
        <time>2014-3-1T14:40:16.000Z</time>
      </trkpt>
      <trkpt lat="47.22876" lon="6.03854">
        <ele>266</ele>
        <time>2014-3-1T14:40:16.000Z</time>
      </trkpt>
      <trkpt lat="47.22882" lon="6.03849">
        <ele>265</ele>
        <time>2014-3-1T14:40:16.000Z</time>
      </trkpt>
      <trkpt lat="47.22882" lon="6.03849">
        <ele>265</ele>
        <time>2014-3-1T14:40:16.000Z</time>
      </trkpt>
      <trkpt lat="47.22887" lon="6.03843">
        <ele>265</ele>
        <time>2014-3-1T14:40:16.000Z</time>
      </trkpt>
      <trkpt lat="47.22887" lon="6.03843">
        <ele>265</ele>
        <time>2014-3-1T14:40:16.000Z</time>
      </trkpt>
      <trkpt lat="47.22894" lon="6.03835">
        <ele>270</ele>
        <time>2014-3-1T14:40:16.000Z</time>
      </trkpt>
      <trkpt lat="47.22894" lon="6.03835">
        <ele>270</ele>
        <time>2014-3-1T14:40:16.000Z</time>
      </trkpt>
      <trkpt lat="47.22902" lon="6.03828">
        <ele>270</ele>
        <time>2014-3-1T14:40:16.000Z</time>
      </trkpt>
      <trkpt lat="47.22902" lon="6.03828">
        <ele>270</ele>
        <time>2014-3-1T14:40:16.000Z</time>
      </trkpt>
      <trkpt lat="47.2291" lon="6.03823">
        <ele>270</ele>
        <time>2014-3-1T14:40:16.000Z</time>
      </trkpt>
      <trkpt lat="47.2291" lon="6.03823">
        <ele>270</ele>
        <time>2014-3-1T14:40:16.000Z</time>
      </trkpt>
      <trkpt lat="47.22918" lon="6.03818">
        <ele>270</ele>
        <time>2014-3-1T14:40:16.000Z</time>
      </trkpt>
      <trkpt lat="47.22918" lon="6.03818">
        <ele>270</ele>
        <time>2014-3-1T14:40:16.000Z</time>
      </trkpt>
      <trkpt lat="47.22926" lon="6.03812">
        <ele>270</ele>
        <time>2014-3-1T14:40:16.000Z</time>
      </trkpt>
      <trkpt lat="47.22926" lon="6.03812">
        <ele>270</ele>
        <time>2014-3-1T14:40:16.000Z</time>
      </trkpt>
      <trkpt lat="47.22933" lon="6.03807">
        <ele>268</ele>
        <time>2014-3-1T14:40:16.000Z</time>
      </trkpt>
      <trkpt lat="47.22933" lon="6.03807">
        <ele>268</ele>
        <time>2014-3-1T14:40:16.000Z</time>
      </trkpt>
      <trkpt lat="47.22941" lon="6.038">
        <ele>266</ele>
        <time>2014-3-1T14:40:16.000Z</time>
      </trkpt>
      <trkpt lat="47.22941" lon="6.038">
        <ele>266</ele>
        <time>2014-3-1T14:40:16.000Z</time>
      </trkpt>
      <trkpt lat="47.22949" lon="6.03794">
        <ele>262</ele>
        <time>2014-3-1T14:40:16.000Z</time>
      </trkpt>
      <trkpt lat="47.22949" lon="6.03794">
        <ele>262</ele>
        <time>2014-3-1T14:40:16.000Z</time>
      </trkpt>
      <trkpt lat="47.22956" lon="6.03788">
        <ele>261</ele>
        <time>2014-3-1T14:40:16.000Z</time>
      </trkpt>
      <trkpt lat="47.22956" lon="6.03788">
        <ele>261</ele>
        <time>2014-3-1T14:40:16.000Z</time>
      </trkpt>
      <trkpt lat="47.22963" lon="6.03781">
        <ele>261</ele>
        <time>2014-3-1T14:40:16.000Z</time>
      </trkpt>
      <trkpt lat="47.22963" lon="6.03781">
        <ele>261</ele>
        <time>2014-3-1T14:40:16.000Z</time>
      </trkpt>
      <trkpt lat="47.2297" lon="6.03774">
        <ele>258</ele>
        <time>2014-3-1T14:40:16.000Z</time>
      </trkpt>
      <trkpt lat="47.2297" lon="6.03774">
        <ele>258</ele>
        <time>2014-3-1T14:40:16.000Z</time>
      </trkpt>
      <trkpt lat="47.22977" lon="6.03767">
        <ele>256</ele>
        <time>2014-3-1T14:40:16.000Z</time>
      </trkpt>
      <trkpt lat="47.22977" lon="6.03767">
        <ele>256</ele>
        <time>2014-3-1T14:40:16.000Z</time>
      </trkpt>
      <trkpt lat="47.22985" lon="6.03761">
        <ele>254</ele>
        <time>2014-3-1T14:40:16.000Z</time>
      </trkpt>
      <trkpt lat="47.22985" lon="6.03761">
        <ele>254</ele>
        <time>2014-3-1T14:40:16.000Z</time>
      </trkpt>
      <trkpt lat="47.22993" lon="6.03754">
        <ele>254</ele>
        <time>2014-3-1T14:40:16.000Z</time>
      </trkpt>
      <trkpt lat="47.22993" lon="6.03754">
        <ele>254</ele>
        <time>2014-3-1T14:40:16.000Z</time>
      </trkpt>
      <trkpt lat="47.23001" lon="6.03747">
        <ele>253</ele>
        <time>2014-3-1T14:40:16.000Z</time>
      </trkpt>
      <trkpt lat="47.23001" lon="6.03747">
        <ele>253</ele>
        <time>2014-3-1T14:40:16.000Z</time>
      </trkpt>
      <trkpt lat="47.23008" lon="6.0374">
        <ele>253</ele>
        <time>2014-3-1T14:40:16.000Z</time>
      </trkpt>
      <trkpt lat="47.23008" lon="6.0374">
        <ele>253</ele>
        <time>2014-3-1T14:40:16.000Z</time>
      </trkpt>
      <trkpt lat="47.23016" lon="6.03734">
        <ele>251</ele>
        <time>2014-3-1T14:40:16.000Z</time>
      </trkpt>
      <trkpt lat="47.23016" lon="6.03734">
        <ele>251</ele>
        <time>2014-3-1T14:40:16.000Z</time>
      </trkpt>
      <trkpt lat="47.23023" lon="6.03728">
        <ele>249</ele>
        <time>2014-3-1T14:40:16.000Z</time>
      </trkpt>
      <trkpt lat="47.23023" lon="6.03728">
        <ele>249</ele>
        <time>2014-3-1T14:40:16.000Z</time>
      </trkpt>
      <trkpt lat="47.23029" lon="6.03723">
        <ele>249</ele>
        <time>2014-3-1T14:40:16.000Z</time>
      </trkpt>
      <trkpt lat="47.23029" lon="6.03723">
        <ele>249</ele>
        <time>2014-3-1T14:40:16.000Z</time>
      </trkpt>
      <trkpt lat="47.23037" lon="6.03718">
        <ele>251</ele>
        <time>2014-3-1T14:40:16.000Z</time>
      </trkpt>
      <trkpt lat="47.23037" lon="6.03718">
        <ele>251</ele>
        <time>2014-3-1T14:40:16.000Z</time>
      </trkpt>
      <trkpt lat="47.23045" lon="6.03712">
        <ele>251</ele>
        <time>2014-3-1T14:40:16.000Z</time>
      </trkpt>
      <trkpt lat="47.23045" lon="6.03712">
        <ele>251</ele>
        <time>2014-3-1T14:40:16.000Z</time>
      </trkpt>
      <trkpt lat="47.23052" lon="6.03707">
        <ele>251</ele>
        <time>2014-3-1T14:40:16.000Z</time>
      </trkpt>
      <trkpt lat="47.23052" lon="6.03707">
        <ele>251</ele>
        <time>2014-3-1T14:40:16.000Z</time>
      </trkpt>
      <trkpt lat="47.23059" lon="6.037">
        <ele>251</ele>
        <time>2014-3-1T14:40:16.000Z</time>
      </trkpt>
      <trkpt lat="47.23059" lon="6.037">
        <ele>251</ele>
        <time>2014-3-1T14:40:16.000Z</time>
      </trkpt>
      <trkpt lat="47.23065" lon="6.03695">
        <ele>251</ele>
        <time>2014-3-1T14:40:16.000Z</time>
      </trkpt>
      <trkpt lat="47.23065" lon="6.03695">
        <ele>251</ele>
        <time>2014-3-1T14:40:16.000Z</time>
      </trkpt>
      <trkpt lat="47.23071" lon="6.03689">
        <ele>252</ele>
        <time>2014-3-1T14:40:16.000Z</time>
      </trkpt>
      <trkpt lat="47.23071" lon="6.03689">
        <ele>252</ele>
        <time>2014-3-1T14:40:16.000Z</time>
      </trkpt>
      <trkpt lat="47.23078" lon="6.03684">
        <ele>252</ele>
        <time>2014-3-1T14:40:16.000Z</time>
      </trkpt>
      <trkpt lat="47.23078" lon="6.03684">
        <ele>252</ele>
        <time>2014-3-1T14:40:16.000Z</time>
      </trkpt>
      <trkpt lat="47.23084" lon="6.03679">
        <ele>253</ele>
        <time>2014-3-1T14:40:16.000Z</time>
      </trkpt>
      <trkpt lat="47.23084" lon="6.03679">
        <ele>253</ele>
        <time>2014-3-1T14:40:16.000Z</time>
      </trkpt>
      <trkpt lat="47.2309" lon="6.03674">
        <ele>253</ele>
        <time>2014-3-1T14:40:16.000Z</time>
      </trkpt>
      <trkpt lat="47.2309" lon="6.03674">
        <ele>253</ele>
        <time>2014-3-1T14:40:16.000Z</time>
      </trkpt>
      <trkpt lat="47.23099" lon="6.0367">
        <ele>254</ele>
        <time>2014-3-1T14:40:16.000Z</time>
      </trkpt>
      <trkpt lat="47.23099" lon="6.0367">
        <ele>254</ele>
        <time>2014-3-1T14:40:16.000Z</time>
      </trkpt>
      <trkpt lat="47.23107" lon="6.03663">
        <ele>254</ele>
        <time>2014-3-1T14:40:16.000Z</time>
      </trkpt>
      <trkpt lat="47.23107" lon="6.03663">
        <ele>254</ele>
        <time>2014-3-1T14:40:16.000Z</time>
      </trkpt>
      <trkpt lat="47.23113" lon="6.03655">
        <ele>255</ele>
        <time>2014-3-1T14:40:16.000Z</time>
      </trkpt>
      <trkpt lat="47.23113" lon="6.03655">
        <ele>255</ele>
        <time>2014-3-1T14:40:16.000Z</time>
      </trkpt>
      <trkpt lat="47.23118" lon="6.03647">
        <ele>257</ele>
        <time>2014-3-1T14:40:16.000Z</time>
      </trkpt>
      <trkpt lat="47.23118" lon="6.03647">
        <ele>257</ele>
        <time>2014-3-1T14:40:16.000Z</time>
      </trkpt>
      <trkpt lat="47.23123" lon="6.03637">
        <ele>257</ele>
        <time>2014-3-1T14:40:16.000Z</time>
      </trkpt>
      <trkpt lat="47.23123" lon="6.03637">
        <ele>257</ele>
        <time>2014-3-1T14:40:16.000Z</time>
      </trkpt>
      <trkpt lat="47.23129" lon="6.03627">
        <ele>256</ele>
        <time>2014-3-1T14:40:16.000Z</time>
      </trkpt>
      <trkpt lat="47.23129" lon="6.03627">
        <ele>256</ele>
        <time>2014-3-1T14:40:16.000Z</time>
      </trkpt>
      <trkpt lat="47.23133" lon="6.0362">
        <ele>255</ele>
        <time>2014-3-1T14:40:16.000Z</time>
      </trkpt>
      <trkpt lat="47.23133" lon="6.0362">
        <ele>255</ele>
        <time>2014-3-1T14:40:16.000Z</time>
      </trkpt>
      <trkpt lat="47.23138" lon="6.0361">
        <ele>254</ele>
        <time>2014-3-1T14:40:16.000Z</time>
      </trkpt>
      <trkpt lat="47.23138" lon="6.0361">
        <ele>254</ele>
        <time>2014-3-1T14:40:16.000Z</time>
      </trkpt>
      <trkpt lat="47.23141" lon="6.036">
        <ele>253</ele>
        <time>2014-3-1T14:40:16.000Z</time>
      </trkpt>
      <trkpt lat="47.23141" lon="6.036">
        <ele>253</ele>
        <time>2014-3-1T14:40:16.000Z</time>
      </trkpt>
      <trkpt lat="47.23144" lon="6.03591">
        <ele>253</ele>
        <time>2014-3-1T14:40:16.000Z</time>
      </trkpt>
      <trkpt lat="47.23144" lon="6.03591">
        <ele>253</ele>
        <time>2014-3-1T14:40:16.000Z</time>
      </trkpt>
      <trkpt lat="47.23149" lon="6.03583">
        <ele>252</ele>
        <time>2014-3-1T14:40:16.000Z</time>
      </trkpt>
      <trkpt lat="47.23149" lon="6.03583">
        <ele>252</ele>
        <time>2014-3-1T14:40:16.000Z</time>
      </trkpt>
      <trkpt lat="47.23156" lon="6.03576">
        <ele>253</ele>
        <time>2014-3-1T14:40:16.000Z</time>
      </trkpt>
      <trkpt lat="47.23156" lon="6.03576">
        <ele>253</ele>
        <time>2014-3-1T14:40:16.000Z</time>
      </trkpt>
      <trkpt lat="47.23164" lon="6.03573">
        <ele>253</ele>
        <time>2014-3-1T14:40:16.000Z</time>
      </trkpt>
      <trkpt lat="47.23164" lon="6.03573">
        <ele>253</ele>
        <time>2014-3-1T14:40:16.000Z</time>
      </trkpt>
      <trkpt lat="47.23172" lon="6.03573">
        <ele>252</ele>
        <time>2014-3-1T14:40:16.000Z</time>
      </trkpt>
      <trkpt lat="47.23172" lon="6.03573">
        <ele>252</ele>
        <time>2014-3-1T14:40:16.000Z</time>
      </trkpt>
      <trkpt lat="47.2318" lon="6.03576">
        <ele>252</ele>
        <time>2014-3-1T14:40:16.000Z</time>
      </trkpt>
      <trkpt lat="47.2318" lon="6.03576">
        <ele>252</ele>
        <time>2014-3-1T14:40:16.000Z</time>
      </trkpt>
      <trkpt lat="47.23188" lon="6.03578">
        <ele>252</ele>
        <time>2014-3-1T14:40:16.000Z</time>
      </trkpt>
      <trkpt lat="47.23188" lon="6.03578">
        <ele>252</ele>
        <time>2014-3-1T14:40:16.000Z</time>
      </trkpt>
      <trkpt lat="47.23196" lon="6.0358">
        <ele>253</ele>
        <time>2014-3-1T14:40:16.000Z</time>
      </trkpt>
      <trkpt lat="47.23196" lon="6.0358">
        <ele>253</ele>
        <time>2014-3-1T14:40:16.000Z</time>
      </trkpt>
      <trkpt lat="47.23205" lon="6.03583">
        <ele>252</ele>
        <time>2014-3-1T14:40:16.000Z</time>
      </trkpt>
      <trkpt lat="47.23205" lon="6.03583">
        <ele>252</ele>
        <time>2014-3-1T14:43:50.000Z</time>
      </trkpt>
      <trkpt lat="47.23214" lon="6.03585">
        <ele>252</ele>
        <time>2014-3-1T14:43:50.000Z</time>
      </trkpt>
      <trkpt lat="47.23214" lon="6.03585">
        <ele>252</ele>
        <time>2014-3-1T14:43:50.000Z</time>
      </trkpt>
      <trkpt lat="47.23223" lon="6.03586">
        <ele>253</ele>
        <time>2014-3-1T14:43:50.000Z</time>
      </trkpt>
      <trkpt lat="47.23223" lon="6.03586">
        <ele>253</ele>
        <time>2014-3-1T14:43:50.000Z</time>
      </trkpt>
      <trkpt lat="47.23232" lon="6.03586">
        <ele>254</ele>
        <time>2014-3-1T14:43:50.000Z</time>
      </trkpt>
      <trkpt lat="47.23232" lon="6.03586">
        <ele>254</ele>
        <time>2014-3-1T14:43:50.000Z</time>
      </trkpt>
      <trkpt lat="47.23241" lon="6.03586">
        <ele>253</ele>
        <time>2014-3-1T14:43:50.000Z</time>
      </trkpt>
      <trkpt lat="47.23241" lon="6.03586">
        <ele>253</ele>
        <time>2014-3-1T14:43:50.000Z</time>
      </trkpt>
      <trkpt lat="47.2325" lon="6.03584">
        <ele>253</ele>
        <time>2014-3-1T14:43:50.000Z</time>
      </trkpt>
      <trkpt lat="47.2325" lon="6.03584">
        <ele>253</ele>
        <time>2014-3-1T14:43:50.000Z</time>
      </trkpt>
      <trkpt lat="47.23258" lon="6.03581">
        <ele>253</ele>
        <time>2014-3-1T14:43:50.000Z</time>
      </trkpt>
      <trkpt lat="47.23258" lon="6.03581">
        <ele>253</ele>
        <time>2014-3-1T14:43:50.000Z</time>
      </trkpt>
      <trkpt lat="47.23267" lon="6.03577">
        <ele>253</ele>
        <time>2014-3-1T14:43:50.000Z</time>
      </trkpt>
      <trkpt lat="47.23267" lon="6.03577">
        <ele>253</ele>
        <time>2014-3-1T14:43:50.000Z</time>
      </trkpt>
      <trkpt lat="47.23276" lon="6.03573">
        <ele>252</ele>
        <time>2014-3-1T14:43:50.000Z</time>
      </trkpt>
      <trkpt lat="47.23276" lon="6.03573">
        <ele>252</ele>
        <time>2014-3-1T14:43:50.000Z</time>
      </trkpt>
      <trkpt lat="47.23284" lon="6.0357">
        <ele>252</ele>
        <time>2014-3-1T14:43:50.000Z</time>
      </trkpt>
      <trkpt lat="47.23284" lon="6.0357">
        <ele>252</ele>
        <time>2014-3-1T14:43:50.000Z</time>
      </trkpt>
      <trkpt lat="47.23293" lon="6.03566">
        <ele>252</ele>
        <time>2014-3-1T14:43:50.000Z</time>
      </trkpt>
      <trkpt lat="47.23293" lon="6.03566">
        <ele>252</ele>
        <time>2014-3-1T14:43:50.000Z</time>
      </trkpt>
      <trkpt lat="47.23301" lon="6.0356">
        <ele>252</ele>
        <time>2014-3-1T14:43:50.000Z</time>
      </trkpt>
      <trkpt lat="47.23301" lon="6.0356">
        <ele>252</ele>
        <time>2014-3-1T14:43:50.000Z</time>
      </trkpt>
      <trkpt lat="47.23308" lon="6.03553">
        <ele>251</ele>
        <time>2014-3-1T14:43:50.000Z</time>
      </trkpt>
      <trkpt lat="47.23308" lon="6.03553">
        <ele>251</ele>
        <time>2014-3-1T14:43:50.000Z</time>
      </trkpt>
      <trkpt lat="47.2332" lon="6.03544">
        <ele>249</ele>
        <time>2014-3-1T14:43:50.000Z</time>
      </trkpt>
      <trkpt lat="47.2332" lon="6.03544">
        <ele>249</ele>
        <time>2014-3-1T14:43:50.000Z</time>
      </trkpt>
      <trkpt lat="47.23328" lon="6.03537">
        <ele>250</ele>
        <time>2014-3-1T14:43:50.000Z</time>
      </trkpt>
      <trkpt lat="47.23328" lon="6.03537">
        <ele>250</ele>
        <time>2014-3-1T14:43:50.000Z</time>
      </trkpt>
      <trkpt lat="47.23336" lon="6.03531">
        <ele>250</ele>
        <time>2014-3-1T14:43:50.000Z</time>
      </trkpt>
      <trkpt lat="47.23336" lon="6.03531">
        <ele>250</ele>
        <time>2014-3-1T14:43:50.000Z</time>
      </trkpt>
      <trkpt lat="47.23344" lon="6.03525">
        <ele>249</ele>
        <time>2014-3-1T14:43:50.000Z</time>
      </trkpt>
      <trkpt lat="47.23344" lon="6.03525">
        <ele>249</ele>
        <time>2014-3-1T14:43:50.000Z</time>
      </trkpt>
      <trkpt lat="47.2335" lon="6.03519">
        <ele>249</ele>
        <time>2014-3-1T14:43:50.000Z</time>
      </trkpt>
      <trkpt lat="47.2335" lon="6.03519">
        <ele>249</ele>
        <time>2014-3-1T14:43:50.000Z</time>
      </trkpt>
      <trkpt lat="47.23352" lon="6.03509">
        <ele>251</ele>
        <time>2014-3-1T14:43:50.000Z</time>
      </trkpt>
      <trkpt lat="47.23352" lon="6.03509">
        <ele>251</ele>
        <time>2014-3-1T14:43:50.000Z</time>
      </trkpt>
      <trkpt lat="47.23349" lon="6.035">
        <ele>252</ele>
        <time>2014-3-1T14:43:50.000Z</time>
      </trkpt>
      <trkpt lat="47.23349" lon="6.035">
        <ele>252</ele>
        <time>2014-3-1T14:43:50.000Z</time>
      </trkpt>
      <trkpt lat="47.23343" lon="6.03471">
        <ele>252</ele>
        <time>2014-3-1T14:43:50.000Z</time>
      </trkpt>
      <trkpt lat="47.23343" lon="6.03471">
        <ele>252</ele>
        <time>2014-3-1T14:43:50.000Z</time>
      </trkpt>
      <trkpt lat="47.23337" lon="6.03466">
        <ele>249</ele>
        <time>2014-3-1T14:43:50.000Z</time>
      </trkpt>
      <trkpt lat="47.23337" lon="6.03466">
        <ele>249</ele>
        <time>2014-3-1T14:43:50.000Z</time>
      </trkpt>
      <trkpt lat="47.23329" lon="6.03461">
        <ele>253</ele>
        <time>2014-3-1T14:43:50.000Z</time>
      </trkpt>
      <trkpt lat="47.23329" lon="6.03461">
        <ele>253</ele>
        <time>2014-3-1T14:43:50.000Z</time>
      </trkpt>
      <trkpt lat="47.23324" lon="6.03453">
        <ele>253</ele>
        <time>2014-3-1T14:43:50.000Z</time>
      </trkpt>
      <trkpt lat="47.23324" lon="6.03453">
        <ele>253</ele>
        <time>2014-3-1T14:43:50.000Z</time>
      </trkpt>
      <trkpt lat="47.2332" lon="6.03444">
        <ele>254</ele>
        <time>2014-3-1T14:43:50.000Z</time>
      </trkpt>
      <trkpt lat="47.2332" lon="6.03444">
        <ele>254</ele>
        <time>2014-3-1T14:43:50.000Z</time>
      </trkpt>
      <trkpt lat="47.23316" lon="6.03436">
        <ele>253</ele>
        <time>2014-3-1T14:43:50.000Z</time>
      </trkpt>
      <trkpt lat="47.23316" lon="6.03436">
        <ele>253</ele>
        <time>2014-3-1T14:43:50.000Z</time>
      </trkpt>
      <trkpt lat="47.23319" lon="6.03426">
        <ele>254</ele>
        <time>2014-3-1T14:43:50.000Z</time>
      </trkpt>
      <trkpt lat="47.23319" lon="6.03426">
        <ele>254</ele>
        <time>2014-3-1T14:43:50.000Z</time>
      </trkpt>
      <trkpt lat="47.23325" lon="6.03421">
        <ele>254</ele>
        <time>2014-3-1T14:43:50.000Z</time>
      </trkpt>
      <trkpt lat="47.23325" lon="6.03421">
        <ele>254</ele>
        <time>2014-3-1T14:43:50.000Z</time>
      </trkpt>
      <trkpt lat="47.2333" lon="6.03416">
        <ele>254</ele>
        <time>2014-3-1T14:43:50.000Z</time>
      </trkpt>
      <trkpt lat="47.2333" lon="6.03416">
        <ele>254</ele>
        <time>2014-3-1T14:43:50.000Z</time>
      </trkpt>
      <trkpt lat="47.23335" lon="6.0341">
        <ele>253</ele>
        <time>2014-3-1T14:43:50.000Z</time>
      </trkpt>
      <trkpt lat="47.23335" lon="6.0341">
        <ele>253</ele>
        <time>2014-3-1T14:43:50.000Z</time>
      </trkpt>
      <trkpt lat="47.23341" lon="6.03403">
        <ele>252</ele>
        <time>2014-3-1T14:43:50.000Z</time>
      </trkpt>
      <trkpt lat="47.23341" lon="6.03403">
        <ele>252</ele>
        <time>2014-3-1T14:43:50.000Z</time>
      </trkpt>
      <trkpt lat="47.23345" lon="6.03395">
        <ele>250</ele>
        <time>2014-3-1T14:43:50.000Z</time>
      </trkpt>
      <trkpt lat="47.23345" lon="6.03395">
        <ele>250</ele>
        <time>2014-3-1T14:43:50.000Z</time>
      </trkpt>
      <trkpt lat="47.23351" lon="6.0339">
        <ele>248</ele>
        <time>2014-3-1T14:43:50.000Z</time>
      </trkpt>
      <trkpt lat="47.23351" lon="6.0339">
        <ele>248</ele>
        <time>2014-3-1T14:43:50.000Z</time>
      </trkpt>
      <trkpt lat="47.23359" lon="6.03387">
        <ele>250</ele>
        <time>2014-3-1T14:43:50.000Z</time>
      </trkpt>
      <trkpt lat="47.23359" lon="6.03387">
        <ele>250</ele>
        <time>2014-3-1T14:43:50.000Z</time>
      </trkpt>
      <trkpt lat="47.23366" lon="6.03384">
        <ele>251</ele>
        <time>2014-3-1T14:43:50.000Z</time>
      </trkpt>
      <trkpt lat="47.23366" lon="6.03384">
        <ele>251</ele>
        <time>2014-3-1T14:43:50.000Z</time>
      </trkpt>
      <trkpt lat="47.23374" lon="6.03378">
        <ele>250</ele>
        <time>2014-3-1T14:43:50.000Z</time>
      </trkpt>
      <trkpt lat="47.23374" lon="6.03378">
        <ele>250</ele>
        <time>2014-3-1T14:43:50.000Z</time>
      </trkpt>
      <trkpt lat="47.23379" lon="6.03372">
        <ele>251</ele>
        <time>2014-3-1T14:43:50.000Z</time>
      </trkpt>
      <trkpt lat="47.23379" lon="6.03372">
        <ele>251</ele>
        <time>2014-3-1T14:43:50.000Z</time>
      </trkpt>
      <trkpt lat="47.23385" lon="6.03366">
        <ele>252</ele>
        <time>2014-3-1T14:43:50.000Z</time>
      </trkpt>
      <trkpt lat="47.23385" lon="6.03366">
        <ele>252</ele>
        <time>2014-3-1T14:43:50.000Z</time>
      </trkpt>
      <trkpt lat="47.23391" lon="6.03361">
        <ele>252</ele>
        <time>2014-3-1T14:43:50.000Z</time>
      </trkpt>
      <trkpt lat="47.23391" lon="6.03361">
        <ele>252</ele>
        <time>2014-3-1T14:43:50.000Z</time>
      </trkpt>
      <trkpt lat="47.23397" lon="6.03354">
        <ele>254</ele>
        <time>2014-3-1T14:43:50.000Z</time>
      </trkpt>
      <trkpt lat="47.23397" lon="6.03354">
        <ele>254</ele>
        <time>2014-3-1T14:43:50.000Z</time>
      </trkpt>
      <trkpt lat="47.23402" lon="6.03349">
        <ele>253</ele>
        <time>2014-3-1T14:43:50.000Z</time>
      </trkpt>
      <trkpt lat="47.23402" lon="6.03349">
        <ele>253</ele>
        <time>2014-3-1T14:43:50.000Z</time>
      </trkpt>
      <trkpt lat="47.23408" lon="6.03343">
        <ele>255</ele>
        <time>2014-3-1T14:43:50.000Z</time>
      </trkpt>
      <trkpt lat="47.23408" lon="6.03343">
        <ele>255</ele>
        <time>2014-3-1T14:43:50.000Z</time>
      </trkpt>
      <trkpt lat="47.23416" lon="6.03337">
        <ele>255</ele>
        <time>2014-3-1T14:43:50.000Z</time>
      </trkpt>
      <trkpt lat="47.23416" lon="6.03337">
        <ele>255</ele>
        <time>2014-3-1T14:43:50.000Z</time>
      </trkpt>
      <trkpt lat="47.23423" lon="6.03338">
        <ele>255</ele>
        <time>2014-3-1T14:43:50.000Z</time>
      </trkpt>
      <trkpt lat="47.23423" lon="6.03338">
        <ele>255</ele>
        <time>2014-3-1T14:43:50.000Z</time>
      </trkpt>
      <trkpt lat="47.2343" lon="6.03333">
        <ele>252</ele>
        <time>2014-3-1T14:43:50.000Z</time>
      </trkpt>
      <trkpt lat="47.2343" lon="6.03333">
        <ele>252</ele>
        <time>2014-3-1T14:43:50.000Z</time>
      </trkpt>
      <trkpt lat="47.23437" lon="6.03326">
        <ele>252</ele>
        <time>2014-3-1T14:43:50.000Z</time>
      </trkpt>
      <trkpt lat="47.23437" lon="6.03326">
        <ele>252</ele>
        <time>2014-3-1T14:43:50.000Z</time>
      </trkpt>
      <trkpt lat="47.23443" lon="6.03325">
        <ele>246</ele>
        <time>2014-3-1T14:43:50.000Z</time>
      </trkpt>
      <trkpt lat="47.23443" lon="6.03325">
        <ele>246</ele>
        <time>2014-3-1T14:43:50.000Z</time>
      </trkpt>
      <trkpt lat="47.23437" lon="6.03331">
        <ele>245</ele>
        <time>2014-3-1T14:43:50.000Z</time>
      </trkpt>
      <trkpt lat="47.23437" lon="6.03331">
        <ele>245</ele>
        <time>2014-3-1T14:43:50.000Z</time>
      </trkpt>
      <trkpt lat="47.2343" lon="6.03337">
        <ele>245</ele>
        <time>2014-3-1T14:43:50.000Z</time>
      </trkpt>
      <trkpt lat="47.2343" lon="6.03337">
        <ele>245</ele>
        <time>2014-3-1T14:43:50.000Z</time>
      </trkpt>
      <trkpt lat="47.23424" lon="6.03341">
        <ele>245</ele>
        <time>2014-3-1T14:43:50.000Z</time>
      </trkpt>
      <trkpt lat="47.23424" lon="6.03341">
        <ele>245</ele>
        <time>2014-3-1T14:43:50.000Z</time>
      </trkpt>
      <trkpt lat="47.23427" lon="6.0335">
        <ele>243</ele>
        <time>2014-3-1T14:43:50.000Z</time>
      </trkpt>
      <trkpt lat="47.23427" lon="6.0335">
        <ele>243</ele>
        <time>2014-3-1T14:43:50.000Z</time>
      </trkpt>
      <trkpt lat="47.23431" lon="6.03358">
        <ele>245</ele>
        <time>2014-3-1T14:47:54.000Z</time>
      </trkpt>
      <trkpt lat="47.23431" lon="6.03358">
        <ele>245</ele>
        <time>2014-3-1T14:47:54.000Z</time>
      </trkpt>
      <trkpt lat="47.23426" lon="6.03351">
        <ele>248</ele>
        <time>2014-3-1T14:47:54.000Z</time>
      </trkpt>
      <trkpt lat="47.23426" lon="6.03351">
        <ele>248</ele>
        <time>2014-3-1T14:47:54.000Z</time>
      </trkpt>
      <trkpt lat="47.23423" lon="6.03341">
        <ele>249</ele>
        <time>2014-3-1T14:47:54.000Z</time>
      </trkpt>
      <trkpt lat="47.23423" lon="6.03341">
        <ele>249</ele>
        <time>2014-3-1T14:47:54.000Z</time>
      </trkpt>
      <trkpt lat="47.23426" lon="6.0333">
        <ele>250</ele>
        <time>2014-3-1T14:47:54.000Z</time>
      </trkpt>
      <trkpt lat="47.23426" lon="6.0333">
        <ele>250</ele>
        <time>2014-3-1T14:47:54.000Z</time>
      </trkpt>
      <trkpt lat="47.23427" lon="6.03318">
        <ele>252</ele>
        <time>2014-3-1T14:47:54.000Z</time>
      </trkpt>
      <trkpt lat="47.23427" lon="6.03318">
        <ele>252</ele>
        <time>2014-3-1T14:47:54.000Z</time>
      </trkpt>
      <trkpt lat="47.23421" lon="6.03306">
        <ele>253</ele>
        <time>2014-3-1T14:47:54.000Z</time>
      </trkpt>
      <trkpt lat="47.23421" lon="6.03306">
        <ele>253</ele>
        <time>2014-3-1T14:47:54.000Z</time>
      </trkpt>
      <trkpt lat="47.23417" lon="6.03299">
        <ele>253</ele>
        <time>2014-3-1T14:47:54.000Z</time>
      </trkpt>
      <trkpt lat="47.23417" lon="6.03299">
        <ele>253</ele>
        <time>2014-3-1T14:47:54.000Z</time>
      </trkpt>
      <trkpt lat="47.23411" lon="6.03288">
        <ele>253</ele>
        <time>2014-3-1T14:47:54.000Z</time>
      </trkpt>
      <trkpt lat="47.23411" lon="6.03288">
        <ele>253</ele>
        <time>2014-3-1T14:47:54.000Z</time>
      </trkpt>
      <trkpt lat="47.23407" lon="6.03276">
        <ele>254</ele>
        <time>2014-3-1T14:47:54.000Z</time>
      </trkpt>
      <trkpt lat="47.23407" lon="6.03276">
        <ele>254</ele>
        <time>2014-3-1T14:47:54.000Z</time>
      </trkpt>
      <trkpt lat="47.23408" lon="6.03266">
        <ele>253</ele>
        <time>2014-3-1T14:47:54.000Z</time>
      </trkpt>
      <trkpt lat="47.23408" lon="6.03266">
        <ele>253</ele>
        <time>2014-3-1T14:47:54.000Z</time>
      </trkpt>
      <trkpt lat="47.23407" lon="6.03255">
        <ele>255</ele>
        <time>2014-3-1T14:47:54.000Z</time>
      </trkpt>
      <trkpt lat="47.23407" lon="6.03255">
        <ele>255</ele>
        <time>2014-3-1T14:47:54.000Z</time>
      </trkpt>
      <trkpt lat="47.23406" lon="6.03244">
        <ele>259</ele>
        <time>2014-3-1T14:47:54.000Z</time>
      </trkpt>
      <trkpt lat="47.23406" lon="6.03244">
        <ele>259</ele>
        <time>2014-3-1T14:47:54.000Z</time>
      </trkpt>
      <trkpt lat="47.23406" lon="6.03233">
        <ele>260</ele>
        <time>2014-3-1T14:47:54.000Z</time>
      </trkpt>
      <trkpt lat="47.23406" lon="6.03233">
        <ele>260</ele>
        <time>2014-3-1T14:47:54.000Z</time>
      </trkpt>
      <trkpt lat="47.23404" lon="6.03224">
        <ele>266</ele>
        <time>2014-3-1T14:47:54.000Z</time>
      </trkpt>
      <trkpt lat="47.23404" lon="6.03224">
        <ele>266</ele>
        <time>2014-3-1T14:47:54.000Z</time>
      </trkpt>
      <trkpt lat="47.23399" lon="6.03218">
        <ele>265</ele>
        <time>2014-3-1T14:47:54.000Z</time>
      </trkpt>
      <trkpt lat="47.23399" lon="6.03218">
        <ele>265</ele>
        <time>2014-3-1T14:47:54.000Z</time>
      </trkpt>
      <trkpt lat="47.23394" lon="6.03209">
        <ele>264</ele>
        <time>2014-3-1T14:47:54.000Z</time>
      </trkpt>
      <trkpt lat="47.23394" lon="6.03209">
        <ele>264</ele>
        <time>2014-3-1T14:47:54.000Z</time>
      </trkpt>
      <trkpt lat="47.23389" lon="6.03201">
        <ele>266</ele>
        <time>2014-3-1T14:47:54.000Z</time>
      </trkpt>
      <trkpt lat="47.23389" lon="6.03201">
        <ele>266</ele>
        <time>2014-3-1T14:47:54.000Z</time>
      </trkpt>
      <trkpt lat="47.23387" lon="6.03192">
        <ele>267</ele>
        <time>2014-3-1T14:47:54.000Z</time>
      </trkpt>
      <trkpt lat="47.23387" lon="6.03192">
        <ele>267</ele>
        <time>2014-3-1T14:47:54.000Z</time>
      </trkpt>
      <trkpt lat="47.23387" lon="6.03179">
        <ele>266</ele>
        <time>2014-3-1T14:47:54.000Z</time>
      </trkpt>
      <trkpt lat="47.23387" lon="6.03179">
        <ele>266</ele>
        <time>2014-3-1T14:47:54.000Z</time>
      </trkpt>
      <trkpt lat="47.23388" lon="6.0317">
        <ele>269</ele>
        <time>2014-3-1T14:47:54.000Z</time>
      </trkpt>
      <trkpt lat="47.23388" lon="6.0317">
        <ele>269</ele>
        <time>2014-3-1T14:47:54.000Z</time>
      </trkpt>
      <trkpt lat="47.23386" lon="6.03161">
        <ele>272</ele>
        <time>2014-3-1T14:47:54.000Z</time>
      </trkpt>
      <trkpt lat="47.23386" lon="6.03161">
        <ele>272</ele>
        <time>2014-3-1T14:47:54.000Z</time>
      </trkpt>
      <trkpt lat="47.23383" lon="6.03148">
        <ele>275</ele>
        <time>2014-3-1T14:47:54.000Z</time>
      </trkpt>
      <trkpt lat="47.23383" lon="6.03148">
        <ele>275</ele>
        <time>2014-3-1T14:47:54.000Z</time>
      </trkpt>
      <trkpt lat="47.23382" lon="6.03137">
        <ele>276</ele>
        <time>2014-3-1T14:47:54.000Z</time>
      </trkpt>
      <trkpt lat="47.23382" lon="6.03137">
        <ele>276</ele>
        <time>2014-3-1T14:47:54.000Z</time>
      </trkpt>
      <trkpt lat="47.23377" lon="6.03129">
        <ele>277</ele>
        <time>2014-3-1T14:47:54.000Z</time>
      </trkpt>
      <trkpt lat="47.23377" lon="6.03129">
        <ele>277</ele>
        <time>2014-3-1T14:47:54.000Z</time>
      </trkpt>
      <trkpt lat="47.23375" lon="6.03119">
        <ele>278</ele>
        <time>2014-3-1T14:47:54.000Z</time>
      </trkpt>
      <trkpt lat="47.23375" lon="6.03119">
        <ele>278</ele>
        <time>2014-3-1T14:47:54.000Z</time>
      </trkpt>
      <trkpt lat="47.23371" lon="6.03112">
        <ele>276</ele>
        <time>2014-3-1T14:47:54.000Z</time>
      </trkpt>
      <trkpt lat="47.23371" lon="6.03112">
        <ele>276</ele>
        <time>2014-3-1T14:47:54.000Z</time>
      </trkpt>
      <trkpt lat="47.23365" lon="6.03115">
        <ele>276</ele>
        <time>2014-3-1T14:47:54.000Z</time>
      </trkpt>
      <trkpt lat="47.23365" lon="6.03115">
        <ele>276</ele>
        <time>2014-3-1T14:47:54.000Z</time>
      </trkpt>
      <trkpt lat="47.2336" lon="6.0312">
        <ele>275</ele>
        <time>2014-3-1T14:47:54.000Z</time>
      </trkpt>
      <trkpt lat="47.2336" lon="6.0312">
        <ele>275</ele>
        <time>2014-3-1T14:47:54.000Z</time>
      </trkpt>
      <trkpt lat="47.23355" lon="6.03127">
        <ele>279</ele>
        <time>2014-3-1T14:47:54.000Z</time>
      </trkpt>
      <trkpt lat="47.23355" lon="6.03127">
        <ele>279</ele>
        <time>2014-3-1T14:47:54.000Z</time>
      </trkpt>
      <trkpt lat="47.23357" lon="6.03139">
        <ele>279</ele>
        <time>2014-3-1T14:47:54.000Z</time>
      </trkpt>
      <trkpt lat="47.23357" lon="6.03139">
        <ele>279</ele>
        <time>2014-3-1T14:47:54.000Z</time>
      </trkpt>
      <trkpt lat="47.2336" lon="6.03147">
        <ele>280</ele>
        <time>2014-3-1T14:47:54.000Z</time>
      </trkpt>
      <trkpt lat="47.2336" lon="6.03147">
        <ele>280</ele>
        <time>2014-3-1T14:47:54.000Z</time>
      </trkpt>
      <trkpt lat="47.23363" lon="6.03161">
        <ele>283</ele>
        <time>2014-3-1T14:47:54.000Z</time>
      </trkpt>
      <trkpt lat="47.23363" lon="6.03161">
        <ele>283</ele>
        <time>2014-3-1T14:47:54.000Z</time>
      </trkpt>
      <trkpt lat="47.23364" lon="6.03172">
        <ele>285</ele>
        <time>2014-3-1T14:47:54.000Z</time>
      </trkpt>
      <trkpt lat="47.23364" lon="6.03172">
        <ele>285</ele>
        <time>2014-3-1T14:47:54.000Z</time>
      </trkpt>
      <trkpt lat="47.23362" lon="6.03185">
        <ele>286</ele>
        <time>2014-3-1T14:47:54.000Z</time>
      </trkpt>
      <trkpt lat="47.23362" lon="6.03185">
        <ele>286</ele>
        <time>2014-3-1T14:47:54.000Z</time>
      </trkpt>
      <trkpt lat="47.2336" lon="6.03195">
        <ele>285</ele>
        <time>2014-3-1T14:47:54.000Z</time>
      </trkpt>
      <trkpt lat="47.2336" lon="6.03195">
        <ele>285</ele>
        <time>2014-3-1T14:47:54.000Z</time>
      </trkpt>
      <trkpt lat="47.23358" lon="6.03206">
        <ele>288</ele>
        <time>2014-3-1T14:47:54.000Z</time>
      </trkpt>
      <trkpt lat="47.23358" lon="6.03206">
        <ele>288</ele>
        <time>2014-3-1T14:47:54.000Z</time>
      </trkpt>
      <trkpt lat="47.23357" lon="6.03217">
        <ele>290</ele>
        <time>2014-3-1T14:47:54.000Z</time>
      </trkpt>
      <trkpt lat="47.23357" lon="6.03217">
        <ele>290</ele>
        <time>2014-3-1T14:47:54.000Z</time>
      </trkpt>
      <trkpt lat="47.23353" lon="6.03227">
        <ele>290</ele>
        <time>2014-3-1T14:47:54.000Z</time>
      </trkpt>
      <trkpt lat="47.23353" lon="6.03227">
        <ele>290</ele>
        <time>2014-3-1T14:47:54.000Z</time>
      </trkpt>
      <trkpt lat="47.23354" lon="6.0324">
        <ele>289</ele>
        <time>2014-3-1T14:47:54.000Z</time>
      </trkpt>
      <trkpt lat="47.23354" lon="6.0324">
        <ele>289</ele>
        <time>2014-3-1T14:47:54.000Z</time>
      </trkpt>
      <trkpt lat="47.23352" lon="6.0325">
        <ele>291</ele>
        <time>2014-3-1T14:47:54.000Z</time>
      </trkpt>
      <trkpt lat="47.23352" lon="6.0325">
        <ele>291</ele>
        <time>2014-3-1T14:47:54.000Z</time>
      </trkpt>
      <trkpt lat="47.23349" lon="6.03258">
        <ele>294</ele>
        <time>2014-3-1T14:47:54.000Z</time>
      </trkpt>
      <trkpt lat="47.23349" lon="6.03258">
        <ele>294</ele>
        <time>2014-3-1T14:47:54.000Z</time>
      </trkpt>
      <trkpt lat="47.23344" lon="6.03264">
        <ele>293</ele>
        <time>2014-3-1T14:47:54.000Z</time>
      </trkpt>
      <trkpt lat="47.23344" lon="6.03264">
        <ele>293</ele>
        <time>2014-3-1T14:47:54.000Z</time>
      </trkpt>
      <trkpt lat="47.2334" lon="6.03272">
        <ele>290</ele>
        <time>2014-3-1T14:47:54.000Z</time>
      </trkpt>
      <trkpt lat="47.2334" lon="6.03272">
        <ele>290</ele>
        <time>2014-3-1T14:47:54.000Z</time>
      </trkpt>
      <trkpt lat="47.2334" lon="6.03282">
        <ele>290</ele>
        <time>2014-3-1T14:47:54.000Z</time>
      </trkpt>
      <trkpt lat="47.2334" lon="6.03282">
        <ele>290</ele>
        <time>2014-3-1T14:47:54.000Z</time>
      </trkpt>
      <trkpt lat="47.23333" lon="6.03283">
        <ele>290</ele>
        <time>2014-3-1T14:47:54.000Z</time>
      </trkpt>
      <trkpt lat="47.23333" lon="6.03283">
        <ele>290</ele>
        <time>2014-3-1T14:47:54.000Z</time>
      </trkpt>
      <trkpt lat="47.23327" lon="6.03285">
        <ele>289</ele>
        <time>2014-3-1T14:47:54.000Z</time>
      </trkpt>
      <trkpt lat="47.23327" lon="6.03285">
        <ele>289</ele>
        <time>2014-3-1T14:47:54.000Z</time>
      </trkpt>
      <trkpt lat="47.23321" lon="6.03278">
        <ele>291</ele>
        <time>2014-3-1T14:47:54.000Z</time>
      </trkpt>
      <trkpt lat="47.23321" lon="6.03278">
        <ele>291</ele>
        <time>2014-3-1T14:47:54.000Z</time>
      </trkpt>
      <trkpt lat="47.23316" lon="6.03272">
        <ele>291</ele>
        <time>2014-3-1T14:47:54.000Z</time>
      </trkpt>
      <trkpt lat="47.23316" lon="6.03272">
        <ele>291</ele>
        <time>2014-3-1T14:47:54.000Z</time>
      </trkpt>
      <trkpt lat="47.2331" lon="6.03265">
        <ele>293</ele>
        <time>2014-3-1T14:47:54.000Z</time>
      </trkpt>
      <trkpt lat="47.2331" lon="6.03265">
        <ele>293</ele>
        <time>2014-3-1T14:47:54.000Z</time>
      </trkpt>
      <trkpt lat="47.23306" lon="6.03257">
        <ele>298</ele>
        <time>2014-3-1T14:47:54.000Z</time>
      </trkpt>
      <trkpt lat="47.23306" lon="6.03257">
        <ele>298</ele>
        <time>2014-3-1T14:47:54.000Z</time>
      </trkpt>
      <trkpt lat="47.23301" lon="6.03251">
        <ele>300</ele>
        <time>2014-3-1T14:47:54.000Z</time>
      </trkpt>
      <trkpt lat="47.23301" lon="6.03251">
        <ele>300</ele>
        <time>2014-3-1T14:51:47.000Z</time>
      </trkpt>
      <trkpt lat="47.23294" lon="6.03248">
        <ele>301</ele>
        <time>2014-3-1T14:51:47.000Z</time>
      </trkpt>
      <trkpt lat="47.23294" lon="6.03248">
        <ele>301</ele>
        <time>2014-3-1T14:51:47.000Z</time>
      </trkpt>
      <trkpt lat="47.23288" lon="6.03248">
        <ele>303</ele>
        <time>2014-3-1T14:51:47.000Z</time>
      </trkpt>
      <trkpt lat="47.23288" lon="6.03248">
        <ele>303</ele>
        <time>2014-3-1T14:51:47.000Z</time>
      </trkpt>
      <trkpt lat="47.23281" lon="6.03245">
        <ele>305</ele>
        <time>2014-3-1T14:51:47.000Z</time>
      </trkpt>
      <trkpt lat="47.23281" lon="6.03245">
        <ele>305</ele>
        <time>2014-3-1T14:51:47.000Z</time>
      </trkpt>
      <trkpt lat="47.23274" lon="6.03244">
        <ele>306</ele>
        <time>2014-3-1T14:51:47.000Z</time>
      </trkpt>
      <trkpt lat="47.23274" lon="6.03244">
        <ele>306</ele>
        <time>2014-3-1T14:51:47.000Z</time>
      </trkpt>
      <trkpt lat="47.23268" lon="6.0324">
        <ele>308</ele>
        <time>2014-3-1T14:51:47.000Z</time>
      </trkpt>
      <trkpt lat="47.23268" lon="6.0324">
        <ele>308</ele>
        <time>2014-3-1T14:51:47.000Z</time>
      </trkpt>
      <trkpt lat="47.23262" lon="6.03236">
        <ele>308</ele>
        <time>2014-3-1T14:51:47.000Z</time>
      </trkpt>
      <trkpt lat="47.23262" lon="6.03236">
        <ele>308</ele>
        <time>2014-3-1T14:51:47.000Z</time>
      </trkpt>
      <trkpt lat="47.23256" lon="6.03233">
        <ele>308</ele>
        <time>2014-3-1T14:51:47.000Z</time>
      </trkpt>
      <trkpt lat="47.23256" lon="6.03233">
        <ele>308</ele>
        <time>2014-3-1T14:51:47.000Z</time>
      </trkpt>
      <trkpt lat="47.23249" lon="6.03229">
        <ele>309</ele>
        <time>2014-3-1T14:51:47.000Z</time>
      </trkpt>
      <trkpt lat="47.23249" lon="6.03229">
        <ele>309</ele>
        <time>2014-3-1T14:51:47.000Z</time>
      </trkpt>
      <trkpt lat="47.23243" lon="6.03228">
        <ele>310</ele>
        <time>2014-3-1T14:51:47.000Z</time>
      </trkpt>
      <trkpt lat="47.23243" lon="6.03228">
        <ele>310</ele>
        <time>2014-3-1T14:51:47.000Z</time>
      </trkpt>
      <trkpt lat="47.23237" lon="6.03226">
        <ele>311</ele>
        <time>2014-3-1T14:51:47.000Z</time>
      </trkpt>
      <trkpt lat="47.23237" lon="6.03226">
        <ele>311</ele>
        <time>2014-3-1T14:51:47.000Z</time>
      </trkpt>
      <trkpt lat="47.2323" lon="6.03224">
        <ele>314</ele>
        <time>2014-3-1T14:51:47.000Z</time>
      </trkpt>
      <trkpt lat="47.2323" lon="6.03224">
        <ele>314</ele>
        <time>2014-3-1T14:51:47.000Z</time>
      </trkpt>
      <trkpt lat="47.23223" lon="6.03223">
        <ele>317</ele>
        <time>2014-3-1T14:51:47.000Z</time>
      </trkpt>
      <trkpt lat="47.23223" lon="6.03223">
        <ele>317</ele>
        <time>2014-3-1T14:51:47.000Z</time>
      </trkpt>
      <trkpt lat="47.23216" lon="6.0322">
        <ele>318</ele>
        <time>2014-3-1T14:51:47.000Z</time>
      </trkpt>
      <trkpt lat="47.23216" lon="6.0322">
        <ele>318</ele>
        <time>2014-3-1T14:51:47.000Z</time>
      </trkpt>
      <trkpt lat="47.2321" lon="6.03212">
        <ele>319</ele>
        <time>2014-3-1T14:51:47.000Z</time>
      </trkpt>
      <trkpt lat="47.2321" lon="6.03212">
        <ele>319</ele>
        <time>2014-3-1T14:51:47.000Z</time>
      </trkpt>
      <trkpt lat="47.23206" lon="6.03205">
        <ele>319</ele>
        <time>2014-3-1T14:51:47.000Z</time>
      </trkpt>
      <trkpt lat="47.23206" lon="6.03205">
        <ele>319</ele>
        <time>2014-3-1T14:51:47.000Z</time>
      </trkpt>
      <trkpt lat="47.23202" lon="6.03196">
        <ele>320</ele>
        <time>2014-3-1T14:51:47.000Z</time>
      </trkpt>
      <trkpt lat="47.23202" lon="6.03196">
        <ele>320</ele>
        <time>2014-3-1T14:51:47.000Z</time>
      </trkpt>
      <trkpt lat="47.23199" lon="6.03184">
        <ele>323</ele>
        <time>2014-3-1T14:51:47.000Z</time>
      </trkpt>
      <trkpt lat="47.23199" lon="6.03184">
        <ele>323</ele>
        <time>2014-3-1T14:51:47.000Z</time>
      </trkpt>
      <trkpt lat="47.23195" lon="6.03175">
        <ele>324</ele>
        <time>2014-3-1T14:51:47.000Z</time>
      </trkpt>
      <trkpt lat="47.23195" lon="6.03175">
        <ele>324</ele>
        <time>2014-3-1T14:51:47.000Z</time>
      </trkpt>
      <trkpt lat="47.23192" lon="6.03165">
        <ele>325</ele>
        <time>2014-3-1T14:51:47.000Z</time>
      </trkpt>
      <trkpt lat="47.23192" lon="6.03165">
        <ele>325</ele>
        <time>2014-3-1T14:51:47.000Z</time>
      </trkpt>
      <trkpt lat="47.23195" lon="6.03154">
        <ele>324</ele>
        <time>2014-3-1T14:51:47.000Z</time>
      </trkpt>
      <trkpt lat="47.23195" lon="6.03154">
        <ele>324</ele>
        <time>2014-3-1T14:51:47.000Z</time>
      </trkpt>
      <trkpt lat="47.23195" lon="6.03142">
        <ele>323</ele>
        <time>2014-3-1T14:51:47.000Z</time>
      </trkpt>
      <trkpt lat="47.23195" lon="6.03142">
        <ele>323</ele>
        <time>2014-3-1T14:51:47.000Z</time>
      </trkpt>
      <trkpt lat="47.23194" lon="6.0313">
        <ele>323</ele>
        <time>2014-3-1T14:51:47.000Z</time>
      </trkpt>
      <trkpt lat="47.23194" lon="6.0313">
        <ele>323</ele>
        <time>2014-3-1T14:51:47.000Z</time>
      </trkpt>
      <trkpt lat="47.23192" lon="6.03119">
        <ele>324</ele>
        <time>2014-3-1T14:51:47.000Z</time>
      </trkpt>
      <trkpt lat="47.23192" lon="6.03119">
        <ele>324</ele>
        <time>2014-3-1T14:51:47.000Z</time>
      </trkpt>
      <trkpt lat="47.23191" lon="6.03108">
        <ele>322</ele>
        <time>2014-3-1T14:51:47.000Z</time>
      </trkpt>
      <trkpt lat="47.23191" lon="6.03108">
        <ele>322</ele>
        <time>2014-3-1T14:51:47.000Z</time>
      </trkpt>
      <trkpt lat="47.23189" lon="6.03098">
        <ele>323</ele>
        <time>2014-3-1T14:51:47.000Z</time>
      </trkpt>
      <trkpt lat="47.23189" lon="6.03098">
        <ele>323</ele>
        <time>2014-3-1T14:51:47.000Z</time>
      </trkpt>
      <trkpt lat="47.23187" lon="6.03088">
        <ele>324</ele>
        <time>2014-3-1T14:51:47.000Z</time>
      </trkpt>
      <trkpt lat="47.23187" lon="6.03088">
        <ele>324</ele>
        <time>2014-3-1T14:51:47.000Z</time>
      </trkpt>
      <trkpt lat="47.23187" lon="6.03077">
        <ele>324</ele>
        <time>2014-3-1T14:51:47.000Z</time>
      </trkpt>
      <trkpt lat="47.23187" lon="6.03077">
        <ele>324</ele>
        <time>2014-3-1T14:51:47.000Z</time>
      </trkpt>
      <trkpt lat="47.23186" lon="6.03067">
        <ele>324</ele>
        <time>2014-3-1T14:51:47.000Z</time>
      </trkpt>
      <trkpt lat="47.23186" lon="6.03067">
        <ele>324</ele>
        <time>2014-3-1T14:51:47.000Z</time>
      </trkpt>
      <trkpt lat="47.23184" lon="6.03057">
        <ele>323</ele>
        <time>2014-3-1T14:51:47.000Z</time>
      </trkpt>
      <trkpt lat="47.23184" lon="6.03057">
        <ele>323</ele>
        <time>2014-3-1T14:51:47.000Z</time>
      </trkpt>
      <trkpt lat="47.23183" lon="6.03045">
        <ele>324</ele>
        <time>2014-3-1T14:51:47.000Z</time>
      </trkpt>
      <trkpt lat="47.23183" lon="6.03045">
        <ele>324</ele>
        <time>2014-3-1T14:51:47.000Z</time>
      </trkpt>
      <trkpt lat="47.23185" lon="6.03035">
        <ele>324</ele>
        <time>2014-3-1T14:51:47.000Z</time>
      </trkpt>
      <trkpt lat="47.23185" lon="6.03035">
        <ele>324</ele>
        <time>2014-3-1T14:51:47.000Z</time>
      </trkpt>
      <trkpt lat="47.2319" lon="6.03027">
        <ele>324</ele>
        <time>2014-3-1T14:51:47.000Z</time>
      </trkpt>
      <trkpt lat="47.2319" lon="6.03027">
        <ele>324</ele>
        <time>2014-3-1T14:51:47.000Z</time>
      </trkpt>
      <trkpt lat="47.23194" lon="6.03018">
        <ele>324</ele>
        <time>2014-3-1T14:51:47.000Z</time>
      </trkpt>
      <trkpt lat="47.23194" lon="6.03018">
        <ele>324</ele>
        <time>2014-3-1T14:51:47.000Z</time>
      </trkpt>
      <trkpt lat="47.23193" lon="6.03007">
        <ele>324</ele>
        <time>2014-3-1T14:51:47.000Z</time>
      </trkpt>
      <trkpt lat="47.23193" lon="6.03007">
        <ele>324</ele>
        <time>2014-3-1T14:51:47.000Z</time>
      </trkpt>
      <trkpt lat="47.23192" lon="6.02995">
        <ele>321</ele>
        <time>2014-3-1T14:51:47.000Z</time>
      </trkpt>
      <trkpt lat="47.23192" lon="6.02995">
        <ele>321</ele>
        <time>2014-3-1T14:51:47.000Z</time>
      </trkpt>
      <trkpt lat="47.23192" lon="6.02984">
        <ele>324</ele>
        <time>2014-3-1T14:51:47.000Z</time>
      </trkpt>
      <trkpt lat="47.23192" lon="6.02984">
        <ele>324</ele>
        <time>2014-3-1T14:51:47.000Z</time>
      </trkpt>
      <trkpt lat="47.23192" lon="6.02973">
        <ele>321</ele>
        <time>2014-3-1T14:51:47.000Z</time>
      </trkpt>
      <trkpt lat="47.23192" lon="6.02973">
        <ele>321</ele>
        <time>2014-3-1T14:51:47.000Z</time>
      </trkpt>
      <trkpt lat="47.23187" lon="6.02964">
        <ele>321</ele>
        <time>2014-3-1T14:51:47.000Z</time>
      </trkpt>
      <trkpt lat="47.23187" lon="6.02964">
        <ele>321</ele>
        <time>2014-3-1T14:51:47.000Z</time>
      </trkpt>
      <trkpt lat="47.2318" lon="6.02964">
        <ele>320</ele>
        <time>2014-3-1T14:51:47.000Z</time>
      </trkpt>
      <trkpt lat="47.2318" lon="6.02964">
        <ele>320</ele>
        <time>2014-3-1T14:51:47.000Z</time>
      </trkpt>
      <trkpt lat="47.23175" lon="6.02969">
        <ele>318</ele>
        <time>2014-3-1T14:51:47.000Z</time>
      </trkpt>
      <trkpt lat="47.23175" lon="6.02969">
        <ele>318</ele>
        <time>2014-3-1T14:51:47.000Z</time>
      </trkpt>
      <trkpt lat="47.23169" lon="6.02979">
        <ele>318</ele>
        <time>2014-3-1T14:51:47.000Z</time>
      </trkpt>
      <trkpt lat="47.23169" lon="6.02979">
        <ele>318</ele>
        <time>2014-3-1T14:51:47.000Z</time>
      </trkpt>
      <trkpt lat="47.23163" lon="6.02987">
        <ele>318</ele>
        <time>2014-3-1T14:51:47.000Z</time>
      </trkpt>
      <trkpt lat="47.23163" lon="6.02987">
        <ele>318</ele>
        <time>2014-3-1T14:51:47.000Z</time>
      </trkpt>
      <trkpt lat="47.23158" lon="6.02996">
        <ele>317</ele>
        <time>2014-3-1T14:51:47.000Z</time>
      </trkpt>
      <trkpt lat="47.23158" lon="6.02996">
        <ele>317</ele>
        <time>2014-3-1T14:51:47.000Z</time>
      </trkpt>
      <trkpt lat="47.23153" lon="6.03005">
        <ele>317</ele>
        <time>2014-3-1T14:51:47.000Z</time>
      </trkpt>
      <trkpt lat="47.23153" lon="6.03005">
        <ele>317</ele>
        <time>2014-3-1T14:51:47.000Z</time>
      </trkpt>
      <trkpt lat="47.23146" lon="6.03013">
        <ele>315</ele>
        <time>2014-3-1T14:51:47.000Z</time>
      </trkpt>
      <trkpt lat="47.23146" lon="6.03013">
        <ele>315</ele>
        <time>2014-3-1T14:51:47.000Z</time>
      </trkpt>
      <trkpt lat="47.23141" lon="6.03019">
        <ele>310</ele>
        <time>2014-3-1T14:51:47.000Z</time>
      </trkpt>
      <trkpt lat="47.23141" lon="6.03019">
        <ele>310</ele>
        <time>2014-3-1T14:51:47.000Z</time>
      </trkpt>
      <trkpt lat="47.23134" lon="6.03017">
        <ele>308</ele>
        <time>2014-3-1T14:51:47.000Z</time>
      </trkpt>
      <trkpt lat="47.23134" lon="6.03017">
        <ele>308</ele>
        <time>2014-3-1T14:51:47.000Z</time>
      </trkpt>
      <trkpt lat="47.2313" lon="6.03009">
        <ele>306</ele>
        <time>2014-3-1T14:51:47.000Z</time>
      </trkpt>
      <trkpt lat="47.2313" lon="6.03009">
        <ele>306</ele>
        <time>2014-3-1T14:51:47.000Z</time>
      </trkpt>
      <trkpt lat="47.23127" lon="6.03">
        <ele>302</ele>
        <time>2014-3-1T14:51:47.000Z</time>
      </trkpt>
      <trkpt lat="47.23127" lon="6.03">
        <ele>302</ele>
        <time>2014-3-1T14:51:47.000Z</time>
      </trkpt>
      <trkpt lat="47.23121" lon="6.02993">
        <ele>300</ele>
        <time>2014-3-1T14:51:47.000Z</time>
      </trkpt>
      <trkpt lat="47.23121" lon="6.02993">
        <ele>300</ele>
        <time>2014-3-1T14:51:47.000Z</time>
      </trkpt>
      <trkpt lat="47.23118" lon="6.02984">
        <ele>299</ele>
        <time>2014-3-1T14:55:39.000Z</time>
      </trkpt>
      <trkpt lat="47.23118" lon="6.02984">
        <ele>299</ele>
        <time>2014-3-1T14:55:39.000Z</time>
      </trkpt>
      <trkpt lat="47.23116" lon="6.02975">
        <ele>294</ele>
        <time>2014-3-1T14:55:39.000Z</time>
      </trkpt>
      <trkpt lat="47.23116" lon="6.02975">
        <ele>294</ele>
        <time>2014-3-1T14:55:39.000Z</time>
      </trkpt>
      <trkpt lat="47.23117" lon="6.02965">
        <ele>288</ele>
        <time>2014-3-1T14:55:39.000Z</time>
      </trkpt>
      <trkpt lat="47.23117" lon="6.02965">
        <ele>288</ele>
        <time>2014-3-1T14:55:39.000Z</time>
      </trkpt>
      <trkpt lat="47.23116" lon="6.02954">
        <ele>290</ele>
        <time>2014-3-1T14:55:39.000Z</time>
      </trkpt>
      <trkpt lat="47.23116" lon="6.02954">
        <ele>290</ele>
        <time>2014-3-1T14:55:39.000Z</time>
      </trkpt>
      <trkpt lat="47.23117" lon="6.02944">
        <ele>289</ele>
        <time>2014-3-1T14:55:39.000Z</time>
      </trkpt>
      <trkpt lat="47.23117" lon="6.02944">
        <ele>289</ele>
        <time>2014-3-1T14:55:39.000Z</time>
      </trkpt>
      <trkpt lat="47.23118" lon="6.02934">
        <ele>288</ele>
        <time>2014-3-1T14:55:39.000Z</time>
      </trkpt>
      <trkpt lat="47.23118" lon="6.02934">
        <ele>288</ele>
        <time>2014-3-1T14:55:39.000Z</time>
      </trkpt>
      <trkpt lat="47.23117" lon="6.02923">
        <ele>281</ele>
        <time>2014-3-1T14:55:39.000Z</time>
      </trkpt>
      <trkpt lat="47.23117" lon="6.02923">
        <ele>281</ele>
        <time>2014-3-1T14:55:39.000Z</time>
      </trkpt>
      <trkpt lat="47.23114" lon="6.02914">
        <ele>279</ele>
        <time>2014-3-1T14:55:39.000Z</time>
      </trkpt>
      <trkpt lat="47.23114" lon="6.02914">
        <ele>279</ele>
        <time>2014-3-1T14:55:39.000Z</time>
      </trkpt>
      <trkpt lat="47.23114" lon="6.02903">
        <ele>279</ele>
        <time>2014-3-1T14:55:39.000Z</time>
      </trkpt>
      <trkpt lat="47.23114" lon="6.02903">
        <ele>279</ele>
        <time>2014-3-1T14:55:39.000Z</time>
      </trkpt>
      <trkpt lat="47.23117" lon="6.02893">
        <ele>275</ele>
        <time>2014-3-1T14:55:39.000Z</time>
      </trkpt>
      <trkpt lat="47.23117" lon="6.02893">
        <ele>275</ele>
        <time>2014-3-1T14:55:39.000Z</time>
      </trkpt>
      <trkpt lat="47.23118" lon="6.02881">
        <ele>274</ele>
        <time>2014-3-1T14:55:39.000Z</time>
      </trkpt>
      <trkpt lat="47.23118" lon="6.02881">
        <ele>274</ele>
        <time>2014-3-1T14:55:39.000Z</time>
      </trkpt>
      <trkpt lat="47.23118" lon="6.02867">
        <ele>273</ele>
        <time>2014-3-1T14:55:39.000Z</time>
      </trkpt>
      <trkpt lat="47.23118" lon="6.02867">
        <ele>273</ele>
        <time>2014-3-1T14:55:39.000Z</time>
      </trkpt>
      <trkpt lat="47.23119" lon="6.02855">
        <ele>272</ele>
        <time>2014-3-1T14:55:39.000Z</time>
      </trkpt>
      <trkpt lat="47.23119" lon="6.02855">
        <ele>272</ele>
        <time>2014-3-1T14:55:39.000Z</time>
      </trkpt>
      <trkpt lat="47.23122" lon="6.02845">
        <ele>271</ele>
        <time>2014-3-1T14:55:39.000Z</time>
      </trkpt>
      <trkpt lat="47.23122" lon="6.02845">
        <ele>271</ele>
        <time>2014-3-1T14:55:39.000Z</time>
      </trkpt>
      <trkpt lat="47.23126" lon="6.02833">
        <ele>269</ele>
        <time>2014-3-1T14:55:39.000Z</time>
      </trkpt>
      <trkpt lat="47.23126" lon="6.02833">
        <ele>269</ele>
        <time>2014-3-1T14:55:39.000Z</time>
      </trkpt>
      <trkpt lat="47.23131" lon="6.02822">
        <ele>268</ele>
        <time>2014-3-1T14:55:39.000Z</time>
      </trkpt>
      <trkpt lat="47.23131" lon="6.02822">
        <ele>268</ele>
        <time>2014-3-1T14:55:39.000Z</time>
      </trkpt>
      <trkpt lat="47.23134" lon="6.02812">
        <ele>270</ele>
        <time>2014-3-1T14:55:39.000Z</time>
      </trkpt>
      <trkpt lat="47.23134" lon="6.02812">
        <ele>270</ele>
        <time>2014-3-1T14:55:39.000Z</time>
      </trkpt>
      <trkpt lat="47.2314" lon="6.02807">
        <ele>271</ele>
        <time>2014-3-1T14:55:39.000Z</time>
      </trkpt>
      <trkpt lat="47.2314" lon="6.02807">
        <ele>271</ele>
        <time>2014-3-1T14:55:39.000Z</time>
      </trkpt>
      <trkpt lat="47.2313" lon="6.02812">
        <ele>271</ele>
        <time>2014-3-1T14:55:39.000Z</time>
      </trkpt>
      <trkpt lat="47.2313" lon="6.02812">
        <ele>271</ele>
        <time>2014-3-1T14:55:39.000Z</time>
      </trkpt>
      <trkpt lat="47.23123" lon="6.02821">
        <ele>271</ele>
        <time>2014-3-1T14:55:39.000Z</time>
      </trkpt>
      <trkpt lat="47.23123" lon="6.02821">
        <ele>271</ele>
        <time>2014-3-1T14:55:39.000Z</time>
      </trkpt>
      <trkpt lat="47.23115" lon="6.0283">
        <ele>270</ele>
        <time>2014-3-1T14:55:39.000Z</time>
      </trkpt>
      <trkpt lat="47.23115" lon="6.0283">
        <ele>270</ele>
        <time>2014-3-1T14:55:39.000Z</time>
      </trkpt>
      <trkpt lat="47.23108" lon="6.0283">
        <ele>268</ele>
        <time>2014-3-1T14:55:39.000Z</time>
      </trkpt>
      <trkpt lat="47.23108" lon="6.0283">
        <ele>268</ele>
        <time>2014-3-1T14:55:39.000Z</time>
      </trkpt>
      <trkpt lat="47.23102" lon="6.02821">
        <ele>264</ele>
        <time>2014-3-1T14:55:39.000Z</time>
      </trkpt>
      <trkpt lat="47.23102" lon="6.02821">
        <ele>264</ele>
        <time>2014-3-1T14:55:39.000Z</time>
      </trkpt>
      <trkpt lat="47.23097" lon="6.02812">
        <ele>263</ele>
        <time>2014-3-1T14:55:39.000Z</time>
      </trkpt>
      <trkpt lat="47.23097" lon="6.02812">
        <ele>263</ele>
        <time>2014-3-1T14:55:39.000Z</time>
      </trkpt>
      <trkpt lat="47.23091" lon="6.02808">
        <ele>261</ele>
        <time>2014-3-1T14:55:39.000Z</time>
      </trkpt>
      <trkpt lat="47.23091" lon="6.02808">
        <ele>261</ele>
        <time>2014-3-1T14:55:39.000Z</time>
      </trkpt>
      <trkpt lat="47.23085" lon="6.02803">
        <ele>262</ele>
        <time>2014-3-1T14:55:39.000Z</time>
      </trkpt>
      <trkpt lat="47.23085" lon="6.02803">
        <ele>262</ele>
        <time>2014-3-1T14:55:39.000Z</time>
      </trkpt>
      <trkpt lat="47.23079" lon="6.02795">
        <ele>260</ele>
        <time>2014-3-1T14:55:39.000Z</time>
      </trkpt>
      <trkpt lat="47.23079" lon="6.02795">
        <ele>260</ele>
        <time>2014-3-1T14:55:39.000Z</time>
      </trkpt>
      <trkpt lat="47.23081" lon="6.02786">
        <ele>254</ele>
        <time>2014-3-1T14:55:39.000Z</time>
      </trkpt>
      <trkpt lat="47.23081" lon="6.02786">
        <ele>254</ele>
        <time>2014-3-1T14:55:39.000Z</time>
      </trkpt>
      <trkpt lat="47.23085" lon="6.02775">
        <ele>253</ele>
        <time>2014-3-1T14:55:39.000Z</time>
      </trkpt>
      <trkpt lat="47.23085" lon="6.02775">
        <ele>253</ele>
        <time>2014-3-1T14:55:39.000Z</time>
      </trkpt>
      <trkpt lat="47.23087" lon="6.02764">
        <ele>254</ele>
        <time>2014-3-1T14:55:39.000Z</time>
      </trkpt>
      <trkpt lat="47.23087" lon="6.02764">
        <ele>254</ele>
        <time>2014-3-1T14:55:39.000Z</time>
      </trkpt>
      <trkpt lat="47.23086" lon="6.02755">
        <ele>255</ele>
        <time>2014-3-1T14:55:39.000Z</time>
      </trkpt>
      <trkpt lat="47.23086" lon="6.02755">
        <ele>255</ele>
        <time>2014-3-1T14:55:39.000Z</time>
      </trkpt>
      <trkpt lat="47.23087" lon="6.02743">
        <ele>253</ele>
        <time>2014-3-1T14:55:39.000Z</time>
      </trkpt>
      <trkpt lat="47.23087" lon="6.02743">
        <ele>253</ele>
        <time>2014-3-1T14:55:39.000Z</time>
      </trkpt>
      <trkpt lat="47.23091" lon="6.02732">
        <ele>253</ele>
        <time>2014-3-1T14:55:39.000Z</time>
      </trkpt>
      <trkpt lat="47.23091" lon="6.02732">
        <ele>253</ele>
        <time>2014-3-1T14:55:39.000Z</time>
      </trkpt>
      <trkpt lat="47.23096" lon="6.02721">
        <ele>250</ele>
        <time>2014-3-1T14:55:39.000Z</time>
      </trkpt>
      <trkpt lat="47.23096" lon="6.02721">
        <ele>250</ele>
        <time>2014-3-1T14:55:39.000Z</time>
      </trkpt>
      <trkpt lat="47.231" lon="6.02709">
        <ele>250</ele>
        <time>2014-3-1T14:55:39.000Z</time>
      </trkpt>
      <trkpt lat="47.231" lon="6.02709">
        <ele>250</ele>
        <time>2014-3-1T14:55:39.000Z</time>
      </trkpt>
      <trkpt lat="47.231" lon="6.02697">
        <ele>250</ele>
        <time>2014-3-1T14:55:39.000Z</time>
      </trkpt>
      <trkpt lat="47.231" lon="6.02697">
        <ele>250</ele>
        <time>2014-3-1T14:55:39.000Z</time>
      </trkpt>
      <trkpt lat="47.23103" lon="6.02685">
        <ele>248</ele>
        <time>2014-3-1T14:55:39.000Z</time>
      </trkpt>
      <trkpt lat="47.23103" lon="6.02685">
        <ele>248</ele>
        <time>2014-3-1T14:55:39.000Z</time>
      </trkpt>
      <trkpt lat="47.23105" lon="6.02673">
        <ele>248</ele>
        <time>2014-3-1T14:55:39.000Z</time>
      </trkpt>
      <trkpt lat="47.23105" lon="6.02673">
        <ele>248</ele>
        <time>2014-3-1T14:55:39.000Z</time>
      </trkpt>
      <trkpt lat="47.23106" lon="6.02661">
        <ele>249</ele>
        <time>2014-3-1T14:55:39.000Z</time>
      </trkpt>
      <trkpt lat="47.23106" lon="6.02661">
        <ele>249</ele>
        <time>2014-3-1T14:55:39.000Z</time>
      </trkpt>
      <trkpt lat="47.23108" lon="6.02651">
        <ele>248</ele>
        <time>2014-3-1T14:55:39.000Z</time>
      </trkpt>
      <trkpt lat="47.23108" lon="6.02651">
        <ele>248</ele>
        <time>2014-3-1T14:55:39.000Z</time>
      </trkpt>
      <trkpt lat="47.23108" lon="6.02641">
        <ele>247</ele>
        <time>2014-3-1T14:55:39.000Z</time>
      </trkpt>
      <trkpt lat="47.23108" lon="6.02641">
        <ele>247</ele>
        <time>2014-3-1T14:55:39.000Z</time>
      </trkpt>
      <trkpt lat="47.23108" lon="6.02629">
        <ele>247</ele>
        <time>2014-3-1T14:55:39.000Z</time>
      </trkpt>
      <trkpt lat="47.23108" lon="6.02629">
        <ele>247</ele>
        <time>2014-3-1T14:55:39.000Z</time>
      </trkpt>
      <trkpt lat="47.23108" lon="6.02619">
        <ele>247</ele>
        <time>2014-3-1T14:55:39.000Z</time>
      </trkpt>
      <trkpt lat="47.23108" lon="6.02619">
        <ele>247</ele>
        <time>2014-3-1T14:55:39.000Z</time>
      </trkpt>
      <trkpt lat="47.23109" lon="6.02608">
        <ele>248</ele>
        <time>2014-3-1T14:55:39.000Z</time>
      </trkpt>
      <trkpt lat="47.23109" lon="6.02608">
        <ele>248</ele>
        <time>2014-3-1T14:55:39.000Z</time>
      </trkpt>
      <trkpt lat="47.2311" lon="6.02598">
        <ele>244</ele>
        <time>2014-3-1T14:55:39.000Z</time>
      </trkpt>
      <trkpt lat="47.2311" lon="6.02598">
        <ele>244</ele>
        <time>2014-3-1T14:55:39.000Z</time>
      </trkpt>
      <trkpt lat="47.23112" lon="6.02589">
        <ele>242</ele>
        <time>2014-3-1T14:55:39.000Z</time>
      </trkpt>
      <trkpt lat="47.23112" lon="6.02589">
        <ele>242</ele>
        <time>2014-3-1T14:55:39.000Z</time>
      </trkpt>
      <trkpt lat="47.23119" lon="6.02587">
        <ele>241</ele>
        <time>2014-3-1T14:55:39.000Z</time>
      </trkpt>
      <trkpt lat="47.23119" lon="6.02587">
        <ele>241</ele>
        <time>2014-3-1T14:55:39.000Z</time>
      </trkpt>
      <trkpt lat="47.23113" lon="6.02591">
        <ele>249</ele>
        <time>2014-3-1T14:55:39.000Z</time>
      </trkpt>
      <trkpt lat="47.23113" lon="6.02591">
        <ele>249</ele>
        <time>2014-3-1T14:55:39.000Z</time>
      </trkpt>
      <trkpt lat="47.2311" lon="6.02599">
        <ele>249</ele>
        <time>2014-3-1T14:55:39.000Z</time>
      </trkpt>
      <trkpt lat="47.2311" lon="6.02599">
        <ele>249</ele>
        <time>2014-3-1T14:55:39.000Z</time>
      </trkpt>
      <trkpt lat="47.23116" lon="6.02592">
        <ele>251</ele>
        <time>2014-3-1T14:55:39.000Z</time>
      </trkpt>
      <trkpt lat="47.23116" lon="6.02592">
        <ele>251</ele>
        <time>2014-3-1T14:55:39.000Z</time>
      </trkpt>
      <trkpt lat="47.23122" lon="6.02589">
        <ele>252</ele>
        <time>2014-3-1T14:55:39.000Z</time>
      </trkpt>
      <trkpt lat="47.23122" lon="6.02589">
        <ele>252</ele>
        <time>2014-3-1T14:58:20.000Z</time>
      </trkpt>
      <trkpt lat="47.23129" lon="6.02587">
        <ele>251</ele>
        <time>2014-3-1T14:58:20.000Z</time>
      </trkpt>
      <trkpt lat="47.23129" lon="6.02587">
        <ele>251</ele>
        <time>2014-3-1T14:58:20.000Z</time>
      </trkpt>
      <trkpt lat="47.23135" lon="6.02584">
        <ele>253</ele>
        <time>2014-3-1T14:58:20.000Z</time>
      </trkpt>
      <trkpt lat="47.23135" lon="6.02584">
        <ele>253</ele>
        <time>2014-3-1T14:58:20.000Z</time>
      </trkpt>
      <trkpt lat="47.23144" lon="6.0258">
        <ele>254</ele>
        <time>2014-3-1T14:58:20.000Z</time>
      </trkpt>
      <trkpt lat="47.23144" lon="6.0258">
        <ele>254</ele>
        <time>2014-3-1T14:58:20.000Z</time>
      </trkpt>
      <trkpt lat="47.2315" lon="6.02582">
        <ele>253</ele>
        <time>2014-3-1T14:58:20.000Z</time>
      </trkpt>
      <trkpt lat="47.2315" lon="6.02582">
        <ele>253</ele>
        <time>2014-3-1T14:58:20.000Z</time>
      </trkpt>
      <trkpt lat="47.23153" lon="6.02592">
        <ele>251</ele>
        <time>2014-3-1T14:58:20.000Z</time>
      </trkpt>
      <trkpt lat="47.23153" lon="6.02592">
        <ele>251</ele>
        <time>2014-3-1T14:58:20.000Z</time>
      </trkpt>
      <trkpt lat="47.2315" lon="6.02579">
        <ele>248</ele>
        <time>2014-3-1T14:58:20.000Z</time>
      </trkpt>
      <trkpt lat="47.2315" lon="6.02579">
        <ele>248</ele>
        <time>2014-3-1T14:58:20.000Z</time>
      </trkpt>
      <trkpt lat="47.23145" lon="6.02575">
        <ele>249</ele>
        <time>2014-3-1T14:58:20.000Z</time>
      </trkpt>
      <trkpt lat="47.23145" lon="6.02575">
        <ele>249</ele>
        <time>2014-3-1T14:58:20.000Z</time>
      </trkpt>
      <trkpt lat="47.23138" lon="6.02577">
        <ele>251</ele>
        <time>2014-3-1T14:58:20.000Z</time>
      </trkpt>
      <trkpt lat="47.23138" lon="6.02577">
        <ele>251</ele>
        <time>2014-3-1T14:58:20.000Z</time>
      </trkpt>
      <trkpt lat="47.23132" lon="6.0258">
        <ele>252</ele>
        <time>2014-3-1T14:58:20.000Z</time>
      </trkpt>
      <trkpt lat="47.23132" lon="6.0258">
        <ele>252</ele>
        <time>2014-3-1T14:58:20.000Z</time>
      </trkpt>
      <trkpt lat="47.23125" lon="6.02586">
        <ele>252</ele>
        <time>2014-3-1T14:58:20.000Z</time>
      </trkpt>
      <trkpt lat="47.23125" lon="6.02586">
        <ele>252</ele>
        <time>2014-3-1T14:58:20.000Z</time>
      </trkpt>
      <trkpt lat="47.23117" lon="6.02591">
        <ele>252</ele>
        <time>2014-3-1T14:58:20.000Z</time>
      </trkpt>
      <trkpt lat="47.23117" lon="6.02591">
        <ele>252</ele>
        <time>2014-3-1T14:58:20.000Z</time>
      </trkpt>
      <trkpt lat="47.23111" lon="6.02601">
        <ele>256</ele>
        <time>2014-3-1T14:58:20.000Z</time>
      </trkpt>
      <trkpt lat="47.23111" lon="6.02601">
        <ele>256</ele>
        <time>2014-3-1T14:58:20.000Z</time>
      </trkpt>
      <trkpt lat="47.23105" lon="6.02609">
        <ele>258</ele>
        <time>2014-3-1T14:58:20.000Z</time>
      </trkpt>
      <trkpt lat="47.23105" lon="6.02609">
        <ele>258</ele>
        <time>2014-3-1T14:58:20.000Z</time>
      </trkpt>
      <trkpt lat="47.23099" lon="6.02604">
        <ele>255</ele>
        <time>2014-3-1T14:58:20.000Z</time>
      </trkpt>
      <trkpt lat="47.23099" lon="6.02604">
        <ele>255</ele>
        <time>2014-3-1T14:58:20.000Z</time>
      </trkpt>
      <trkpt lat="47.23094" lon="6.02596">
        <ele>255</ele>
        <time>2014-3-1T14:58:20.000Z</time>
      </trkpt>
      <trkpt lat="47.23094" lon="6.02596">
        <ele>255</ele>
        <time>2014-3-1T14:58:20.000Z</time>
      </trkpt>
      <trkpt lat="47.23088" lon="6.02586">
        <ele>247</ele>
        <time>2014-3-1T14:58:20.000Z</time>
      </trkpt>
      <trkpt lat="47.23088" lon="6.02586">
        <ele>247</ele>
        <time>2014-3-1T14:58:20.000Z</time>
      </trkpt>
      <trkpt lat="47.23085" lon="6.02576">
        <ele>245</ele>
        <time>2014-3-1T14:58:20.000Z</time>
      </trkpt>
      <trkpt lat="47.23085" lon="6.02576">
        <ele>245</ele>
        <time>2014-3-1T14:58:20.000Z</time>
      </trkpt>
      <trkpt lat="47.23084" lon="6.02563">
        <ele>244</ele>
        <time>2014-3-1T14:58:20.000Z</time>
      </trkpt>
      <trkpt lat="47.23084" lon="6.02563">
        <ele>244</ele>
        <time>2014-3-1T14:58:20.000Z</time>
      </trkpt>
      <trkpt lat="47.23086" lon="6.02549">
        <ele>245</ele>
        <time>2014-3-1T14:58:20.000Z</time>
      </trkpt>
      <trkpt lat="47.23086" lon="6.02549">
        <ele>245</ele>
        <time>2014-3-1T14:58:20.000Z</time>
      </trkpt>
      <trkpt lat="47.2309" lon="6.02537">
        <ele>246</ele>
        <time>2014-3-1T14:58:20.000Z</time>
      </trkpt>
      <trkpt lat="47.2309" lon="6.02537">
        <ele>246</ele>
        <time>2014-3-1T14:58:20.000Z</time>
      </trkpt>
      <trkpt lat="47.23095" lon="6.02526">
        <ele>246</ele>
        <time>2014-3-1T14:58:20.000Z</time>
      </trkpt>
      <trkpt lat="47.23095" lon="6.02526">
        <ele>246</ele>
        <time>2014-3-1T14:58:20.000Z</time>
      </trkpt>
      <trkpt lat="47.23098" lon="6.02518">
        <ele>247</ele>
        <time>2014-3-1T14:58:20.000Z</time>
      </trkpt>
      <trkpt lat="47.23098" lon="6.02518">
        <ele>247</ele>
        <time>2014-3-1T14:58:20.000Z</time>
      </trkpt>
      <trkpt lat="47.23101" lon="6.02506">
        <ele>246</ele>
        <time>2014-3-1T14:58:20.000Z</time>
      </trkpt>
      <trkpt lat="47.23101" lon="6.02506">
        <ele>246</ele>
        <time>2014-3-1T14:58:20.000Z</time>
      </trkpt>
      <trkpt lat="47.23103" lon="6.02494">
        <ele>245</ele>
        <time>2014-3-1T14:58:20.000Z</time>
      </trkpt>
      <trkpt lat="47.23103" lon="6.02494">
        <ele>245</ele>
        <time>2014-3-1T14:58:20.000Z</time>
      </trkpt>
      <trkpt lat="47.23106" lon="6.02481">
        <ele>244</ele>
        <time>2014-3-1T14:58:20.000Z</time>
      </trkpt>
      <trkpt lat="47.23106" lon="6.02481">
        <ele>244</ele>
        <time>2014-3-1T14:58:20.000Z</time>
      </trkpt>
      <trkpt lat="47.23108" lon="6.02471">
        <ele>244</ele>
        <time>2014-3-1T14:58:20.000Z</time>
      </trkpt>
      <trkpt lat="47.23108" lon="6.02471">
        <ele>244</ele>
        <time>2014-3-1T14:58:20.000Z</time>
      </trkpt>
      <trkpt lat="47.2311" lon="6.02462">
        <ele>244</ele>
        <time>2014-3-1T14:58:20.000Z</time>
      </trkpt>
      <trkpt lat="47.2311" lon="6.02462">
        <ele>244</ele>
        <time>2014-3-1T14:58:20.000Z</time>
      </trkpt>
      <trkpt lat="47.23113" lon="6.02453">
        <ele>245</ele>
        <time>2014-3-1T14:58:20.000Z</time>
      </trkpt>
      <trkpt lat="47.23113" lon="6.02453">
        <ele>245</ele>
        <time>2014-3-1T14:58:20.000Z</time>
      </trkpt>
      <trkpt lat="47.23116" lon="6.02444">
        <ele>245</ele>
        <time>2014-3-1T14:58:20.000Z</time>
      </trkpt>
      <trkpt lat="47.23116" lon="6.02444">
        <ele>245</ele>
        <time>2014-3-1T14:58:20.000Z</time>
      </trkpt>
      <trkpt lat="47.23118" lon="6.02435">
        <ele>245</ele>
        <time>2014-3-1T14:58:20.000Z</time>
      </trkpt>
      <trkpt lat="47.23118" lon="6.02435">
        <ele>245</ele>
        <time>2014-3-1T14:58:20.000Z</time>
      </trkpt>
      <trkpt lat="47.23116" lon="6.02424">
        <ele>245</ele>
        <time>2014-3-1T14:58:20.000Z</time>
      </trkpt>
      <trkpt lat="47.23116" lon="6.02424">
        <ele>245</ele>
        <time>2014-3-1T14:58:20.000Z</time>
      </trkpt>
      <trkpt lat="47.23109" lon="6.0242">
        <ele>246</ele>
        <time>2014-3-1T14:58:20.000Z</time>
      </trkpt>
      <trkpt lat="47.23109" lon="6.0242">
        <ele>246</ele>
        <time>2014-3-1T14:58:20.000Z</time>
      </trkpt>
      <trkpt lat="47.23101" lon="6.02417">
        <ele>244</ele>
        <time>2014-3-1T14:58:20.000Z</time>
      </trkpt>
      <trkpt lat="47.23101" lon="6.02417">
        <ele>244</ele>
        <time>2014-3-1T14:58:20.000Z</time>
      </trkpt>
      <trkpt lat="47.23094" lon="6.02415">
        <ele>242</ele>
        <time>2014-3-1T14:58:20.000Z</time>
      </trkpt>
      <trkpt lat="47.23094" lon="6.02415">
        <ele>242</ele>
        <time>2014-3-1T14:58:20.000Z</time>
      </trkpt>
      <trkpt lat="47.23087" lon="6.02412">
        <ele>241</ele>
        <time>2014-3-1T14:58:20.000Z</time>
      </trkpt>
      <trkpt lat="47.23087" lon="6.02412">
        <ele>241</ele>
        <time>2014-3-1T14:58:20.000Z</time>
      </trkpt>
      <trkpt lat="47.23082" lon="6.02405">
        <ele>242</ele>
        <time>2014-3-1T14:58:20.000Z</time>
      </trkpt>
      <trkpt lat="47.23082" lon="6.02405">
        <ele>242</ele>
        <time>2014-3-1T14:58:20.000Z</time>
      </trkpt>
      <trkpt lat="47.23082" lon="6.02395">
        <ele>240</ele>
        <time>2014-3-1T14:58:20.000Z</time>
      </trkpt>
      <trkpt lat="47.23082" lon="6.02395">
        <ele>240</ele>
        <time>2014-3-1T14:58:20.000Z</time>
      </trkpt>
      <trkpt lat="47.23082" lon="6.02382">
        <ele>240</ele>
        <time>2014-3-1T14:58:20.000Z</time>
      </trkpt>
      <trkpt lat="47.23082" lon="6.02382">
        <ele>240</ele>
        <time>2014-3-1T14:58:20.000Z</time>
      </trkpt>
      <trkpt lat="47.23081" lon="6.0237">
        <ele>240</ele>
        <time>2014-3-1T14:58:20.000Z</time>
      </trkpt>
      <trkpt lat="47.23081" lon="6.0237">
        <ele>240</ele>
        <time>2014-3-1T14:58:20.000Z</time>
      </trkpt>
      <trkpt lat="47.23083" lon="6.02359">
        <ele>240</ele>
        <time>2014-3-1T14:58:20.000Z</time>
      </trkpt>
      <trkpt lat="47.23083" lon="6.02359">
        <ele>240</ele>
        <time>2014-3-1T14:58:20.000Z</time>
      </trkpt>
      <trkpt lat="47.23086" lon="6.02348">
        <ele>240</ele>
        <time>2014-3-1T14:58:20.000Z</time>
      </trkpt>
      <trkpt lat="47.23086" lon="6.02348">
        <ele>240</ele>
        <time>2014-3-1T14:58:20.000Z</time>
      </trkpt>
      <trkpt lat="47.23088" lon="6.02338">
        <ele>241</ele>
        <time>2014-3-1T14:58:20.000Z</time>
      </trkpt>
      <trkpt lat="47.23088" lon="6.02338">
        <ele>241</ele>
        <time>2014-3-1T14:58:20.000Z</time>
      </trkpt>
      <trkpt lat="47.23083" lon="6.0233">
        <ele>240</ele>
        <time>2014-3-1T14:58:20.000Z</time>
      </trkpt>
      <trkpt lat="47.23083" lon="6.0233">
        <ele>240</ele>
        <time>2014-3-1T14:58:20.000Z</time>
      </trkpt>
      <trkpt lat="47.23079" lon="6.02321">
        <ele>241</ele>
        <time>2014-3-1T14:58:20.000Z</time>
      </trkpt>
      <trkpt lat="47.23079" lon="6.02321">
        <ele>241</ele>
        <time>2014-3-1T14:58:20.000Z</time>
      </trkpt>
      <trkpt lat="47.23081" lon="6.02309">
        <ele>241</ele>
        <time>2014-3-1T14:58:20.000Z</time>
      </trkpt>
      <trkpt lat="47.23081" lon="6.02309">
        <ele>241</ele>
        <time>2014-3-1T14:58:20.000Z</time>
      </trkpt>
      <trkpt lat="47.23087" lon="6.02298">
        <ele>239</ele>
        <time>2014-3-1T14:58:20.000Z</time>
      </trkpt>
      <trkpt lat="47.23087" lon="6.02298">
        <ele>239</ele>
        <time>2014-3-1T14:58:20.000Z</time>
      </trkpt>
      <trkpt lat="47.23092" lon="6.02288">
        <ele>239</ele>
        <time>2014-3-1T14:58:20.000Z</time>
      </trkpt>
      <trkpt lat="47.23092" lon="6.02288">
        <ele>239</ele>
        <time>2014-3-1T14:58:20.000Z</time>
      </trkpt>
      <trkpt lat="47.231" lon="6.02282">
        <ele>238</ele>
        <time>2014-3-1T14:58:20.000Z</time>
      </trkpt>
      <trkpt lat="47.231" lon="6.02282">
        <ele>238</ele>
        <time>2014-3-1T14:58:20.000Z</time>
      </trkpt>
      <trkpt lat="47.23106" lon="6.02278">
        <ele>239</ele>
        <time>2014-3-1T14:58:20.000Z</time>
      </trkpt>
      <trkpt lat="47.23106" lon="6.02278">
        <ele>239</ele>
        <time>2014-3-1T14:58:20.000Z</time>
      </trkpt>
      <trkpt lat="47.23112" lon="6.02275">
        <ele>239</ele>
        <time>2014-3-1T14:58:20.000Z</time>
      </trkpt>
      <trkpt lat="47.23112" lon="6.02275">
        <ele>239</ele>
        <time>2014-3-1T14:58:20.000Z</time>
      </trkpt>
      <trkpt lat="47.23119" lon="6.02276">
        <ele>239</ele>
        <time>2014-3-1T15:1:18.000Z</time>
      </trkpt>
      <trkpt lat="47.23119" lon="6.02276">
        <ele>239</ele>
        <time>2014-3-1T15:1:18.000Z</time>
      </trkpt>
      <trkpt lat="47.23127" lon="6.02277">
        <ele>240</ele>
        <time>2014-3-1T15:1:18.000Z</time>
      </trkpt>
      <trkpt lat="47.23127" lon="6.02277">
        <ele>240</ele>
        <time>2014-3-1T15:1:18.000Z</time>
      </trkpt>
      <trkpt lat="47.23134" lon="6.02276">
        <ele>239</ele>
        <time>2014-3-1T15:1:18.000Z</time>
      </trkpt>
      <trkpt lat="47.23134" lon="6.02276">
        <ele>239</ele>
        <time>2014-3-1T15:1:18.000Z</time>
      </trkpt>
      <trkpt lat="47.23138" lon="6.02269">
        <ele>242</ele>
        <time>2014-3-1T15:1:18.000Z</time>
      </trkpt>
      <trkpt lat="47.23138" lon="6.02269">
        <ele>242</ele>
        <time>2014-3-1T15:1:18.000Z</time>
      </trkpt>
      <trkpt lat="47.23137" lon="6.02259">
        <ele>244</ele>
        <time>2014-3-1T15:1:18.000Z</time>
      </trkpt>
      <trkpt lat="47.23137" lon="6.02259">
        <ele>244</ele>
        <time>2014-3-1T15:1:18.000Z</time>
      </trkpt>
      <trkpt lat="47.23136" lon="6.02249">
        <ele>244</ele>
        <time>2014-3-1T15:1:18.000Z</time>
      </trkpt>
      <trkpt lat="47.23136" lon="6.02249">
        <ele>244</ele>
        <time>2014-3-1T15:1:18.000Z</time>
      </trkpt>
      <trkpt lat="47.23135" lon="6.02239">
        <ele>245</ele>
        <time>2014-3-1T15:1:18.000Z</time>
      </trkpt>
      <trkpt lat="47.23135" lon="6.02239">
        <ele>245</ele>
        <time>2014-3-1T15:1:18.000Z</time>
      </trkpt>
      <trkpt lat="47.23134" lon="6.02226">
        <ele>244</ele>
        <time>2014-3-1T15:1:18.000Z</time>
      </trkpt>
      <trkpt lat="47.23134" lon="6.02226">
        <ele>244</ele>
        <time>2014-3-1T15:1:18.000Z</time>
      </trkpt>
      <trkpt lat="47.23131" lon="6.02213">
        <ele>243</ele>
        <time>2014-3-1T15:1:18.000Z</time>
      </trkpt>
      <trkpt lat="47.23131" lon="6.02213">
        <ele>243</ele>
        <time>2014-3-1T15:1:18.000Z</time>
      </trkpt>
      <trkpt lat="47.2313" lon="6.02203">
        <ele>244</ele>
        <time>2014-3-1T15:1:18.000Z</time>
      </trkpt>
      <trkpt lat="47.2313" lon="6.02203">
        <ele>244</ele>
        <time>2014-3-1T15:1:18.000Z</time>
      </trkpt>
      <trkpt lat="47.2313" lon="6.02194">
        <ele>244</ele>
        <time>2014-3-1T15:1:18.000Z</time>
      </trkpt>
      <trkpt lat="47.2313" lon="6.02194">
        <ele>244</ele>
        <time>2014-3-1T15:1:18.000Z</time>
      </trkpt>
      <trkpt lat="47.23129" lon="6.0218">
        <ele>243</ele>
        <time>2014-3-1T15:1:18.000Z</time>
      </trkpt>
      <trkpt lat="47.23129" lon="6.0218">
        <ele>243</ele>
        <time>2014-3-1T15:1:18.000Z</time>
      </trkpt>
      <trkpt lat="47.23128" lon="6.0217">
        <ele>244</ele>
        <time>2014-3-1T15:1:18.000Z</time>
      </trkpt>
      <trkpt lat="47.23128" lon="6.0217">
        <ele>244</ele>
        <time>2014-3-1T15:1:18.000Z</time>
      </trkpt>
      <trkpt lat="47.23127" lon="6.02158">
        <ele>245</ele>
        <time>2014-3-1T15:1:18.000Z</time>
      </trkpt>
      <trkpt lat="47.23127" lon="6.02158">
        <ele>245</ele>
        <time>2014-3-1T15:1:18.000Z</time>
      </trkpt>
      <trkpt lat="47.2313" lon="6.0215">
        <ele>245</ele>
        <time>2014-3-1T15:1:18.000Z</time>
      </trkpt>
      <trkpt lat="47.2313" lon="6.0215">
        <ele>245</ele>
        <time>2014-3-1T15:1:18.000Z</time>
      </trkpt>
      <trkpt lat="47.23135" lon="6.02143">
        <ele>245</ele>
        <time>2014-3-1T15:1:18.000Z</time>
      </trkpt>
      <trkpt lat="47.23135" lon="6.02143">
        <ele>245</ele>
        <time>2014-3-1T15:1:18.000Z</time>
      </trkpt>
      <trkpt lat="47.2314" lon="6.02138">
        <ele>245</ele>
        <time>2014-3-1T15:1:18.000Z</time>
      </trkpt>
      <trkpt lat="47.2314" lon="6.02138">
        <ele>245</ele>
        <time>2014-3-1T15:1:18.000Z</time>
      </trkpt>
      <trkpt lat="47.23146" lon="6.02132">
        <ele>245</ele>
        <time>2014-3-1T15:1:18.000Z</time>
      </trkpt>
      <trkpt lat="47.23146" lon="6.02132">
        <ele>245</ele>
        <time>2014-3-1T15:1:18.000Z</time>
      </trkpt>
      <trkpt lat="47.23151" lon="6.02125">
        <ele>246</ele>
        <time>2014-3-1T15:1:18.000Z</time>
      </trkpt>
      <trkpt lat="47.23151" lon="6.02125">
        <ele>246</ele>
        <time>2014-3-1T15:1:18.000Z</time>
      </trkpt>
      <trkpt lat="47.2316" lon="6.02112">
        <ele>245</ele>
        <time>2014-3-1T15:1:18.000Z</time>
      </trkpt>
      <trkpt lat="47.2316" lon="6.02112">
        <ele>245</ele>
        <time>2014-3-1T15:1:18.000Z</time>
      </trkpt>
      <trkpt lat="47.23165" lon="6.02105">
        <ele>244</ele>
        <time>2014-3-1T15:1:18.000Z</time>
      </trkpt>
      <trkpt lat="47.23165" lon="6.02105">
        <ele>244</ele>
        <time>2014-3-1T15:1:18.000Z</time>
      </trkpt>
      <trkpt lat="47.2317" lon="6.02094">
        <ele>243</ele>
        <time>2014-3-1T15:1:18.000Z</time>
      </trkpt>
      <trkpt lat="47.2317" lon="6.02094">
        <ele>243</ele>
        <time>2014-3-1T15:1:18.000Z</time>
      </trkpt>
      <trkpt lat="47.23174" lon="6.02083">
        <ele>243</ele>
        <time>2014-3-1T15:1:18.000Z</time>
      </trkpt>
      <trkpt lat="47.23174" lon="6.02083">
        <ele>243</ele>
        <time>2014-3-1T15:1:18.000Z</time>
      </trkpt>
      <trkpt lat="47.2318" lon="6.02074">
        <ele>244</ele>
        <time>2014-3-1T15:1:18.000Z</time>
      </trkpt>
      <trkpt lat="47.2318" lon="6.02074">
        <ele>244</ele>
        <time>2014-3-1T15:1:18.000Z</time>
      </trkpt>
      <trkpt lat="47.23185" lon="6.02063">
        <ele>245</ele>
        <time>2014-3-1T15:1:18.000Z</time>
      </trkpt>
      <trkpt lat="47.23185" lon="6.02063">
        <ele>245</ele>
        <time>2014-3-1T15:1:18.000Z</time>
      </trkpt>
      <trkpt lat="47.23188" lon="6.02052">
        <ele>245</ele>
        <time>2014-3-1T15:1:18.000Z</time>
      </trkpt>
      <trkpt lat="47.23188" lon="6.02052">
        <ele>245</ele>
        <time>2014-3-1T15:1:18.000Z</time>
      </trkpt>
      <trkpt lat="47.23193" lon="6.02042">
        <ele>245</ele>
        <time>2014-3-1T15:1:18.000Z</time>
      </trkpt>
      <trkpt lat="47.23193" lon="6.02042">
        <ele>245</ele>
        <time>2014-3-1T15:1:18.000Z</time>
      </trkpt>
      <trkpt lat="47.23197" lon="6.02032">
        <ele>244</ele>
        <time>2014-3-1T15:1:18.000Z</time>
      </trkpt>
      <trkpt lat="47.23197" lon="6.02032">
        <ele>244</ele>
        <time>2014-3-1T15:1:18.000Z</time>
      </trkpt>
      <trkpt lat="47.23202" lon="6.02021">
        <ele>245</ele>
        <time>2014-3-1T15:1:18.000Z</time>
      </trkpt>
      <trkpt lat="47.23202" lon="6.02021">
        <ele>245</ele>
        <time>2014-3-1T15:1:18.000Z</time>
      </trkpt>
      <trkpt lat="47.23205" lon="6.02009">
        <ele>246</ele>
        <time>2014-3-1T15:1:18.000Z</time>
      </trkpt>
      <trkpt lat="47.23205" lon="6.02009">
        <ele>246</ele>
        <time>2014-3-1T15:1:18.000Z</time>
      </trkpt>
      <trkpt lat="47.23208" lon="6.01998">
        <ele>247</ele>
        <time>2014-3-1T15:1:18.000Z</time>
      </trkpt>
      <trkpt lat="47.23208" lon="6.01998">
        <ele>247</ele>
        <time>2014-3-1T15:1:18.000Z</time>
      </trkpt>
      <trkpt lat="47.23213" lon="6.01988">
        <ele>247</ele>
        <time>2014-3-1T15:1:18.000Z</time>
      </trkpt>
      <trkpt lat="47.23213" lon="6.01988">
        <ele>247</ele>
        <time>2014-3-1T15:1:18.000Z</time>
      </trkpt>
      <trkpt lat="47.23217" lon="6.01978">
        <ele>244</ele>
        <time>2014-3-1T15:1:18.000Z</time>
      </trkpt>
      <trkpt lat="47.23217" lon="6.01978">
        <ele>244</ele>
        <time>2014-3-1T15:1:18.000Z</time>
      </trkpt>
      <trkpt lat="47.23221" lon="6.01967">
        <ele>246</ele>
        <time>2014-3-1T15:1:18.000Z</time>
      </trkpt>
      <trkpt lat="47.23221" lon="6.01967">
        <ele>246</ele>
        <time>2014-3-1T15:1:18.000Z</time>
      </trkpt>
      <trkpt lat="47.23227" lon="6.0196">
        <ele>247</ele>
        <time>2014-3-1T15:1:18.000Z</time>
      </trkpt>
      <trkpt lat="47.23227" lon="6.0196">
        <ele>247</ele>
        <time>2014-3-1T15:1:18.000Z</time>
      </trkpt>
      <trkpt lat="47.23234" lon="6.01958">
        <ele>249</ele>
        <time>2014-3-1T15:1:18.000Z</time>
      </trkpt>
      <trkpt lat="47.23234" lon="6.01958">
        <ele>249</ele>
        <time>2014-3-1T15:1:18.000Z</time>
      </trkpt>
      <trkpt lat="47.2324" lon="6.01964">
        <ele>250</ele>
        <time>2014-3-1T15:1:18.000Z</time>
      </trkpt>
      <trkpt lat="47.2324" lon="6.01964">
        <ele>250</ele>
        <time>2014-3-1T15:1:18.000Z</time>
      </trkpt>
      <trkpt lat="47.23248" lon="6.01972">
        <ele>250</ele>
        <time>2014-3-1T15:1:18.000Z</time>
      </trkpt>
      <trkpt lat="47.23248" lon="6.01972">
        <ele>250</ele>
        <time>2014-3-1T15:1:18.000Z</time>
      </trkpt>
      <trkpt lat="47.23253" lon="6.01977">
        <ele>250</ele>
        <time>2014-3-1T15:1:18.000Z</time>
      </trkpt>
      <trkpt lat="47.23253" lon="6.01977">
        <ele>250</ele>
        <time>2014-3-1T15:1:18.000Z</time>
      </trkpt>
      <trkpt lat="47.23262" lon="6.01983">
        <ele>250</ele>
        <time>2014-3-1T15:1:18.000Z</time>
      </trkpt>
      <trkpt lat="47.23262" lon="6.01983">
        <ele>250</ele>
        <time>2014-3-1T15:1:18.000Z</time>
      </trkpt>
      <trkpt lat="47.23267" lon="6.01987">
        <ele>250</ele>
        <time>2014-3-1T15:1:18.000Z</time>
      </trkpt>
      <trkpt lat="47.23267" lon="6.01987">
        <ele>250</ele>
        <time>2014-3-1T15:1:18.000Z</time>
      </trkpt>
      <trkpt lat="47.23267" lon="6.01997">
        <ele>251</ele>
        <time>2014-3-1T15:1:18.000Z</time>
      </trkpt>
      <trkpt lat="47.23267" lon="6.01997">
        <ele>251</ele>
        <time>2014-3-1T15:1:18.000Z</time>
      </trkpt>
      <trkpt lat="47.23262" lon="6.02004">
        <ele>246</ele>
        <time>2014-3-1T15:1:18.000Z</time>
      </trkpt>
      <trkpt lat="47.23262" lon="6.02004">
        <ele>246</ele>
        <time>2014-3-1T15:1:18.000Z</time>
      </trkpt>
      <trkpt lat="47.23268" lon="6.0201">
        <ele>245</ele>
        <time>2014-3-1T15:1:18.000Z</time>
      </trkpt>
      <trkpt lat="47.23268" lon="6.0201">
        <ele>245</ele>
        <time>2014-3-1T15:1:18.000Z</time>
      </trkpt>
      <trkpt lat="47.23274" lon="6.02014">
        <ele>245</ele>
        <time>2014-3-1T15:1:18.000Z</time>
      </trkpt>
      <trkpt lat="47.23274" lon="6.02014">
        <ele>245</ele>
        <time>2014-3-1T15:1:18.000Z</time>
      </trkpt>
      <trkpt lat="47.23274" lon="6.02024">
        <ele>243</ele>
        <time>2014-3-1T15:1:18.000Z</time>
      </trkpt>
      <trkpt lat="47.23274" lon="6.02024">
        <ele>243</ele>
        <time>2014-3-1T15:1:18.000Z</time>
      </trkpt>
      <trkpt lat="47.23273" lon="6.02035">
        <ele>245</ele>
        <time>2014-3-1T15:1:18.000Z</time>
      </trkpt>
      <trkpt lat="47.23273" lon="6.02035">
        <ele>245</ele>
        <time>2014-3-1T15:1:18.000Z</time>
      </trkpt>
      <trkpt lat="47.23271" lon="6.02046">
        <ele>246</ele>
        <time>2014-3-1T15:1:18.000Z</time>
      </trkpt>
      <trkpt lat="47.23271" lon="6.02046">
        <ele>246</ele>
        <time>2014-3-1T15:1:18.000Z</time>
      </trkpt>
      <trkpt lat="47.23268" lon="6.02058">
        <ele>245</ele>
        <time>2014-3-1T15:1:18.000Z</time>
      </trkpt>
      <trkpt lat="47.23268" lon="6.02058">
        <ele>245</ele>
        <time>2014-3-1T15:1:18.000Z</time>
      </trkpt>
      <trkpt lat="47.23266" lon="6.0207">
        <ele>246</ele>
        <time>2014-3-1T15:1:18.000Z</time>
      </trkpt>
      <trkpt lat="47.23266" lon="6.0207">
        <ele>246</ele>
        <time>2014-3-1T15:1:18.000Z</time>
      </trkpt>
      <trkpt lat="47.23264" lon="6.02083">
        <ele>246</ele>
        <time>2014-3-1T15:1:18.000Z</time>
      </trkpt>
      <trkpt lat="47.23264" lon="6.02083">
        <ele>246</ele>
        <time>2014-3-1T15:4:12.000Z</time>
      </trkpt>
      <trkpt lat="47.2326" lon="6.02095">
        <ele>245</ele>
        <time>2014-3-1T15:4:12.000Z</time>
      </trkpt>
      <trkpt lat="47.2326" lon="6.02095">
        <ele>245</ele>
        <time>2014-3-1T15:4:12.000Z</time>
      </trkpt>
      <trkpt lat="47.23256" lon="6.02107">
        <ele>243</ele>
        <time>2014-3-1T15:4:12.000Z</time>
      </trkpt>
      <trkpt lat="47.23256" lon="6.02107">
        <ele>243</ele>
        <time>2014-3-1T15:4:12.000Z</time>
      </trkpt>
      <trkpt lat="47.23254" lon="6.02119">
        <ele>244</ele>
        <time>2014-3-1T15:4:12.000Z</time>
      </trkpt>
      <trkpt lat="47.23254" lon="6.02119">
        <ele>244</ele>
        <time>2014-3-1T15:4:12.000Z</time>
      </trkpt>
      <trkpt lat="47.2325" lon="6.02132">
        <ele>246</ele>
        <time>2014-3-1T15:4:12.000Z</time>
      </trkpt>
      <trkpt lat="47.2325" lon="6.02132">
        <ele>246</ele>
        <time>2014-3-1T15:4:12.000Z</time>
      </trkpt>
      <trkpt lat="47.23247" lon="6.02144">
        <ele>244</ele>
        <time>2014-3-1T15:4:12.000Z</time>
      </trkpt>
      <trkpt lat="47.23247" lon="6.02144">
        <ele>244</ele>
        <time>2014-3-1T15:4:12.000Z</time>
      </trkpt>
      <trkpt lat="47.23245" lon="6.02153">
        <ele>244</ele>
        <time>2014-3-1T15:4:12.000Z</time>
      </trkpt>
      <trkpt lat="47.23245" lon="6.02153">
        <ele>244</ele>
        <time>2014-3-1T15:4:12.000Z</time>
      </trkpt>
      <trkpt lat="47.23244" lon="6.02163">
        <ele>244</ele>
        <time>2014-3-1T15:4:12.000Z</time>
      </trkpt>
      <trkpt lat="47.23244" lon="6.02163">
        <ele>244</ele>
        <time>2014-3-1T15:4:12.000Z</time>
      </trkpt>
      <trkpt lat="47.23239" lon="6.02174">
        <ele>243</ele>
        <time>2014-3-1T15:4:12.000Z</time>
      </trkpt>
      <trkpt lat="47.23239" lon="6.02174">
        <ele>243</ele>
        <time>2014-3-1T15:4:12.000Z</time>
      </trkpt>
      <trkpt lat="47.23232" lon="6.0218">
        <ele>243</ele>
        <time>2014-3-1T15:4:12.000Z</time>
      </trkpt>
      <trkpt lat="47.23232" lon="6.0218">
        <ele>243</ele>
        <time>2014-3-1T15:4:12.000Z</time>
      </trkpt>
      <trkpt lat="47.23229" lon="6.0219">
        <ele>244</ele>
        <time>2014-3-1T15:4:12.000Z</time>
      </trkpt>
      <trkpt lat="47.23229" lon="6.0219">
        <ele>244</ele>
        <time>2014-3-1T15:4:12.000Z</time>
      </trkpt>
      <trkpt lat="47.23224" lon="6.022">
        <ele>246</ele>
        <time>2014-3-1T15:4:12.000Z</time>
      </trkpt>
      <trkpt lat="47.23224" lon="6.022">
        <ele>246</ele>
        <time>2014-3-1T15:4:12.000Z</time>
      </trkpt>
      <trkpt lat="47.23218" lon="6.02207">
        <ele>246</ele>
        <time>2014-3-1T15:4:12.000Z</time>
      </trkpt>
      <trkpt lat="47.23218" lon="6.02207">
        <ele>246</ele>
        <time>2014-3-1T15:4:12.000Z</time>
      </trkpt>
      <trkpt lat="47.23215" lon="6.02217">
        <ele>247</ele>
        <time>2014-3-1T15:4:12.000Z</time>
      </trkpt>
      <trkpt lat="47.23215" lon="6.02217">
        <ele>247</ele>
        <time>2014-3-1T15:4:12.000Z</time>
      </trkpt>
      <trkpt lat="47.23213" lon="6.02226">
        <ele>244</ele>
        <time>2014-3-1T15:4:12.000Z</time>
      </trkpt>
      <trkpt lat="47.23213" lon="6.02226">
        <ele>244</ele>
        <time>2014-3-1T15:4:12.000Z</time>
      </trkpt>
      <trkpt lat="47.23219" lon="6.02231">
        <ele>240</ele>
        <time>2014-3-1T15:4:12.000Z</time>
      </trkpt>
      <trkpt lat="47.23219" lon="6.02231">
        <ele>240</ele>
        <time>2014-3-1T15:4:12.000Z</time>
      </trkpt>
      <trkpt lat="47.23225" lon="6.02234">
        <ele>240</ele>
        <time>2014-3-1T15:4:12.000Z</time>
      </trkpt>
      <trkpt lat="47.23225" lon="6.02234">
        <ele>240</ele>
        <time>2014-3-1T15:4:12.000Z</time>
      </trkpt>
      <trkpt lat="47.23226" lon="6.02245">
        <ele>238</ele>
        <time>2014-3-1T15:4:12.000Z</time>
      </trkpt>
      <trkpt lat="47.23226" lon="6.02245">
        <ele>238</ele>
        <time>2014-3-1T15:4:12.000Z</time>
      </trkpt>
      <trkpt lat="47.23222" lon="6.02251">
        <ele>238</ele>
        <time>2014-3-1T15:4:12.000Z</time>
      </trkpt>
      <trkpt lat="47.23222" lon="6.02251">
        <ele>238</ele>
        <time>2014-3-1T15:4:12.000Z</time>
      </trkpt>
      <trkpt lat="47.23217" lon="6.02257">
        <ele>239</ele>
        <time>2014-3-1T15:4:12.000Z</time>
      </trkpt>
      <trkpt lat="47.23217" lon="6.02257">
        <ele>239</ele>
        <time>2014-3-1T15:4:12.000Z</time>
      </trkpt>
      <trkpt lat="47.2322" lon="6.02265">
        <ele>237</ele>
        <time>2014-3-1T15:4:12.000Z</time>
      </trkpt>
      <trkpt lat="47.2322" lon="6.02265">
        <ele>237</ele>
        <time>2014-3-1T15:4:12.000Z</time>
      </trkpt>
      <trkpt lat="47.2322" lon="6.02276">
        <ele>239</ele>
        <time>2014-3-1T15:4:12.000Z</time>
      </trkpt>
      <trkpt lat="47.2322" lon="6.02276">
        <ele>239</ele>
        <time>2014-3-1T15:4:12.000Z</time>
      </trkpt>
      <trkpt lat="47.23218" lon="6.02285">
        <ele>239</ele>
        <time>2014-3-1T15:4:12.000Z</time>
      </trkpt>
      <trkpt lat="47.23218" lon="6.02285">
        <ele>239</ele>
        <time>2014-3-1T15:4:12.000Z</time>
      </trkpt>
      <trkpt lat="47.23212" lon="6.02295">
        <ele>239</ele>
        <time>2014-3-1T15:4:12.000Z</time>
      </trkpt>
      <trkpt lat="47.23212" lon="6.02295">
        <ele>239</ele>
        <time>2014-3-1T15:4:12.000Z</time>
      </trkpt>
      <trkpt lat="47.23209" lon="6.02306">
        <ele>241</ele>
        <time>2014-3-1T15:4:12.000Z</time>
      </trkpt>
      <trkpt lat="47.23209" lon="6.02306">
        <ele>241</ele>
        <time>2014-3-1T15:4:12.000Z</time>
      </trkpt>
      <trkpt lat="47.23204" lon="6.02317">
        <ele>242</ele>
        <time>2014-3-1T15:4:12.000Z</time>
      </trkpt>
      <trkpt lat="47.23204" lon="6.02317">
        <ele>242</ele>
        <time>2014-3-1T15:4:12.000Z</time>
      </trkpt>
      <trkpt lat="47.23198" lon="6.02327">
        <ele>242</ele>
        <time>2014-3-1T15:4:12.000Z</time>
      </trkpt>
      <trkpt lat="47.23198" lon="6.02327">
        <ele>242</ele>
        <time>2014-3-1T15:4:12.000Z</time>
      </trkpt>
      <trkpt lat="47.23192" lon="6.02334">
        <ele>244</ele>
        <time>2014-3-1T15:4:12.000Z</time>
      </trkpt>
      <trkpt lat="47.23192" lon="6.02334">
        <ele>244</ele>
        <time>2014-3-1T15:4:12.000Z</time>
      </trkpt>
      <trkpt lat="47.23187" lon="6.02342">
        <ele>243</ele>
        <time>2014-3-1T15:4:12.000Z</time>
      </trkpt>
      <trkpt lat="47.23187" lon="6.02342">
        <ele>243</ele>
        <time>2014-3-1T15:4:12.000Z</time>
      </trkpt>
      <trkpt lat="47.23182" lon="6.02347">
        <ele>243</ele>
        <time>2014-3-1T15:4:12.000Z</time>
      </trkpt>
      <trkpt lat="47.23182" lon="6.02347">
        <ele>243</ele>
        <time>2014-3-1T15:4:12.000Z</time>
      </trkpt>
      <trkpt lat="47.23175" lon="6.02349">
        <ele>244</ele>
        <time>2014-3-1T15:4:12.000Z</time>
      </trkpt>
      <trkpt lat="47.23175" lon="6.02349">
        <ele>244</ele>
        <time>2014-3-1T15:4:12.000Z</time>
      </trkpt>
      <trkpt lat="47.23167" lon="6.02355">
        <ele>242</ele>
        <time>2014-3-1T15:4:12.000Z</time>
      </trkpt>
      <trkpt lat="47.23167" lon="6.02355">
        <ele>242</ele>
        <time>2014-3-1T15:4:12.000Z</time>
      </trkpt>
      <trkpt lat="47.2316" lon="6.02359">
        <ele>242</ele>
        <time>2014-3-1T15:4:12.000Z</time>
      </trkpt>
      <trkpt lat="47.2316" lon="6.02359">
        <ele>242</ele>
        <time>2014-3-1T15:4:12.000Z</time>
      </trkpt>
      <trkpt lat="47.23156" lon="6.02366">
        <ele>242</ele>
        <time>2014-3-1T15:4:12.000Z</time>
      </trkpt>
      <trkpt lat="47.23156" lon="6.02366">
        <ele>242</ele>
        <time>2014-3-1T15:4:12.000Z</time>
      </trkpt>
      <trkpt lat="47.23151" lon="6.02376">
        <ele>242</ele>
        <time>2014-3-1T15:4:12.000Z</time>
      </trkpt>
      <trkpt lat="47.23151" lon="6.02376">
        <ele>242</ele>
        <time>2014-3-1T15:4:12.000Z</time>
      </trkpt>
      <trkpt lat="47.23145" lon="6.02383">
        <ele>242</ele>
        <time>2014-3-1T15:4:12.000Z</time>
      </trkpt>
      <trkpt lat="47.23145" lon="6.02383">
        <ele>242</ele>
        <time>2014-3-1T15:4:12.000Z</time>
      </trkpt>
      <trkpt lat="47.23147" lon="6.02394">
        <ele>243</ele>
        <time>2014-3-1T15:4:12.000Z</time>
      </trkpt>
      <trkpt lat="47.23147" lon="6.02394">
        <ele>243</ele>
        <time>2014-3-1T15:4:12.000Z</time>
      </trkpt>
      <trkpt lat="47.23153" lon="6.02402">
        <ele>243</ele>
        <time>2014-3-1T15:4:12.000Z</time>
      </trkpt>
      <trkpt lat="47.23153" lon="6.02402">
        <ele>243</ele>
        <time>2014-3-1T15:4:12.000Z</time>
      </trkpt>
      <trkpt lat="47.23153" lon="6.02411">
        <ele>243</ele>
        <time>2014-3-1T15:4:12.000Z</time>
      </trkpt>
      <trkpt lat="47.23153" lon="6.02411">
        <ele>243</ele>
        <time>2014-3-1T15:4:12.000Z</time>
      </trkpt>
      <trkpt lat="47.23154" lon="6.02422">
        <ele>244</ele>
        <time>2014-3-1T15:4:12.000Z</time>
      </trkpt>
      <trkpt lat="47.23154" lon="6.02422">
        <ele>244</ele>
        <time>2014-3-1T15:4:12.000Z</time>
      </trkpt>
      <trkpt lat="47.23157" lon="6.02434">
        <ele>240</ele>
        <time>2014-3-1T15:4:12.000Z</time>
      </trkpt>
      <trkpt lat="47.23157" lon="6.02434">
        <ele>240</ele>
        <time>2014-3-1T15:4:12.000Z</time>
      </trkpt>
      <trkpt lat="47.23165" lon="6.02437">
        <ele>240</ele>
        <time>2014-3-1T15:4:12.000Z</time>
      </trkpt>
      <trkpt lat="47.23165" lon="6.02437">
        <ele>240</ele>
        <time>2014-3-1T15:4:12.000Z</time>
      </trkpt>
      <trkpt lat="47.23174" lon="6.02439">
        <ele>240</ele>
        <time>2014-3-1T15:4:12.000Z</time>
      </trkpt>
      <trkpt lat="47.23174" lon="6.02439">
        <ele>240</ele>
        <time>2014-3-1T15:4:12.000Z</time>
      </trkpt>
      <trkpt lat="47.23182" lon="6.02438">
        <ele>242</ele>
        <time>2014-3-1T15:4:12.000Z</time>
      </trkpt>
      <trkpt lat="47.23182" lon="6.02438">
        <ele>242</ele>
        <time>2014-3-1T15:4:12.000Z</time>
      </trkpt>
      <trkpt lat="47.2319" lon="6.0244">
        <ele>242</ele>
        <time>2014-3-1T15:4:12.000Z</time>
      </trkpt>
      <trkpt lat="47.2319" lon="6.0244">
        <ele>242</ele>
        <time>2014-3-1T15:4:12.000Z</time>
      </trkpt>
      <trkpt lat="47.23196" lon="6.02444">
        <ele>243</ele>
        <time>2014-3-1T15:4:12.000Z</time>
      </trkpt>
      <trkpt lat="47.23196" lon="6.02444">
        <ele>243</ele>
        <time>2014-3-1T15:4:12.000Z</time>
      </trkpt>
      <trkpt lat="47.23203" lon="6.02454">
        <ele>246</ele>
        <time>2014-3-1T15:4:12.000Z</time>
      </trkpt>
      <trkpt lat="47.23203" lon="6.02454">
        <ele>246</ele>
        <time>2014-3-1T15:4:12.000Z</time>
      </trkpt>
      <trkpt lat="47.23209" lon="6.02464">
        <ele>246</ele>
        <time>2014-3-1T15:4:12.000Z</time>
      </trkpt>
      <trkpt lat="47.23209" lon="6.02464">
        <ele>246</ele>
        <time>2014-3-1T15:4:12.000Z</time>
      </trkpt>
      <trkpt lat="47.23216" lon="6.02478">
        <ele>247</ele>
        <time>2014-3-1T15:4:12.000Z</time>
      </trkpt>
      <trkpt lat="47.23216" lon="6.02478">
        <ele>247</ele>
        <time>2014-3-1T15:4:12.000Z</time>
      </trkpt>
      <trkpt lat="47.23221" lon="6.02489">
        <ele>248</ele>
        <time>2014-3-1T15:4:12.000Z</time>
      </trkpt>
      <trkpt lat="47.23221" lon="6.02489">
        <ele>248</ele>
        <time>2014-3-1T15:4:12.000Z</time>
      </trkpt>
      <trkpt lat="47.23228" lon="6.02495">
        <ele>247</ele>
        <time>2014-3-1T15:4:12.000Z</time>
      </trkpt>
      <trkpt lat="47.23228" lon="6.02495">
        <ele>247</ele>
        <time>2014-3-1T15:4:12.000Z</time>
      </trkpt>
      <trkpt lat="47.23235" lon="6.02502">
        <ele>248</ele>
        <time>2014-3-1T15:7:11.000Z</time>
      </trkpt>
      <trkpt lat="47.23235" lon="6.02502">
        <ele>248</ele>
        <time>2014-3-1T15:7:11.000Z</time>
      </trkpt>
      <trkpt lat="47.2324" lon="6.02512">
        <ele>250</ele>
        <time>2014-3-1T15:7:11.000Z</time>
      </trkpt>
      <trkpt lat="47.2324" lon="6.02512">
        <ele>250</ele>
        <time>2014-3-1T15:7:11.000Z</time>
      </trkpt>
      <trkpt lat="47.23246" lon="6.0252">
        <ele>251</ele>
        <time>2014-3-1T15:7:11.000Z</time>
      </trkpt>
      <trkpt lat="47.23246" lon="6.0252">
        <ele>251</ele>
        <time>2014-3-1T15:7:11.000Z</time>
      </trkpt>
      <trkpt lat="47.23253" lon="6.02528">
        <ele>252</ele>
        <time>2014-3-1T15:7:11.000Z</time>
      </trkpt>
      <trkpt lat="47.23253" lon="6.02528">
        <ele>252</ele>
        <time>2014-3-1T15:7:11.000Z</time>
      </trkpt>
      <trkpt lat="47.2326" lon="6.02535">
        <ele>253</ele>
        <time>2014-3-1T15:7:11.000Z</time>
      </trkpt>
      <trkpt lat="47.2326" lon="6.02535">
        <ele>253</ele>
        <time>2014-3-1T15:7:11.000Z</time>
      </trkpt>
      <trkpt lat="47.23266" lon="6.02542">
        <ele>255</ele>
        <time>2014-3-1T15:7:11.000Z</time>
      </trkpt>
      <trkpt lat="47.23266" lon="6.02542">
        <ele>255</ele>
        <time>2014-3-1T15:7:11.000Z</time>
      </trkpt>
      <trkpt lat="47.23271" lon="6.02549">
        <ele>255</ele>
        <time>2014-3-1T15:7:11.000Z</time>
      </trkpt>
      <trkpt lat="47.23271" lon="6.02549">
        <ele>255</ele>
        <time>2014-3-1T15:7:11.000Z</time>
      </trkpt>
      <trkpt lat="47.23277" lon="6.02555">
        <ele>255</ele>
        <time>2014-3-1T15:7:11.000Z</time>
      </trkpt>
      <trkpt lat="47.23277" lon="6.02555">
        <ele>255</ele>
        <time>2014-3-1T15:7:11.000Z</time>
      </trkpt>
      <trkpt lat="47.23284" lon="6.02561">
        <ele>252</ele>
        <time>2014-3-1T15:7:11.000Z</time>
      </trkpt>
      <trkpt lat="47.23284" lon="6.02561">
        <ele>252</ele>
        <time>2014-3-1T15:7:11.000Z</time>
      </trkpt>
      <trkpt lat="47.2329" lon="6.02568">
        <ele>250</ele>
        <time>2014-3-1T15:7:11.000Z</time>
      </trkpt>
      <trkpt lat="47.2329" lon="6.02568">
        <ele>250</ele>
        <time>2014-3-1T15:7:11.000Z</time>
      </trkpt>
      <trkpt lat="47.23296" lon="6.02579">
        <ele>251</ele>
        <time>2014-3-1T15:7:11.000Z</time>
      </trkpt>
      <trkpt lat="47.23296" lon="6.02579">
        <ele>251</ele>
        <time>2014-3-1T15:7:11.000Z</time>
      </trkpt>
      <trkpt lat="47.23304" lon="6.02586">
        <ele>251</ele>
        <time>2014-3-1T15:7:11.000Z</time>
      </trkpt>
      <trkpt lat="47.23304" lon="6.02586">
        <ele>251</ele>
        <time>2014-3-1T15:7:11.000Z</time>
      </trkpt>
      <trkpt lat="47.23308" lon="6.02593">
        <ele>251</ele>
        <time>2014-3-1T15:7:11.000Z</time>
      </trkpt>
      <trkpt lat="47.23308" lon="6.02593">
        <ele>251</ele>
        <time>2014-3-1T15:7:11.000Z</time>
      </trkpt>
      <trkpt lat="47.23313" lon="6.02603">
        <ele>251</ele>
        <time>2014-3-1T15:7:11.000Z</time>
      </trkpt>
      <trkpt lat="47.23313" lon="6.02603">
        <ele>251</ele>
        <time>2014-3-1T15:7:11.000Z</time>
      </trkpt>
      <trkpt lat="47.23318" lon="6.02613">
        <ele>251</ele>
        <time>2014-3-1T15:7:11.000Z</time>
      </trkpt>
      <trkpt lat="47.23318" lon="6.02613">
        <ele>251</ele>
        <time>2014-3-1T15:7:11.000Z</time>
      </trkpt>
      <trkpt lat="47.23323" lon="6.0262">
        <ele>250</ele>
        <time>2014-3-1T15:7:11.000Z</time>
      </trkpt>
      <trkpt lat="47.23323" lon="6.0262">
        <ele>250</ele>
        <time>2014-3-1T15:7:11.000Z</time>
      </trkpt>
      <trkpt lat="47.23329" lon="6.02628">
        <ele>250</ele>
        <time>2014-3-1T15:7:11.000Z</time>
      </trkpt>
      <trkpt lat="47.23329" lon="6.02628">
        <ele>250</ele>
        <time>2014-3-1T15:7:11.000Z</time>
      </trkpt>
      <trkpt lat="47.23336" lon="6.02636">
        <ele>251</ele>
        <time>2014-3-1T15:7:11.000Z</time>
      </trkpt>
      <trkpt lat="47.23336" lon="6.02636">
        <ele>251</ele>
        <time>2014-3-1T15:7:11.000Z</time>
      </trkpt>
      <trkpt lat="47.23342" lon="6.02642">
        <ele>252</ele>
        <time>2014-3-1T15:7:11.000Z</time>
      </trkpt>
      <trkpt lat="47.23342" lon="6.02642">
        <ele>252</ele>
        <time>2014-3-1T15:7:11.000Z</time>
      </trkpt>
      <trkpt lat="47.23347" lon="6.02649">
        <ele>252</ele>
        <time>2014-3-1T15:7:11.000Z</time>
      </trkpt>
      <trkpt lat="47.23347" lon="6.02649">
        <ele>252</ele>
        <time>2014-3-1T15:7:11.000Z</time>
      </trkpt>
      <trkpt lat="47.23354" lon="6.02657">
        <ele>252</ele>
        <time>2014-3-1T15:7:11.000Z</time>
      </trkpt>
      <trkpt lat="47.23354" lon="6.02657">
        <ele>252</ele>
        <time>2014-3-1T15:7:11.000Z</time>
      </trkpt>
      <trkpt lat="47.23361" lon="6.02664">
        <ele>252</ele>
        <time>2014-3-1T15:7:11.000Z</time>
      </trkpt>
      <trkpt lat="47.23361" lon="6.02664">
        <ele>252</ele>
        <time>2014-3-1T15:7:11.000Z</time>
      </trkpt>
      <trkpt lat="47.23366" lon="6.02671">
        <ele>252</ele>
        <time>2014-3-1T15:7:11.000Z</time>
      </trkpt>
      <trkpt lat="47.23366" lon="6.02671">
        <ele>252</ele>
        <time>2014-3-1T15:7:11.000Z</time>
      </trkpt>
      <trkpt lat="47.2337" lon="6.02682">
        <ele>251</ele>
        <time>2014-3-1T15:7:11.000Z</time>
      </trkpt>
      <trkpt lat="47.2337" lon="6.02682">
        <ele>251</ele>
        <time>2014-3-1T15:7:11.000Z</time>
      </trkpt>
      <trkpt lat="47.23373" lon="6.02691">
        <ele>249</ele>
        <time>2014-3-1T15:7:11.000Z</time>
      </trkpt>
      <trkpt lat="47.23373" lon="6.02691">
        <ele>249</ele>
        <time>2014-3-1T15:7:11.000Z</time>
      </trkpt>
      <trkpt lat="47.23367" lon="6.02697">
        <ele>250</ele>
        <time>2014-3-1T15:7:11.000Z</time>
      </trkpt>
      <trkpt lat="47.23367" lon="6.02697">
        <ele>250</ele>
        <time>2014-3-1T15:7:11.000Z</time>
      </trkpt>
      <trkpt lat="47.23358" lon="6.02703">
        <ele>250</ele>
        <time>2014-3-1T15:7:11.000Z</time>
      </trkpt>
      <trkpt lat="47.23358" lon="6.02703">
        <ele>250</ele>
        <time>2014-3-1T15:7:11.000Z</time>
      </trkpt>
      <trkpt lat="47.23352" lon="6.02708">
        <ele>250</ele>
        <time>2014-3-1T15:7:11.000Z</time>
      </trkpt>
      <trkpt lat="47.23352" lon="6.02708">
        <ele>250</ele>
        <time>2014-3-1T15:7:11.000Z</time>
      </trkpt>
      <trkpt lat="47.2335" lon="6.0271">
        <ele>250</ele>
        <time>2014-3-1T15:7:11.000Z</time>
      </trkpt>
      <trkpt lat="47.2335" lon="6.0271">
        <ele>250</ele>
        <time>2014-3-1T15:7:11.000Z</time>
      </trkpt>
      <trkpt lat="47.23344" lon="6.02718">
        <ele>251</ele>
        <time>2014-3-1T15:7:11.000Z</time>
      </trkpt>
      <trkpt lat="47.23344" lon="6.02718">
        <ele>251</ele>
        <time>2014-3-1T15:7:11.000Z</time>
      </trkpt>
      <trkpt lat="47.23339" lon="6.02724">
        <ele>251</ele>
        <time>2014-3-1T15:7:11.000Z</time>
      </trkpt>
      <trkpt lat="47.23339" lon="6.02724">
        <ele>251</ele>
        <time>2014-3-1T15:7:11.000Z</time>
      </trkpt>
      <trkpt lat="47.23332" lon="6.02726">
        <ele>260</ele>
        <time>2014-3-1T15:7:11.000Z</time>
      </trkpt>
      <trkpt lat="47.23332" lon="6.02726">
        <ele>260</ele>
        <time>2014-3-1T15:7:11.000Z</time>
      </trkpt>
      <trkpt lat="47.23326" lon="6.02727">
        <ele>264</ele>
        <time>2014-3-1T15:7:11.000Z</time>
      </trkpt>
      <trkpt lat="47.23326" lon="6.02727">
        <ele>264</ele>
        <time>2014-3-1T15:7:11.000Z</time>
      </trkpt>
      <trkpt lat="47.2333" lon="6.02733">
        <ele>265</ele>
        <time>2014-3-1T15:7:11.000Z</time>
      </trkpt>
      <trkpt lat="47.2333" lon="6.02733">
        <ele>265</ele>
        <time>2014-3-1T15:7:11.000Z</time>
      </trkpt>
      <trkpt lat="47.23332" lon="6.02735">
        <ele>265</ele>
        <time>2014-3-1T15:7:11.000Z</time>
      </trkpt>
      <trkpt lat="47.23332" lon="6.02735">
        <ele>265</ele>
        <time>2014-3-1T15:7:11.000Z</time>
      </trkpt>
      <trkpt lat="47.23334" lon="6.02737">
        <ele>265</ele>
        <time>2014-3-1T15:7:11.000Z</time>
      </trkpt>
      <trkpt lat="47.23334" lon="6.02737">
        <ele>265</ele>
        <time>2014-3-1T15:7:11.000Z</time>
      </trkpt>
      <trkpt lat="47.23331" lon="6.02747">
        <ele>265</ele>
        <time>2014-3-1T15:7:11.000Z</time>
      </trkpt>
      <trkpt lat="47.23331" lon="6.02747">
        <ele>265</ele>
        <time>2014-3-1T15:7:11.000Z</time>
      </trkpt>
      <trkpt lat="47.23329" lon="6.02752">
        <ele>265</ele>
        <time>2014-3-1T15:7:11.000Z</time>
      </trkpt>
      <trkpt lat="47.23329" lon="6.02752">
        <ele>265</ele>
        <time>2014-3-1T15:7:11.000Z</time>
      </trkpt>
      <trkpt lat="47.23323" lon="6.02755">
        <ele>265</ele>
        <time>2014-3-1T15:7:11.000Z</time>
      </trkpt>
      <trkpt lat="47.23323" lon="6.02755">
        <ele>265</ele>
        <time>2014-3-1T15:7:11.000Z</time>
      </trkpt>
      <trkpt lat="47.23316" lon="6.02762">
        <ele>263</ele>
        <time>2014-3-1T15:7:11.000Z</time>
      </trkpt>
      <trkpt lat="47.23316" lon="6.02762">
        <ele>263</ele>
        <time>2014-3-1T15:7:11.000Z</time>
      </trkpt>
      <trkpt lat="47.23309" lon="6.02768">
        <ele>264</ele>
        <time>2014-3-1T15:7:11.000Z</time>
      </trkpt>
      <trkpt lat="47.23309" lon="6.02768">
        <ele>264</ele>
        <time>2014-3-1T15:7:11.000Z</time>
      </trkpt>
      <trkpt lat="47.23303" lon="6.02776">
        <ele>264</ele>
        <time>2014-3-1T15:7:11.000Z</time>
      </trkpt>
      <trkpt lat="47.23303" lon="6.02776">
        <ele>264</ele>
        <time>2014-3-1T15:7:11.000Z</time>
      </trkpt>
      <trkpt lat="47.23296" lon="6.02784">
        <ele>264</ele>
        <time>2014-3-1T15:7:11.000Z</time>
      </trkpt>
      <trkpt lat="47.23296" lon="6.02784">
        <ele>264</ele>
        <time>2014-3-1T15:7:11.000Z</time>
      </trkpt>
      <trkpt lat="47.23294" lon="6.02786">
        <ele>263</ele>
        <time>2014-3-1T15:7:11.000Z</time>
      </trkpt>
      <trkpt lat="47.23294" lon="6.02786">
        <ele>263</ele>
        <time>2014-3-1T15:7:11.000Z</time>
      </trkpt>
      <trkpt lat="47.2329" lon="6.02796">
        <ele>267</ele>
        <time>2014-3-1T15:7:11.000Z</time>
      </trkpt>
      <trkpt lat="47.2329" lon="6.02796">
        <ele>267</ele>
        <time>2014-3-1T15:7:11.000Z</time>
      </trkpt>
      <trkpt lat="47.23286" lon="6.02806">
        <ele>268</ele>
        <time>2014-3-1T15:7:11.000Z</time>
      </trkpt>
      <trkpt lat="47.23286" lon="6.02806">
        <ele>268</ele>
        <time>2014-3-1T15:7:11.000Z</time>
      </trkpt>
      <trkpt lat="47.23289" lon="6.02818">
        <ele>265</ele>
        <time>2014-3-1T15:7:11.000Z</time>
      </trkpt>
      <trkpt lat="47.23289" lon="6.02818">
        <ele>265</ele>
        <time>2014-3-1T15:7:11.000Z</time>
      </trkpt>
      <trkpt lat="47.23296" lon="6.02827">
        <ele>268</ele>
        <time>2014-3-1T15:7:11.000Z</time>
      </trkpt>
      <trkpt lat="47.23296" lon="6.02827">
        <ele>268</ele>
        <time>2014-3-1T15:7:11.000Z</time>
      </trkpt>
      <trkpt lat="47.23302" lon="6.02836">
        <ele>272</ele>
        <time>2014-3-1T15:7:11.000Z</time>
      </trkpt>
      <trkpt lat="47.23302" lon="6.02836">
        <ele>272</ele>
        <time>2014-3-1T15:7:11.000Z</time>
      </trkpt>
      <trkpt lat="47.23307" lon="6.02842">
        <ele>272</ele>
        <time>2014-3-1T15:7:11.000Z</time>
      </trkpt>
      <trkpt lat="47.23307" lon="6.02842">
        <ele>272</ele>
        <time>2014-3-1T15:7:11.000Z</time>
      </trkpt>
      <trkpt lat="47.23311" lon="6.02851">
        <ele>272</ele>
        <time>2014-3-1T15:7:11.000Z</time>
      </trkpt>
      <trkpt lat="47.23311" lon="6.02851">
        <ele>272</ele>
        <time>2014-3-1T15:10:16.000Z</time>
      </trkpt>
      <trkpt lat="47.23312" lon="6.02852">
        <ele>272</ele>
        <time>2014-3-1T15:10:16.000Z</time>
      </trkpt>
      <trkpt lat="47.23312" lon="6.02852">
        <ele>272</ele>
        <time>2014-3-1T15:10:16.000Z</time>
      </trkpt>
      <trkpt lat="47.23319" lon="6.02857">
        <ele>273</ele>
        <time>2014-3-1T15:10:16.000Z</time>
      </trkpt>
      <trkpt lat="47.23319" lon="6.02857">
        <ele>273</ele>
        <time>2014-3-1T15:10:16.000Z</time>
      </trkpt>
      <trkpt lat="47.23321" lon="6.02858">
        <ele>273</ele>
        <time>2014-3-1T15:10:16.000Z</time>
      </trkpt>
      <trkpt lat="47.23321" lon="6.02858">
        <ele>273</ele>
        <time>2014-3-1T15:10:16.000Z</time>
      </trkpt>
      <trkpt lat="47.23326" lon="6.02864">
        <ele>272</ele>
        <time>2014-3-1T15:10:16.000Z</time>
      </trkpt>
      <trkpt lat="47.23326" lon="6.02864">
        <ele>272</ele>
        <time>2014-3-1T15:10:16.000Z</time>
      </trkpt>
      <trkpt lat="47.23331" lon="6.02871">
        <ele>271</ele>
        <time>2014-3-1T15:10:16.000Z</time>
      </trkpt>
      <trkpt lat="47.23331" lon="6.02871">
        <ele>271</ele>
        <time>2014-3-1T15:10:16.000Z</time>
      </trkpt>
      <trkpt lat="47.23335" lon="6.02881">
        <ele>268</ele>
        <time>2014-3-1T15:10:16.000Z</time>
      </trkpt>
      <trkpt lat="47.23335" lon="6.02881">
        <ele>268</ele>
        <time>2014-3-1T15:10:16.000Z</time>
      </trkpt>
      <trkpt lat="47.23339" lon="6.02892">
        <ele>268</ele>
        <time>2014-3-1T15:10:16.000Z</time>
      </trkpt>
      <trkpt lat="47.23339" lon="6.02892">
        <ele>268</ele>
        <time>2014-3-1T15:10:16.000Z</time>
      </trkpt>
      <trkpt lat="47.23343" lon="6.02901">
        <ele>267</ele>
        <time>2014-3-1T15:10:16.000Z</time>
      </trkpt>
      <trkpt lat="47.23343" lon="6.02901">
        <ele>267</ele>
        <time>2014-3-1T15:10:16.000Z</time>
      </trkpt>
      <trkpt lat="47.23348" lon="6.02909">
        <ele>266</ele>
        <time>2014-3-1T15:10:16.000Z</time>
      </trkpt>
      <trkpt lat="47.23348" lon="6.02909">
        <ele>266</ele>
        <time>2014-3-1T15:10:16.000Z</time>
      </trkpt>
      <trkpt lat="47.23354" lon="6.02915">
        <ele>266</ele>
        <time>2014-3-1T15:10:16.000Z</time>
      </trkpt>
      <trkpt lat="47.23354" lon="6.02915">
        <ele>266</ele>
        <time>2014-3-1T15:10:16.000Z</time>
      </trkpt>
      <trkpt lat="47.23357" lon="6.02924">
        <ele>263</ele>
        <time>2014-3-1T15:10:16.000Z</time>
      </trkpt>
      <trkpt lat="47.23357" lon="6.02924">
        <ele>263</ele>
        <time>2014-3-1T15:10:16.000Z</time>
      </trkpt>
      <trkpt lat="47.23355" lon="6.02934">
        <ele>261</ele>
        <time>2014-3-1T15:10:16.000Z</time>
      </trkpt>
      <trkpt lat="47.23355" lon="6.02934">
        <ele>261</ele>
        <time>2014-3-1T15:10:16.000Z</time>
      </trkpt>
      <trkpt lat="47.23353" lon="6.02943">
        <ele>259</ele>
        <time>2014-3-1T15:10:16.000Z</time>
      </trkpt>
      <trkpt lat="47.23353" lon="6.02943">
        <ele>259</ele>
        <time>2014-3-1T15:10:16.000Z</time>
      </trkpt>
      <trkpt lat="47.23354" lon="6.02952">
        <ele>260</ele>
        <time>2014-3-1T15:10:16.000Z</time>
      </trkpt>
      <trkpt lat="47.23354" lon="6.02952">
        <ele>260</ele>
        <time>2014-3-1T15:10:16.000Z</time>
      </trkpt>
      <trkpt lat="47.23358" lon="6.02962">
        <ele>260</ele>
        <time>2014-3-1T15:10:16.000Z</time>
      </trkpt>
      <trkpt lat="47.23358" lon="6.02962">
        <ele>260</ele>
        <time>2014-3-1T15:10:16.000Z</time>
      </trkpt>
      <trkpt lat="47.23367" lon="6.02965">
        <ele>259</ele>
        <time>2014-3-1T15:10:16.000Z</time>
      </trkpt>
      <trkpt lat="47.23367" lon="6.02965">
        <ele>259</ele>
        <time>2014-3-1T15:10:16.000Z</time>
      </trkpt>
      <trkpt lat="47.23375" lon="6.0297">
        <ele>257</ele>
        <time>2014-3-1T15:10:16.000Z</time>
      </trkpt>
      <trkpt lat="47.23375" lon="6.0297">
        <ele>257</ele>
        <time>2014-3-1T15:10:16.000Z</time>
      </trkpt>
      <trkpt lat="47.23381" lon="6.02981">
        <ele>257</ele>
        <time>2014-3-1T15:10:16.000Z</time>
      </trkpt>
      <trkpt lat="47.23381" lon="6.02981">
        <ele>257</ele>
        <time>2014-3-1T15:10:16.000Z</time>
      </trkpt>
      <trkpt lat="47.23385" lon="6.02988">
        <ele>257</ele>
        <time>2014-3-1T15:10:16.000Z</time>
      </trkpt>
      <trkpt lat="47.23385" lon="6.02988">
        <ele>257</ele>
        <time>2014-3-1T15:10:16.000Z</time>
      </trkpt>
      <trkpt lat="47.23389" lon="6.02998">
        <ele>258</ele>
        <time>2014-3-1T15:10:16.000Z</time>
      </trkpt>
      <trkpt lat="47.23389" lon="6.02998">
        <ele>258</ele>
        <time>2014-3-1T15:10:16.000Z</time>
      </trkpt>
      <trkpt lat="47.23391" lon="6.03009">
        <ele>257</ele>
        <time>2014-3-1T15:10:16.000Z</time>
      </trkpt>
      <trkpt lat="47.23391" lon="6.03009">
        <ele>257</ele>
        <time>2014-3-1T15:10:16.000Z</time>
      </trkpt>
      <trkpt lat="47.2339" lon="6.03019">
        <ele>258</ele>
        <time>2014-3-1T15:10:16.000Z</time>
      </trkpt>
      <trkpt lat="47.2339" lon="6.03019">
        <ele>258</ele>
        <time>2014-3-1T15:10:16.000Z</time>
      </trkpt>
      <trkpt lat="47.23387" lon="6.03033">
        <ele>257</ele>
        <time>2014-3-1T15:10:16.000Z</time>
      </trkpt>
      <trkpt lat="47.23387" lon="6.03033">
        <ele>257</ele>
        <time>2014-3-1T15:10:16.000Z</time>
      </trkpt>
      <trkpt lat="47.23385" lon="6.03044">
        <ele>258</ele>
        <time>2014-3-1T15:10:16.000Z</time>
      </trkpt>
      <trkpt lat="47.23385" lon="6.03044">
        <ele>258</ele>
        <time>2014-3-1T15:10:16.000Z</time>
      </trkpt>
      <trkpt lat="47.23395" lon="6.03042">
        <ele>258</ele>
        <time>2014-3-1T15:10:16.000Z</time>
      </trkpt>
      <trkpt lat="47.23395" lon="6.03042">
        <ele>258</ele>
        <time>2014-3-1T15:10:16.000Z</time>
      </trkpt>
      <trkpt lat="47.23402" lon="6.03032">
        <ele>257</ele>
        <time>2014-3-1T15:10:16.000Z</time>
      </trkpt>
      <trkpt lat="47.23402" lon="6.03032">
        <ele>257</ele>
        <time>2014-3-1T15:10:16.000Z</time>
      </trkpt>
      <trkpt lat="47.23408" lon="6.03024">
        <ele>257</ele>
        <time>2014-3-1T15:10:16.000Z</time>
      </trkpt>
      <trkpt lat="47.23408" lon="6.03024">
        <ele>257</ele>
        <time>2014-3-1T15:10:16.000Z</time>
      </trkpt>
      <trkpt lat="47.23416" lon="6.03017">
        <ele>257</ele>
        <time>2014-3-1T15:10:16.000Z</time>
      </trkpt>
      <trkpt lat="47.23416" lon="6.03017">
        <ele>257</ele>
        <time>2014-3-1T15:10:16.000Z</time>
      </trkpt>
      <trkpt lat="47.23422" lon="6.03011">
        <ele>255</ele>
        <time>2014-3-1T15:10:16.000Z</time>
      </trkpt>
      <trkpt lat="47.23422" lon="6.03011">
        <ele>255</ele>
        <time>2014-3-1T15:10:16.000Z</time>
      </trkpt>
      <trkpt lat="47.23427" lon="6.03007">
        <ele>259</ele>
        <time>2014-3-1T15:10:16.000Z</time>
      </trkpt>
      <trkpt lat="47.23427" lon="6.03007">
        <ele>259</ele>
        <time>2014-3-1T15:10:16.000Z</time>
      </trkpt>
      <trkpt lat="47.23436" lon="6.03001">
        <ele>259</ele>
        <time>2014-3-1T15:10:16.000Z</time>
      </trkpt>
      <trkpt lat="47.23436" lon="6.03001">
        <ele>259</ele>
        <time>2014-3-1T15:10:16.000Z</time>
      </trkpt>
      <trkpt lat="47.23443" lon="6.02995">
        <ele>258</ele>
        <time>2014-3-1T15:10:16.000Z</time>
      </trkpt>
      <trkpt lat="47.23443" lon="6.02995">
        <ele>258</ele>
        <time>2014-3-1T15:10:16.000Z</time>
      </trkpt>
      <trkpt lat="47.23449" lon="6.02988">
        <ele>260</ele>
        <time>2014-3-1T15:10:16.000Z</time>
      </trkpt>
      <trkpt lat="47.23449" lon="6.02988">
        <ele>260</ele>
        <time>2014-3-1T15:10:16.000Z</time>
      </trkpt>
      <trkpt lat="47.23455" lon="6.02981">
        <ele>261</ele>
        <time>2014-3-1T15:10:16.000Z</time>
      </trkpt>
      <trkpt lat="47.23455" lon="6.02981">
        <ele>261</ele>
        <time>2014-3-1T15:10:16.000Z</time>
      </trkpt>
      <trkpt lat="47.23456" lon="6.02991">
        <ele>265</ele>
        <time>2014-3-1T15:10:16.000Z</time>
      </trkpt>
      <trkpt lat="47.23456" lon="6.02991">
        <ele>265</ele>
        <time>2014-3-1T15:10:16.000Z</time>
      </trkpt>
      <trkpt lat="47.2346" lon="6.02998">
        <ele>267</ele>
        <time>2014-3-1T15:10:16.000Z</time>
      </trkpt>
      <trkpt lat="47.2346" lon="6.02998">
        <ele>267</ele>
        <time>2014-3-1T15:10:16.000Z</time>
      </trkpt>
      <trkpt lat="47.23465" lon="6.03006">
        <ele>267</ele>
        <time>2014-3-1T15:10:16.000Z</time>
      </trkpt>
      <trkpt lat="47.23465" lon="6.03006">
        <ele>267</ele>
        <time>2014-3-1T15:10:16.000Z</time>
      </trkpt>
      <trkpt lat="47.23469" lon="6.03013">
        <ele>270</ele>
        <time>2014-3-1T15:10:16.000Z</time>
      </trkpt>
      <trkpt lat="47.23469" lon="6.03013">
        <ele>270</ele>
        <time>2014-3-1T15:10:16.000Z</time>
      </trkpt>
      <trkpt lat="47.23476" lon="6.03017">
        <ele>266</ele>
        <time>2014-3-1T15:10:16.000Z</time>
      </trkpt>
      <trkpt lat="47.23476" lon="6.03017">
        <ele>266</ele>
        <time>2014-3-1T15:10:16.000Z</time>
      </trkpt>
      <trkpt lat="47.23482" lon="6.0302">
        <ele>270</ele>
        <time>2014-3-1T15:10:16.000Z</time>
      </trkpt>
      <trkpt lat="47.23482" lon="6.0302">
        <ele>270</ele>
        <time>2014-3-1T15:10:16.000Z</time>
      </trkpt>
      <trkpt lat="47.23489" lon="6.03021">
        <ele>271</ele>
        <time>2014-3-1T15:10:16.000Z</time>
      </trkpt>
      <trkpt lat="47.23489" lon="6.03021">
        <ele>271</ele>
        <time>2014-3-1T15:10:16.000Z</time>
      </trkpt>
      <trkpt lat="47.23495" lon="6.0302">
        <ele>265</ele>
        <time>2014-3-1T15:10:16.000Z</time>
      </trkpt>
      <trkpt lat="47.23495" lon="6.0302">
        <ele>265</ele>
        <time>2014-3-1T15:10:16.000Z</time>
      </trkpt>
      <trkpt lat="47.235" lon="6.0303">
        <ele>265</ele>
        <time>2014-3-1T15:10:16.000Z</time>
      </trkpt>
      <trkpt lat="47.235" lon="6.0303">
        <ele>265</ele>
        <time>2014-3-1T15:10:16.000Z</time>
      </trkpt>
      <trkpt lat="47.23501" lon="6.03042">
        <ele>266</ele>
        <time>2014-3-1T15:10:16.000Z</time>
      </trkpt>
      <trkpt lat="47.23501" lon="6.03042">
        <ele>266</ele>
        <time>2014-3-1T15:10:16.000Z</time>
      </trkpt>
      <trkpt lat="47.23501" lon="6.03053">
        <ele>264</ele>
        <time>2014-3-1T15:10:16.000Z</time>
      </trkpt>
      <trkpt lat="47.23501" lon="6.03053">
        <ele>264</ele>
        <time>2014-3-1T15:10:16.000Z</time>
      </trkpt>
      <trkpt lat="47.23501" lon="6.03065">
        <ele>264</ele>
        <time>2014-3-1T15:10:16.000Z</time>
      </trkpt>
      <trkpt lat="47.23501" lon="6.03065">
        <ele>264</ele>
        <time>2014-3-1T15:10:16.000Z</time>
      </trkpt>
      <trkpt lat="47.23502" lon="6.03076">
        <ele>260</ele>
        <time>2014-3-1T15:10:16.000Z</time>
      </trkpt>
      <trkpt lat="47.23502" lon="6.03076">
        <ele>260</ele>
        <time>2014-3-1T15:10:16.000Z</time>
      </trkpt>
      <trkpt lat="47.23508" lon="6.03085">
        <ele>256</ele>
        <time>2014-3-1T15:10:16.000Z</time>
      </trkpt>
      <trkpt lat="47.23508" lon="6.03085">
        <ele>256</ele>
        <time>2014-3-1T15:10:16.000Z</time>
      </trkpt>
      <trkpt lat="47.23514" lon="6.03094">
        <ele>256</ele>
        <time>2014-3-1T15:10:16.000Z</time>
      </trkpt>
      <trkpt lat="47.23514" lon="6.03094">
        <ele>256</ele>
        <time>2014-3-1T15:10:16.000Z</time>
      </trkpt>
      <trkpt lat="47.23519" lon="6.03102">
        <ele>255</ele>
        <time>2014-3-1T15:10:16.000Z</time>
      </trkpt>
      <trkpt lat="47.23519" lon="6.03102">
        <ele>255</ele>
        <time>2014-3-1T15:10:16.000Z</time>
      </trkpt>
      <trkpt lat="47.23525" lon="6.0311">
        <ele>254</ele>
        <time>2014-3-1T15:12:48.000Z</time>
      </trkpt>
      <trkpt lat="47.23525" lon="6.0311">
        <ele>254</ele>
        <time>2014-3-1T15:12:48.000Z</time>
      </trkpt>
      <trkpt lat="47.23529" lon="6.03119">
        <ele>254</ele>
        <time>2014-3-1T15:12:48.000Z</time>
      </trkpt>
      <trkpt lat="47.23529" lon="6.03119">
        <ele>254</ele>
        <time>2014-3-1T15:12:48.000Z</time>
      </trkpt>
      <trkpt lat="47.23531" lon="6.03128">
        <ele>254</ele>
        <time>2014-3-1T15:12:48.000Z</time>
      </trkpt>
      <trkpt lat="47.23531" lon="6.03128">
        <ele>254</ele>
        <time>2014-3-1T15:12:48.000Z</time>
      </trkpt>
      <trkpt lat="47.23532" lon="6.03142">
        <ele>254</ele>
        <time>2014-3-1T15:12:48.000Z</time>
      </trkpt>
      <trkpt lat="47.23532" lon="6.03142">
        <ele>254</ele>
        <time>2014-3-1T15:12:48.000Z</time>
      </trkpt>
      <trkpt lat="47.23529" lon="6.03155">
        <ele>256</ele>
        <time>2014-3-1T15:12:48.000Z</time>
      </trkpt>
      <trkpt lat="47.23529" lon="6.03155">
        <ele>256</ele>
        <time>2014-3-1T15:12:48.000Z</time>
      </trkpt>
      <trkpt lat="47.23529" lon="6.03168">
        <ele>256</ele>
        <time>2014-3-1T15:12:48.000Z</time>
      </trkpt>
      <trkpt lat="47.23529" lon="6.03168">
        <ele>256</ele>
        <time>2014-3-1T15:12:48.000Z</time>
      </trkpt>
      <trkpt lat="47.23533" lon="6.03178">
        <ele>256</ele>
        <time>2014-3-1T15:12:48.000Z</time>
      </trkpt>
      <trkpt lat="47.23533" lon="6.03178">
        <ele>256</ele>
        <time>2014-3-1T15:12:48.000Z</time>
      </trkpt>
      <trkpt lat="47.23536" lon="6.03187">
        <ele>256</ele>
        <time>2014-3-1T15:12:48.000Z</time>
      </trkpt>
      <trkpt lat="47.23536" lon="6.03187">
        <ele>256</ele>
        <time>2014-3-1T15:12:48.000Z</time>
      </trkpt>
      <trkpt lat="47.23538" lon="6.03199">
        <ele>256</ele>
        <time>2014-3-1T15:12:48.000Z</time>
      </trkpt>
      <trkpt lat="47.23538" lon="6.03199">
        <ele>256</ele>
        <time>2014-3-1T15:12:48.000Z</time>
      </trkpt>
      <trkpt lat="47.23539" lon="6.03212">
        <ele>255</ele>
        <time>2014-3-1T15:12:48.000Z</time>
      </trkpt>
      <trkpt lat="47.23539" lon="6.03212">
        <ele>255</ele>
        <time>2014-3-1T15:12:48.000Z</time>
      </trkpt>
      <trkpt lat="47.23542" lon="6.03225">
        <ele>256</ele>
        <time>2014-3-1T15:12:48.000Z</time>
      </trkpt>
      <trkpt lat="47.23542" lon="6.03225">
        <ele>256</ele>
        <time>2014-3-1T15:12:48.000Z</time>
      </trkpt>
      <trkpt lat="47.23544" lon="6.03234">
        <ele>258</ele>
        <time>2014-3-1T15:12:48.000Z</time>
      </trkpt>
      <trkpt lat="47.23544" lon="6.03234">
        <ele>258</ele>
        <time>2014-3-1T15:12:48.000Z</time>
      </trkpt>
      <trkpt lat="47.23543" lon="6.03247">
        <ele>262</ele>
        <time>2014-3-1T15:12:48.000Z</time>
      </trkpt>
      <trkpt lat="47.23543" lon="6.03247">
        <ele>262</ele>
        <time>2014-3-1T15:12:48.000Z</time>
      </trkpt>
      <trkpt lat="47.23539" lon="6.03257">
        <ele>258</ele>
        <time>2014-3-1T15:12:48.000Z</time>
      </trkpt>
      <trkpt lat="47.23539" lon="6.03257">
        <ele>258</ele>
        <time>2014-3-1T15:12:48.000Z</time>
      </trkpt>
      <trkpt lat="47.23532" lon="6.03263">
        <ele>254</ele>
        <time>2014-3-1T15:12:48.000Z</time>
      </trkpt>
      <trkpt lat="47.23532" lon="6.03263">
        <ele>254</ele>
        <time>2014-3-1T15:12:48.000Z</time>
      </trkpt>
      <trkpt lat="47.23525" lon="6.03268">
        <ele>256</ele>
        <time>2014-3-1T15:12:48.000Z</time>
      </trkpt>
      <trkpt lat="47.23525" lon="6.03268">
        <ele>256</ele>
        <time>2014-3-1T15:12:48.000Z</time>
      </trkpt>
      <trkpt lat="47.23517" lon="6.03271">
        <ele>255</ele>
        <time>2014-3-1T15:12:48.000Z</time>
      </trkpt>
      <trkpt lat="47.23517" lon="6.03271">
        <ele>255</ele>
        <time>2014-3-1T15:12:48.000Z</time>
      </trkpt>
      <trkpt lat="47.23509" lon="6.03275">
        <ele>253</ele>
        <time>2014-3-1T15:12:48.000Z</time>
      </trkpt>
      <trkpt lat="47.23509" lon="6.03275">
        <ele>253</ele>
        <time>2014-3-1T15:12:48.000Z</time>
      </trkpt>
      <trkpt lat="47.23504" lon="6.03281">
        <ele>254</ele>
        <time>2014-3-1T15:12:48.000Z</time>
      </trkpt>
      <trkpt lat="47.23504" lon="6.03281">
        <ele>254</ele>
        <time>2014-3-1T15:12:48.000Z</time>
      </trkpt>
      <trkpt lat="47.23497" lon="6.03286">
        <ele>254</ele>
        <time>2014-3-1T15:12:48.000Z</time>
      </trkpt>
      <trkpt lat="47.23497" lon="6.03286">
        <ele>254</ele>
        <time>2014-3-1T15:12:48.000Z</time>
      </trkpt>
      <trkpt lat="47.2349" lon="6.03293">
        <ele>253</ele>
        <time>2014-3-1T15:12:48.000Z</time>
      </trkpt>
      <trkpt lat="47.2349" lon="6.03293">
        <ele>253</ele>
        <time>2014-3-1T15:12:48.000Z</time>
      </trkpt>
      <trkpt lat="47.23484" lon="6.03303">
        <ele>254</ele>
        <time>2014-3-1T15:12:48.000Z</time>
      </trkpt>
      <trkpt lat="47.23484" lon="6.03303">
        <ele>254</ele>
        <time>2014-3-1T15:12:48.000Z</time>
      </trkpt>
      <trkpt lat="47.23478" lon="6.03313">
        <ele>257</ele>
        <time>2014-3-1T15:12:48.000Z</time>
      </trkpt>
      <trkpt lat="47.23478" lon="6.03313">
        <ele>257</ele>
        <time>2014-3-1T15:12:48.000Z</time>
      </trkpt>
      <trkpt lat="47.23479" lon="6.03324">
        <ele>256</ele>
        <time>2014-3-1T15:12:48.000Z</time>
      </trkpt>
      <trkpt lat="47.23479" lon="6.03324">
        <ele>256</ele>
        <time>2014-3-1T15:12:48.000Z</time>
      </trkpt>
      <trkpt lat="47.23482" lon="6.03334">
        <ele>256</ele>
        <time>2014-3-1T15:12:48.000Z</time>
      </trkpt>
      <trkpt lat="47.23482" lon="6.03334">
        <ele>256</ele>
        <time>2014-3-1T15:12:48.000Z</time>
      </trkpt>
      <trkpt lat="47.23486" lon="6.03344">
        <ele>255</ele>
        <time>2014-3-1T15:12:48.000Z</time>
      </trkpt>
      <trkpt lat="47.23486" lon="6.03344">
        <ele>255</ele>
        <time>2014-3-1T15:12:48.000Z</time>
      </trkpt>
      <trkpt lat="47.23489" lon="6.03354">
        <ele>254</ele>
        <time>2014-3-1T15:12:48.000Z</time>
      </trkpt>
      <trkpt lat="47.23489" lon="6.03354">
        <ele>254</ele>
        <time>2014-3-1T15:12:48.000Z</time>
      </trkpt>
      <trkpt lat="47.23493" lon="6.03365">
        <ele>256</ele>
        <time>2014-3-1T15:12:48.000Z</time>
      </trkpt>
      <trkpt lat="47.23493" lon="6.03365">
        <ele>256</ele>
        <time>2014-3-1T15:12:48.000Z</time>
      </trkpt>
      <trkpt lat="47.23495" lon="6.03374">
        <ele>256</ele>
        <time>2014-3-1T15:12:48.000Z</time>
      </trkpt>
      <trkpt lat="47.23495" lon="6.03374">
        <ele>256</ele>
        <time>2014-3-1T15:12:48.000Z</time>
      </trkpt>
      <trkpt lat="47.235" lon="6.0338">
        <ele>256</ele>
        <time>2014-3-1T15:12:48.000Z</time>
      </trkpt>
      <trkpt lat="47.235" lon="6.0338">
        <ele>256</ele>
        <time>2014-3-1T15:12:48.000Z</time>
      </trkpt>
      <trkpt lat="47.23507" lon="6.03379">
        <ele>256</ele>
        <time>2014-3-1T15:12:48.000Z</time>
      </trkpt>
      <trkpt lat="47.23507" lon="6.03379">
        <ele>256</ele>
        <time>2014-3-1T15:12:48.000Z</time>
      </trkpt>
      <trkpt lat="47.23507" lon="6.03393">
        <ele>254</ele>
        <time>2014-3-1T15:12:48.000Z</time>
      </trkpt>
      <trkpt lat="47.23507" lon="6.03393">
        <ele>254</ele>
        <time>2014-3-1T15:12:48.000Z</time>
      </trkpt>
      <trkpt lat="47.23508" lon="6.03404">
        <ele>255</ele>
        <time>2014-3-1T15:12:48.000Z</time>
      </trkpt>
      <trkpt lat="47.23508" lon="6.03404">
        <ele>255</ele>
        <time>2014-3-1T15:12:48.000Z</time>
      </trkpt>
      <trkpt lat="47.23507" lon="6.03413">
        <ele>254</ele>
        <time>2014-3-1T15:12:48.000Z</time>
      </trkpt>
      <trkpt lat="47.23507" lon="6.03413">
        <ele>254</ele>
        <time>2014-3-1T15:12:48.000Z</time>
      </trkpt>
      <trkpt lat="47.23506" lon="6.03426">
        <ele>253</ele>
        <time>2014-3-1T15:12:48.000Z</time>
      </trkpt>
      <trkpt lat="47.23506" lon="6.03426">
        <ele>253</ele>
        <time>2014-3-1T15:12:48.000Z</time>
      </trkpt>
      <trkpt lat="47.23498" lon="6.03433">
        <ele>252</ele>
        <time>2014-3-1T15:12:48.000Z</time>
      </trkpt>
      <trkpt lat="47.23498" lon="6.03433">
        <ele>252</ele>
        <time>2014-3-1T15:12:48.000Z</time>
      </trkpt>
      <trkpt lat="47.23489" lon="6.03435">
        <ele>249</ele>
        <time>2014-3-1T15:12:48.000Z</time>
      </trkpt>
      <trkpt lat="47.23489" lon="6.03435">
        <ele>249</ele>
        <time>2014-3-1T15:12:48.000Z</time>
      </trkpt>
      <trkpt lat="47.23482" lon="6.03442">
        <ele>246</ele>
        <time>2014-3-1T15:12:48.000Z</time>
      </trkpt>
      <trkpt lat="47.23482" lon="6.03442">
        <ele>246</ele>
        <time>2014-3-1T15:12:48.000Z</time>
      </trkpt>
      <trkpt lat="47.23476" lon="6.03451">
        <ele>245</ele>
        <time>2014-3-1T15:12:48.000Z</time>
      </trkpt>
      <trkpt lat="47.23476" lon="6.03451">
        <ele>245</ele>
        <time>2014-3-1T15:12:48.000Z</time>
      </trkpt>
      <trkpt lat="47.2347" lon="6.03459">
        <ele>247</ele>
        <time>2014-3-1T15:12:48.000Z</time>
      </trkpt>
      <trkpt lat="47.2347" lon="6.03459">
        <ele>247</ele>
        <time>2014-3-1T15:12:48.000Z</time>
      </trkpt>
      <trkpt lat="47.23464" lon="6.03467">
        <ele>245</ele>
        <time>2014-3-1T15:12:48.000Z</time>
      </trkpt>
      <trkpt lat="47.23464" lon="6.03467">
        <ele>245</ele>
        <time>2014-3-1T15:12:48.000Z</time>
      </trkpt>
      <trkpt lat="47.2346" lon="6.03477">
        <ele>245</ele>
        <time>2014-3-1T15:12:48.000Z</time>
      </trkpt>
      <trkpt lat="47.2346" lon="6.03477">
        <ele>245</ele>
        <time>2014-3-1T15:12:48.000Z</time>
      </trkpt>
      <trkpt lat="47.23456" lon="6.0349">
        <ele>247</ele>
        <time>2014-3-1T15:12:48.000Z</time>
      </trkpt>
      <trkpt lat="47.23456" lon="6.0349">
        <ele>247</ele>
        <time>2014-3-1T15:12:48.000Z</time>
      </trkpt>
      <trkpt lat="47.23454" lon="6.03499">
        <ele>246</ele>
        <time>2014-3-1T15:12:48.000Z</time>
      </trkpt>
      <trkpt lat="47.23454" lon="6.03499">
        <ele>246</ele>
        <time>2014-3-1T15:12:48.000Z</time>
      </trkpt>
      <trkpt lat="47.23453" lon="6.03509">
        <ele>245</ele>
        <time>2014-3-1T15:12:48.000Z</time>
      </trkpt>
      <trkpt lat="47.23453" lon="6.03509">
        <ele>245</ele>
        <time>2014-3-1T15:12:48.000Z</time>
      </trkpt>
      <trkpt lat="47.23448" lon="6.03518">
        <ele>244</ele>
        <time>2014-3-1T15:12:48.000Z</time>
      </trkpt>
      <trkpt lat="47.23448" lon="6.03518">
        <ele>244</ele>
        <time>2014-3-1T15:12:48.000Z</time>
      </trkpt>
      <trkpt lat="47.23443" lon="6.03527">
        <ele>243</ele>
        <time>2014-3-1T15:12:48.000Z</time>
      </trkpt>
      <trkpt lat="47.23443" lon="6.03527">
        <ele>243</ele>
        <time>2014-3-1T15:12:48.000Z</time>
      </trkpt>
      <trkpt lat="47.23439" lon="6.03538">
        <ele>246</ele>
        <time>2014-3-1T15:12:48.000Z</time>
      </trkpt>
      <trkpt lat="47.23439" lon="6.03538">
        <ele>246</ele>
        <time>2014-3-1T15:12:48.000Z</time>
      </trkpt>
      <trkpt lat="47.23433" lon="6.03549">
        <ele>248</ele>
        <time>2014-3-1T15:12:48.000Z</time>
      </trkpt>
      <trkpt lat="47.23433" lon="6.03549">
        <ele>248</ele>
        <time>2014-3-1T15:12:48.000Z</time>
      </trkpt>
      <trkpt lat="47.23429" lon="6.03559">
        <ele>246</ele>
        <time>2014-3-1T15:12:48.000Z</time>
      </trkpt>
      <trkpt lat="47.23429" lon="6.03559">
        <ele>246</ele>
        <time>2014-3-1T15:12:48.000Z</time>
      </trkpt>
      <trkpt lat="47.23425" lon="6.03569">
        <ele>247</ele>
        <time>2014-3-1T15:12:48.000Z</time>
      </trkpt>
      <trkpt lat="47.23425" lon="6.03569">
        <ele>247</ele>
        <time>2014-3-1T15:16:20.000Z</time>
      </trkpt>
      <trkpt lat="47.23421" lon="6.03579">
        <ele>246</ele>
        <time>2014-3-1T15:16:20.000Z</time>
      </trkpt>
      <trkpt lat="47.23421" lon="6.03579">
        <ele>246</ele>
        <time>2014-3-1T15:16:20.000Z</time>
      </trkpt>
      <trkpt lat="47.23417" lon="6.0359">
        <ele>250</ele>
        <time>2014-3-1T15:16:20.000Z</time>
      </trkpt>
      <trkpt lat="47.23417" lon="6.0359">
        <ele>250</ele>
        <time>2014-3-1T15:16:20.000Z</time>
      </trkpt>
      <trkpt lat="47.23414" lon="6.036">
        <ele>247</ele>
        <time>2014-3-1T15:16:20.000Z</time>
      </trkpt>
      <trkpt lat="47.23414" lon="6.036">
        <ele>247</ele>
        <time>2014-3-1T15:16:20.000Z</time>
      </trkpt>
      <trkpt lat="47.23409" lon="6.03609">
        <ele>243</ele>
        <time>2014-3-1T15:16:20.000Z</time>
      </trkpt>
      <trkpt lat="47.23409" lon="6.03609">
        <ele>243</ele>
        <time>2014-3-1T15:16:20.000Z</time>
      </trkpt>
      <trkpt lat="47.23406" lon="6.03617">
        <ele>238</ele>
        <time>2014-3-1T15:16:20.000Z</time>
      </trkpt>
      <trkpt lat="47.23406" lon="6.03617">
        <ele>238</ele>
        <time>2014-3-1T15:16:20.000Z</time>
      </trkpt>
      <trkpt lat="47.234" lon="6.03627">
        <ele>238</ele>
        <time>2014-3-1T15:16:20.000Z</time>
      </trkpt>
      <trkpt lat="47.234" lon="6.03627">
        <ele>238</ele>
        <time>2014-3-1T15:16:20.000Z</time>
      </trkpt>
      <trkpt lat="47.23395" lon="6.03633">
        <ele>238</ele>
        <time>2014-3-1T15:16:20.000Z</time>
      </trkpt>
      <trkpt lat="47.23395" lon="6.03633">
        <ele>238</ele>
        <time>2014-3-1T15:16:20.000Z</time>
      </trkpt>
      <trkpt lat="47.23391" lon="6.03644">
        <ele>239</ele>
        <time>2014-3-1T15:16:20.000Z</time>
      </trkpt>
      <trkpt lat="47.23391" lon="6.03644">
        <ele>239</ele>
        <time>2014-3-1T15:16:20.000Z</time>
      </trkpt>
      <trkpt lat="47.23386" lon="6.03654">
        <ele>241</ele>
        <time>2014-3-1T15:16:20.000Z</time>
      </trkpt>
      <trkpt lat="47.23386" lon="6.03654">
        <ele>241</ele>
        <time>2014-3-1T15:16:20.000Z</time>
      </trkpt>
      <trkpt lat="47.23384" lon="6.03663">
        <ele>243</ele>
        <time>2014-3-1T15:16:20.000Z</time>
      </trkpt>
      <trkpt lat="47.23384" lon="6.03663">
        <ele>243</ele>
        <time>2014-3-1T15:16:20.000Z</time>
      </trkpt>
      <trkpt lat="47.23392" lon="6.03665">
        <ele>245</ele>
        <time>2014-3-1T15:16:20.000Z</time>
      </trkpt>
      <trkpt lat="47.23392" lon="6.03665">
        <ele>245</ele>
        <time>2014-3-1T15:16:20.000Z</time>
      </trkpt>
      <trkpt lat="47.23399" lon="6.03661">
        <ele>247</ele>
        <time>2014-3-1T15:16:20.000Z</time>
      </trkpt>
      <trkpt lat="47.23399" lon="6.03661">
        <ele>247</ele>
        <time>2014-3-1T15:16:20.000Z</time>
      </trkpt>
      <trkpt lat="47.23405" lon="6.03657">
        <ele>247</ele>
        <time>2014-3-1T15:16:20.000Z</time>
      </trkpt>
      <trkpt lat="47.23405" lon="6.03657">
        <ele>247</ele>
        <time>2014-3-1T15:16:20.000Z</time>
      </trkpt>
      <trkpt lat="47.23411" lon="6.03651">
        <ele>253</ele>
        <time>2014-3-1T15:16:20.000Z</time>
      </trkpt>
      <trkpt lat="47.23411" lon="6.03651">
        <ele>253</ele>
        <time>2014-3-1T15:16:20.000Z</time>
      </trkpt>
      <trkpt lat="47.23419" lon="6.03645">
        <ele>255</ele>
        <time>2014-3-1T15:16:20.000Z</time>
      </trkpt>
      <trkpt lat="47.23419" lon="6.03645">
        <ele>255</ele>
        <time>2014-3-1T15:16:20.000Z</time>
      </trkpt>
      <trkpt lat="47.23425" lon="6.03638">
        <ele>254</ele>
        <time>2014-3-1T15:16:20.000Z</time>
      </trkpt>
      <trkpt lat="47.23425" lon="6.03638">
        <ele>254</ele>
        <time>2014-3-1T15:16:20.000Z</time>
      </trkpt>
      <trkpt lat="47.23433" lon="6.03635">
        <ele>255</ele>
        <time>2014-3-1T15:16:20.000Z</time>
      </trkpt>
      <trkpt lat="47.23433" lon="6.03635">
        <ele>255</ele>
        <time>2014-3-1T15:16:20.000Z</time>
      </trkpt>
      <trkpt lat="47.23442" lon="6.03632">
        <ele>256</ele>
        <time>2014-3-1T15:16:20.000Z</time>
      </trkpt>
      <trkpt lat="47.23442" lon="6.03632">
        <ele>256</ele>
        <time>2014-3-1T15:16:20.000Z</time>
      </trkpt>
      <trkpt lat="47.2345" lon="6.03628">
        <ele>257</ele>
        <time>2014-3-1T15:16:20.000Z</time>
      </trkpt>
      <trkpt lat="47.2345" lon="6.03628">
        <ele>257</ele>
        <time>2014-3-1T15:16:20.000Z</time>
      </trkpt>
      <trkpt lat="47.23457" lon="6.03622">
        <ele>255</ele>
        <time>2014-3-1T15:16:20.000Z</time>
      </trkpt>
      <trkpt lat="47.23457" lon="6.03622">
        <ele>255</ele>
        <time>2014-3-1T15:16:20.000Z</time>
      </trkpt>
      <trkpt lat="47.23466" lon="6.03618">
        <ele>254</ele>
        <time>2014-3-1T15:16:20.000Z</time>
      </trkpt>
      <trkpt lat="47.23466" lon="6.03618">
        <ele>254</ele>
        <time>2014-3-1T15:16:20.000Z</time>
      </trkpt>
      <trkpt lat="47.23473" lon="6.03613">
        <ele>255</ele>
        <time>2014-3-1T15:16:20.000Z</time>
      </trkpt>
      <trkpt lat="47.23473" lon="6.03613">
        <ele>255</ele>
        <time>2014-3-1T15:16:20.000Z</time>
      </trkpt>
      <trkpt lat="47.2348" lon="6.03608">
        <ele>257</ele>
        <time>2014-3-1T15:16:20.000Z</time>
      </trkpt>
      <trkpt lat="47.2348" lon="6.03608">
        <ele>257</ele>
        <time>2014-3-1T15:16:20.000Z</time>
      </trkpt>
      <trkpt lat="47.23487" lon="6.03604">
        <ele>257</ele>
        <time>2014-3-1T15:16:20.000Z</time>
      </trkpt>
      <trkpt lat="47.23487" lon="6.03604">
        <ele>257</ele>
        <time>2014-3-1T15:16:20.000Z</time>
      </trkpt>
      <trkpt lat="47.23496" lon="6.03602">
        <ele>254</ele>
        <time>2014-3-1T15:16:20.000Z</time>
      </trkpt>
      <trkpt lat="47.23496" lon="6.03602">
        <ele>254</ele>
        <time>2014-3-1T15:16:20.000Z</time>
      </trkpt>
      <trkpt lat="47.23504" lon="6.03601">
        <ele>254</ele>
        <time>2014-3-1T15:16:20.000Z</time>
      </trkpt>
      <trkpt lat="47.23504" lon="6.03601">
        <ele>254</ele>
        <time>2014-3-1T15:16:20.000Z</time>
      </trkpt>
      <trkpt lat="47.23513" lon="6.03598">
        <ele>254</ele>
        <time>2014-3-1T15:16:20.000Z</time>
      </trkpt>
      <trkpt lat="47.23513" lon="6.03598">
        <ele>254</ele>
        <time>2014-3-1T15:16:20.000Z</time>
      </trkpt>
      <trkpt lat="47.23521" lon="6.03594">
        <ele>253</ele>
        <time>2014-3-1T15:16:20.000Z</time>
      </trkpt>
      <trkpt lat="47.23521" lon="6.03594">
        <ele>253</ele>
        <time>2014-3-1T15:16:20.000Z</time>
      </trkpt>
      <trkpt lat="47.23529" lon="6.03591">
        <ele>255</ele>
        <time>2014-3-1T15:16:20.000Z</time>
      </trkpt>
      <trkpt lat="47.23529" lon="6.03591">
        <ele>255</ele>
        <time>2014-3-1T15:16:20.000Z</time>
      </trkpt>
      <trkpt lat="47.23537" lon="6.03589">
        <ele>255</ele>
        <time>2014-3-1T15:16:20.000Z</time>
      </trkpt>
      <trkpt lat="47.23537" lon="6.03589">
        <ele>255</ele>
        <time>2014-3-1T15:16:20.000Z</time>
      </trkpt>
      <trkpt lat="47.23545" lon="6.03588">
        <ele>256</ele>
        <time>2014-3-1T15:16:20.000Z</time>
      </trkpt>
      <trkpt lat="47.23545" lon="6.03588">
        <ele>256</ele>
        <time>2014-3-1T15:16:20.000Z</time>
      </trkpt>
      <trkpt lat="47.23553" lon="6.03587">
        <ele>255</ele>
        <time>2014-3-1T15:16:20.000Z</time>
      </trkpt>
      <trkpt lat="47.23553" lon="6.03587">
        <ele>255</ele>
        <time>2014-3-1T15:16:20.000Z</time>
      </trkpt>
      <trkpt lat="47.2356" lon="6.03586">
        <ele>256</ele>
        <time>2014-3-1T15:16:20.000Z</time>
      </trkpt>
      <trkpt lat="47.2356" lon="6.03586">
        <ele>256</ele>
        <time>2014-3-1T15:16:20.000Z</time>
      </trkpt>
      <trkpt lat="47.23567" lon="6.03586">
        <ele>255</ele>
        <time>2014-3-1T15:16:20.000Z</time>
      </trkpt>
      <trkpt lat="47.23567" lon="6.03586">
        <ele>255</ele>
        <time>2014-3-1T15:16:20.000Z</time>
      </trkpt>
      <trkpt lat="47.23572" lon="6.03578">
        <ele>252</ele>
        <time>2014-3-1T15:16:20.000Z</time>
      </trkpt>
      <trkpt lat="47.23572" lon="6.03578">
        <ele>252</ele>
        <time>2014-3-1T15:16:20.000Z</time>
      </trkpt>
      <trkpt lat="47.23579" lon="6.03577">
        <ele>254</ele>
        <time>2014-3-1T15:16:20.000Z</time>
      </trkpt>
      <trkpt lat="47.23579" lon="6.03577">
        <ele>254</ele>
        <time>2014-3-1T15:16:20.000Z</time>
      </trkpt>
      <trkpt lat="47.23587" lon="6.03576">
        <ele>252</ele>
        <time>2014-3-1T15:16:20.000Z</time>
      </trkpt>
      <trkpt lat="47.23587" lon="6.03576">
        <ele>252</ele>
        <time>2014-3-1T15:16:20.000Z</time>
      </trkpt>
      <trkpt lat="47.23594" lon="6.03573">
        <ele>250</ele>
        <time>2014-3-1T15:16:20.000Z</time>
      </trkpt>
      <trkpt lat="47.23594" lon="6.03573">
        <ele>250</ele>
        <time>2014-3-1T15:16:20.000Z</time>
      </trkpt>
      <trkpt lat="47.23599" lon="6.03567">
        <ele>251</ele>
        <time>2014-3-1T15:16:20.000Z</time>
      </trkpt>
      <trkpt lat="47.23599" lon="6.03567">
        <ele>251</ele>
        <time>2014-3-1T15:16:20.000Z</time>
      </trkpt>
      <trkpt lat="47.23592" lon="6.03569">
        <ele>247</ele>
        <time>2014-3-1T15:16:20.000Z</time>
      </trkpt>
      <trkpt lat="47.23592" lon="6.03569">
        <ele>247</ele>
        <time>2014-3-1T15:16:20.000Z</time>
      </trkpt>
      <trkpt lat="47.23585" lon="6.0357">
        <ele>247</ele>
        <time>2014-3-1T15:16:20.000Z</time>
      </trkpt>
      <trkpt lat="47.23585" lon="6.0357">
        <ele>247</ele>
        <time>2014-3-1T15:16:20.000Z</time>
      </trkpt>
      <trkpt lat="47.23578" lon="6.0357">
        <ele>250</ele>
        <time>2014-3-1T15:16:20.000Z</time>
      </trkpt>
      <trkpt lat="47.23578" lon="6.0357">
        <ele>250</ele>
        <time>2014-3-1T15:16:20.000Z</time>
      </trkpt>
      <trkpt lat="47.2357" lon="6.03572">
        <ele>251</ele>
        <time>2014-3-1T15:16:20.000Z</time>
      </trkpt>
      <trkpt lat="47.2357" lon="6.03572">
        <ele>251</ele>
        <time>2014-3-1T15:16:20.000Z</time>
      </trkpt>
      <trkpt lat="47.23561" lon="6.03575">
        <ele>251</ele>
        <time>2014-3-1T15:16:20.000Z</time>
      </trkpt>
      <trkpt lat="47.23561" lon="6.03575">
        <ele>251</ele>
        <time>2014-3-1T15:16:20.000Z</time>
      </trkpt>
      <trkpt lat="47.23554" lon="6.03583">
        <ele>250</ele>
        <time>2014-3-1T15:16:20.000Z</time>
      </trkpt>
      <trkpt lat="47.23554" lon="6.03583">
        <ele>250</ele>
        <time>2014-3-1T15:16:20.000Z</time>
      </trkpt>
      <trkpt lat="47.23547" lon="6.03587">
        <ele>251</ele>
        <time>2014-3-1T15:16:20.000Z</time>
      </trkpt>
      <trkpt lat="47.23547" lon="6.03587">
        <ele>251</ele>
        <time>2014-3-1T15:16:20.000Z</time>
      </trkpt>
      <trkpt lat="47.23539" lon="6.03589">
        <ele>250</ele>
        <time>2014-3-1T15:16:20.000Z</time>
      </trkpt>
      <trkpt lat="47.23539" lon="6.03589">
        <ele>250</ele>
        <time>2014-3-1T15:16:20.000Z</time>
      </trkpt>
      <trkpt lat="47.23533" lon="6.03592">
        <ele>249</ele>
        <time>2014-3-1T15:16:20.000Z</time>
      </trkpt>
      <trkpt lat="47.23533" lon="6.03592">
        <ele>249</ele>
        <time>2014-3-1T15:16:20.000Z</time>
      </trkpt>
      <trkpt lat="47.23525" lon="6.03593">
        <ele>249</ele>
        <time>2014-3-1T15:16:20.000Z</time>
      </trkpt>
      <trkpt lat="47.23525" lon="6.03593">
        <ele>249</ele>
        <time>2014-3-1T15:16:20.000Z</time>
      </trkpt>
      <trkpt lat="47.23519" lon="6.03596">
        <ele>248</ele>
        <time>2014-3-1T15:16:20.000Z</time>
      </trkpt>
      <trkpt lat="47.23519" lon="6.03596">
        <ele>248</ele>
        <time>2014-3-1T15:16:20.000Z</time>
      </trkpt>
      <trkpt lat="47.23513" lon="6.036">
        <ele>248</ele>
        <time>2014-3-1T15:17:9.000Z</time>
      </trkpt>
      <trkpt lat="47.23513" lon="6.036">
        <ele>248</ele>
        <time>2014-3-1T15:17:9.000Z</time>
      </trkpt>
      <trkpt lat="47.23504" lon="6.03604">
        <ele>250</ele>
        <time>2014-3-1T15:17:9.000Z</time>
      </trkpt>
      <trkpt lat="47.23504" lon="6.03604">
        <ele>250</ele>
        <time>2014-3-1T15:17:9.000Z</time>
      </trkpt>
      <trkpt lat="47.23496" lon="6.03609">
        <ele>248</ele>
        <time>2014-3-1T15:17:9.000Z</time>
      </trkpt>
      <trkpt lat="47.23496" lon="6.03609">
        <ele>248</ele>
        <time>2014-3-1T15:17:9.000Z</time>
      </trkpt>
      <trkpt lat="47.23484" lon="6.03613">
        <ele>248</ele>
        <time>2014-3-1T15:17:9.000Z</time>
      </trkpt>
      <trkpt lat="47.23484" lon="6.03613">
        <ele>248</ele>
        <time>2014-3-1T15:17:9.000Z</time>
      </trkpt>
      <trkpt lat="47.23476" lon="6.03618">
        <ele>246</ele>
        <time>2014-3-1T15:17:9.000Z</time>
      </trkpt>
      <trkpt lat="47.23476" lon="6.03618">
        <ele>246</ele>
        <time>2014-3-1T15:17:9.000Z</time>
      </trkpt>
      <trkpt lat="47.23468" lon="6.03621">
        <ele>244</ele>
        <time>2014-3-1T15:17:9.000Z</time>
      </trkpt>
      <trkpt lat="47.23468" lon="6.03621">
        <ele>244</ele>
        <time>2014-3-1T15:17:9.000Z</time>
      </trkpt>
      <trkpt lat="47.23459" lon="6.03625">
        <ele>244</ele>
        <time>2014-3-1T15:17:9.000Z</time>
      </trkpt>
      <trkpt lat="47.23459" lon="6.03625">
        <ele>244</ele>
        <time>2014-3-1T15:17:9.000Z</time>
      </trkpt>
      <trkpt lat="47.23452" lon="6.03628">
        <ele>243</ele>
        <time>2014-3-1T15:17:9.000Z</time>
      </trkpt>
      <trkpt lat="47.23452" lon="6.03628">
        <ele>243</ele>
        <time>2014-3-1T15:17:9.000Z</time>
      </trkpt>
      <trkpt lat="47.23445" lon="6.0363">
        <ele>244</ele>
        <time>2014-3-1T15:17:9.000Z</time>
      </trkpt>
      <trkpt lat="47.23445" lon="6.0363">
        <ele>244</ele>
        <time>2014-3-1T15:17:9.000Z</time>
      </trkpt>
      <trkpt lat="47.23439" lon="6.03633">
        <ele>244</ele>
        <time>2014-3-1T15:17:9.000Z</time>
      </trkpt>
      <trkpt lat="47.23439" lon="6.03633">
        <ele>244</ele>
        <time>2014-3-1T15:17:9.000Z</time>
      </trkpt>
      <trkpt lat="47.2343" lon="6.03638">
        <ele>244</ele>
        <time>2014-3-1T15:17:9.000Z</time>
      </trkpt>
      <trkpt lat="47.2343" lon="6.03638">
        <ele>244</ele>
        <time>2014-3-1T15:17:9.000Z</time>
      </trkpt>
      <trkpt lat="47.23422" lon="6.03642">
        <ele>243</ele>
        <time>2014-3-1T15:17:9.000Z</time>
      </trkpt>
      <trkpt lat="47.23422" lon="6.03642">
        <ele>243</ele>
        <time>2014-3-1T15:17:9.000Z</time>
      </trkpt>
      <trkpt lat="47.23415" lon="6.03647">
        <ele>245</ele>
        <time>2014-3-1T15:17:9.000Z</time>
      </trkpt>
      <trkpt lat="47.23415" lon="6.03647">
        <ele>245</ele>
        <time>2014-3-1T15:17:9.000Z</time>
      </trkpt>
      <trkpt lat="47.23409" lon="6.03652">
        <ele>244</ele>
        <time>2014-3-1T15:17:9.000Z</time>
      </trkpt>
      <trkpt lat="47.23409" lon="6.03652">
        <ele>244</ele>
        <time>2014-3-1T15:17:9.000Z</time>
      </trkpt>
      <trkpt lat="47.23402" lon="6.03657">
        <ele>244</ele>
        <time>2014-3-1T15:17:9.000Z</time>
      </trkpt>
      <trkpt lat="47.23402" lon="6.03657">
        <ele>244</ele>
        <time>2014-3-1T15:17:9.000Z</time>
      </trkpt>
      <trkpt lat="47.23394" lon="6.03661">
        <ele>244</ele>
        <time>2014-3-1T15:17:9.000Z</time>
      </trkpt>
      <trkpt lat="47.23394" lon="6.03661">
        <ele>244</ele>
        <time>2014-3-1T15:17:9.000Z</time>
      </trkpt>
      <trkpt lat="47.23385" lon="6.03662">
        <ele>246</ele>
        <time>2014-3-1T15:17:9.000Z</time>
      </trkpt>
      <trkpt lat="47.23385" lon="6.03662">
        <ele>246</ele>
        <time>2014-3-1T15:17:9.000Z</time>
      </trkpt>
      <trkpt lat="47.23204" lon="6.03813">
        <ele>266</ele>
        <time>2014-3-1T15:18:27.000Z</time>
      </trkpt>
      <trkpt lat="47.23204" lon="6.03813">
        <ele>266</ele>
        <time>2014-3-1T15:18:27.000Z</time>
      </trkpt>
      <trkpt lat="47.23207" lon="6.03814">
        <ele>255</ele>
        <time>2014-3-1T15:18:27.000Z</time>
      </trkpt>
      <trkpt lat="47.23207" lon="6.03814">
        <ele>255</ele>
        <time>2014-3-1T15:18:27.000Z</time>
      </trkpt>
    </trkseg>
  </trk>
</gpx>